[[{"header":{"parameterUnit":"m.s-1","parameterCategory":1,"la1":31.0,"la2":29.5877,"lo1":-88.7671,"lo2":-86.6584,"dy":0.0162,"dx":0.0185,"nx":115,"ny":88,"refTime":"2025-01-08T06:00:00:Z","depth":0,"parameterNumber":2,"parameterNumberName":"U-component_of_WINDS"},"data":[0.0,0.0,0.0,0.0,0.0,0.0,0.0,0.0,0.0,0.0,0.0,0.0,0.0,0.0,0.0,0.0,0.0,0.0,0.0,0.0,0.0,0.0,0.0,0.0,0.0,0.0,0.0,0.0,0.0,0.0,0.0,0.0,0.0,0.0,0.0,0.0,0.0,0.0,0.0,0.0,0.0,0.0,0.0,0.0,0.0,0.0,0.0,0.0,0.0,0.0,0.0,0.0,0.0,0.0,0.0,0.0,0.0,0.0,0.0,0.0,0.0,0.0,0.0,0.0,0.0,0.0,0.0,0.0,0.0,0.0,0.0,0.0,0.0,0.0,0.0,0.0,0.0,0.0,0.0,0.0,0.0,0.0,0.0,0.0,0.0,0.0,0.0,0.0,0.0,0.0,0.0,0.0,0.0,0.0,0.0,0.0,0.0,0.0,0.0,0.0,0.0,0.0,0.0,0.0,0.0,0.0,0.0,0.0,0.0,0.0,0.0,0.0,0.0,0.0,0.0,0.0,0.0,0.0,0.0,0.0,0.0,0.0,0.0,0.0,0.0,0.0,0.0,0.0,0.0,0.0,0.0,0.0,0.0,0.0,0.0,0.0,0.0,0.0,0.0,0.0,0.0,0.0,0.0,0.0,0.0,0.0,0.0,0.0,0.0,0.0,0.0,0.0,0.0,0.0,0.0,0.0,0.0,0.0,0.0,0.0,0.0,0.0,0.0,0.0,0.0,0.0,0.0,0.0,0.0,0.0,0.0,0.0,0.0,0.0,0.0,0.0,0.0,0.0,0.0,0.0,0.0,0.0,0.0,0.0,0.0,0.0,0.0,0.0,0.0,0.0,0.0,0.0,0.0,0.0,0.0,0.0,0.0,0.0,0.0,0.0,0.0,0.0,0.0,0.0,0.0,0.0,0.0,0.0,0.0,0.0,0.0,0.0,0.0,0.0,0.0,0.0,0.0,0.0,0.0,0.0,0.0,0.0,0.0,0.0,0.0,0.0,0.0,0.0,0.0,0.0,0.0,0.0,0.0,0.0,0.0,0.0,0.0,0.0,0.0,0.0,0.0,0.0,0.0,0.0,0.0,0.0,0.0,0.0,0.0,0.0,0.0,0.0,0.0,0.0,0.0,0.0,0.0,0.0,0.0,0.0,0.0,0.0,0.0,0.0,0.0,0.0,0.0,0.0,0.0,0.0,0.0,0.0,0.0,0.0,0.0,0.0,0.0,0.0,0.0,0.0,0.0,0.0,0.0,0.0,0.0,0.0,0.0,0.0,0.0,0.0,0.0,0.0,0.0,0.0,0.0,0.0,0.0,0.0,0.0,0.0,0.0,0.0,0.0,0.0,0.0,0.0,0.0,0.0,0.0,0.0,0.0,0.0,0.0,0.0,0.0,0.0,0.0,0.0,0.0,0.0,0.0,0.0,0.0,0.0,0.0,0.0,0.0,0.0,0.0,0.0,0.0,0.0,0.0,0.0,0.0,0.0,0.0,0.0,0.0,0.0,0.0,0.0,0.0,0.0,0.0,0.0,0.0,0.0,0.0,0.0,0.0,0.0,0.0,0.0,0.0,0.0,0.0,0.0,0.0,0.0,0.0,0.0,0.0,0.0,0.0,0.0,0.0,0.0,0.0,0.0,0.0,0.0,0.0,0.0,0.0,0.0,0.0,0.0,0.0,0.0,0.0,0.0,0.0,0.0,0.0,0.0,0.0,0.0,0.0,0.0,0.0,0.0,0.0,0.0,0.0,0.0,0.0,0.0,0.0,0.0,0.0,0.0,0.0,0.0,0.0,0.0,0.0,0.0,0.0,0.0,0.0,0.0,0.0,0.0,0.0,0.0,0.0,0.0,0.0,0.0,0.0,0.0,0.0,0.0,0.0,0.0,0.0,0.0,0.0,0.0,0.0,0.0,0.0,0.0,0.0,0.0,0.0,0.0,0.0,0.0,0.0,0.0,0.0,0.0,0.0,0.0,0.0,0.0,0.0,0.0,0.0,0.0,0.0,0.0,0.0,0.0,0.0,0.0,0.0,0.0,0.0,0.0,0.0,0.0,0.0,0.0,0.0,0.0,0.0,0.0,0.0,0.0,0.0,0.0,0.0,0.0,0.0,0.0,0.0,0.0,0.0,0.0,0.0,0.0,0.0,0.0,0.0,0.0,0.0,0.0,0.0,0.0,0.0,0.0,0.0,0.0,0.0,0.0,0.0,0.0,0.0,0.0,0.0,0.0,0.0,0.0,0.0,0.0,0.0,0.0,0.0,0.0,0.0,0.0,0.0,0.0,0.0,0.0,0.0,0.0,0.0,0.0,0.0,0.0,0.0,0.0,0.0,0.0,0.0,0.0,0.0,0.0,0.0,0.0,0.0,0.0,0.0,0.0,0.0,0.0,0.0,0.0,0.0,0.0,0.0,0.0,0.0,0.0,0.0,0.0,0.0,0.0,0.0,0.0,0.0,0.0,0.0,0.0,0.0,0.0,0.0,0.0,0.0,0.0,0.0,0.0,0.0,0.0,0.0,0.0,0.0,0.0,0.0,0.0,0.0,0.0,0.0,0.0,0.0,0.0,0.0,0.0,0.0,0.0,0.0,0.0,0.0,0.0,0.0,0.0,0.0,0.0,0.0,0.0,0.0,0.0,0.0,0.0,0.0,0.0,0.0,0.0,0.0,0.0,0.0,0.0,0.0,0.0,0.0,0.0,0.0,0.0,0.0,0.0,0.0,0.0,0.0,0.0,0.0,0.0,0.0,0.0,0.0,0.0,0.0,0.0,0.0,0.0,0.0,0.0,0.0,0.0,0.0,0.0,0.0,0.0,0.0,0.0,0.0,0.0,0.0,0.0,0.0,0.0,0.0,0.0,0.0,0.0,0.0,0.0,0.0,0.0,0.0,0.0,0.0,0.0,0.0,0.0,0.0,0.0,0.0,0.0,0.0,0.0,0.0,0.0,0.0,0.0,0.0,0.0,0.0,0.0,0.0,0.0,0.0,0.0,0.0,0.0,0.0,0.0,0.0,0.0,0.0,0.0,0.0,0.0,0.0,0.0,0.0,0.0,0.0,0.0,0.0,0.0,0.0,0.0,0.0,0.0,0.0,0.0,0.0,0.0,0.0,0.0,0.0,0.0,0.0,0.0,0.0,0.0,0.0,0.0,0.0,0.0,0.0,0.0,0.0,0.0,0.0,0.0,0.0,0.0,0.0,0.0,0.0,0.0,0.0,0.0,0.0,0.0,0.0,0.0,0.0,0.0,0.0,0.0,0.0,0.0,0.0,0.0,0.0,0.0,0.0,0.0,0.0,0.0,0.0,0.0,0.0,0.0,0.0,0.0,0.0,0.0,0.0,0.0,0.0,0.0,0.0,0.0,0.0,0.0,0.0,0.0,0.0,0.0,0.0,0.0,0.0,0.0,0.0,0.0,0.0,0.0,0.0,0.0,0.0,0.0,0.0,0.0,0.0,0.0,0.0,0.0,0.0,0.0,0.0,0.0,0.0,0.0,0.0,0.0,0.0,0.0,0.0,0.0,0.0,0.0,0.0,0.0,0.0,0.0,0.0,0.0,0.0,0.0,0.0,0.0,0.0,0.0,0.0,0.0,0.0,0.0,0.0,0.0,0.0,0.0,0.0,0.0,0.0,0.0,0.0,0.0,0.0,0.0,0.0,0.0,0.0,0.0,0.0,0.0,0.0,0.0,0.0,0.0,0.0,0.0,0.0,0.0,0.0,0.0,0.0,0.0,0.0,0.0,0.0,0.0,0.0,0.0,0.0,0.0,0.0,0.0,0.0,0.0,0.0,0.0,0.0,0.0,0.0,0.0,0.0,0.0,0.0,0.0,0.0,0.0,0.0,0.0,0.0,0.0,0.0,0.0,0.0,0.0,0.0,0.0,0.0,0.0,0.0,0.0,0.0,0.0,0.0,0.0,0.0,0.0,0.0,0.0,0.0,0.0,0.0,0.0,0.0,0.0,0.0,0.0,0.0,0.0,0.0,0.0,0.0,0.0,0.0,0.0,0.0,0.0,0.0,0.0,0.0,0.0,0.0,0.0,0.0,0.0,0.0,0.0,0.0,0.0,0.0,0.0,0.0,0.0,0.0,0.0,0.0,0.0,0.0,0.0,0.0,0.0,0.0,0.0,0.0,0.0,0.0,0.0,0.0,0.0,0.0,0.0,0.0,0.0,0.0,0.0,0.0,0.0,0.0,0.0,0.0,0.0,0.0,0.0,0.0,0.0,0.0,0.0,0.0,0.0,0.0,0.0,0.0,0.0,0.0,0.0,-4.44,0.0,0.0,0.0,0.0,0.0,0.0,0.0,0.0,0.0,0.0,0.0,0.0,0.0,0.0,0.0,0.0,0.0,0.0,0.0,0.0,0.0,0.0,0.0,0.0,0.0,0.0,0.0,0.0,0.0,0.0,0.0,0.0,0.0,0.0,0.0,0.0,0.0,0.0,0.0,0.0,0.0,0.0,0.0,0.0,0.0,0.0,0.0,0.0,0.0,0.0,0.0,0.0,0.0,0.0,0.0,0.0,0.0,0.0,0.0,0.0,0.0,0.0,0.0,0.0,0.0,0.0,0.0,0.0,0.0,0.0,0.0,0.0,0.0,0.0,0.0,0.0,0.0,0.0,0.0,0.0,0.0,0.0,0.0,0.0,0.0,0.0,0.0,0.0,0.0,0.0,0.0,0.0,0.0,0.0,0.0,0.0,0.0,0.0,0.0,0.0,0.0,0.0,0.0,0.0,0.0,0.0,0.0,0.0,0.0,0.0,-4.7671,-5.0182,-4.9929,-4.901,-4.7598,0.0,0.0,0.0,0.0,0.0,0.0,0.0,0.0,0.0,0.0,0.0,0.0,0.0,0.0,0.0,0.0,0.0,0.0,0.0,0.0,0.0,0.0,0.0,0.0,0.0,0.0,0.0,0.0,0.0,0.0,0.0,0.0,0.0,0.0,0.0,0.0,0.0,0.0,0.0,0.0,0.0,0.0,0.0,0.0,0.0,0.0,0.0,0.0,0.0,0.0,0.0,0.0,0.0,0.0,0.0,0.0,0.0,0.0,0.0,0.0,0.0,0.0,0.0,0.0,0.0,0.0,0.0,0.0,0.0,0.0,0.0,0.0,0.0,0.0,0.0,0.0,0.0,0.0,0.0,0.0,0.0,0.0,0.0,0.0,0.0,0.0,0.0,0.0,0.0,0.0,0.0,0.0,0.0,0.0,0.0,0.0,0.0,0.0,0.0,0.0,0.0,0.0,0.0,0.0,0.0,0.0,0.0,0.0,0.0,0.0,0.0,0.0,-5.3043,-5.2135,-5.0356,0.0,0.0,0.0,0.0,0.0,0.0,0.0,0.0,0.0,0.0,0.0,0.0,0.0,0.0,0.0,0.0,0.0,0.0,0.0,0.0,0.0,0.0,0.0,0.0,0.0,0.0,0.0,0.0,0.0,0.0,0.0,0.0,0.0,0.0,0.0,0.0,0.0,0.0,0.0,0.0,0.0,0.0,0.0,0.0,0.0,0.0,0.0,0.0,0.0,0.0,0.0,0.0,0.0,0.0,0.0,0.0,0.0,0.0,0.0,0.0,0.0,0.0,0.0,0.0,0.0,0.0,0.0,0.0,0.0,0.0,0.0,0.0,0.0,0.0,0.0,0.0,0.0,0.0,0.0,0.0,0.0,0.0,0.0,0.0,0.0,0.0,0.0,0.0,0.0,0.0,0.0,0.0,0.0,0.0,0.0,0.0,0.0,0.0,0.0,0.0,0.0,0.0,0.0,0.0,0.0,0.0,0.0,0.0,0.0,0.0,-5.5008,-5.7504,-5.754,0.0,-5.3274,0.0,0.0,0.0,0.0,0.0,0.0,0.0,0.0,0.0,0.0,0.0,0.0,0.0,0.0,0.0,0.0,0.0,0.0,0.0,0.0,0.0,0.0,0.0,0.0,0.0,0.0,0.0,0.0,0.0,0.0,0.0,0.0,0.0,0.0,0.0,0.0,0.0,0.0,0.0,0.0,0.0,0.0,0.0,0.0,0.0,0.0,0.0,0.0,0.0,0.0,0.0,0.0,0.0,0.0,0.0,0.0,0.0,0.0,0.0,0.0,0.0,0.0,0.0,0.0,0.0,0.0,0.0,0.0,0.0,0.0,0.0,0.0,0.0,0.0,0.0,0.0,0.0,0.0,0.0,0.0,0.0,0.0,0.0,0.0,0.0,0.0,0.0,0.0,0.0,0.0,0.0,0.0,0.0,0.0,0.0,0.0,0.0,0.0,0.0,0.0,0.0,0.0,0.0,0.0,0.0,0.0,0.0,0.0,0.0,0.0,-5.8017,-5.884,-5.7944,-5.6241,0.0,0.0,0.0,0.0,0.0,0.0,0.0,0.0,0.0,0.0,0.0,0.0,0.0,0.0,0.0,0.0,0.0,0.0,0.0,0.0,0.0,0.0,0.0,0.0,0.0,0.0,0.0,0.0,0.0,0.0,0.0,0.0,0.0,0.0,0.0,0.0,0.0,0.0,0.0,0.0,0.0,0.0,0.0,0.0,0.0,0.0,0.0,0.0,0.0,0.0,0.0,0.0,0.0,0.0,0.0,0.0,0.0,0.0,0.0,0.0,0.0,0.0,0.0,0.0,0.0,0.0,0.0,0.0,0.0,0.0,0.0,0.0,0.0,0.0,0.0,0.0,0.0,0.0,0.0,0.0,0.0,0.0,0.0,0.0,0.0,0.0,0.0,0.0,0.0,0.0,0.0,0.0,0.0,0.0,0.0,0.0,0.0,0.0,0.0,0.0,0.0,0.0,0.0,0.0,0.0,0.0,0.0,0.0,0.0,0.0,-5.9862,-6.0453,-6.0286,-5.8884,-5.6806,-5.3999,0.0,0.0,0.0,0.0,0.0,0.0,0.0,0.0,0.0,0.0,0.0,0.0,0.0,0.0,0.0,0.0,0.0,0.0,0.0,0.0,0.0,0.0,0.0,0.0,0.0,0.0,0.0,0.0,0.0,0.0,0.0,0.0,0.0,0.0,0.0,0.0,0.0,0.0,0.0,0.0,0.0,0.0,0.0,0.0,0.0,0.0,0.0,0.0,0.0,0.0,0.0,0.0,0.0,0.0,0.0,0.0,0.0,0.0,0.0,0.0,0.0,0.0,0.0,0.0,0.0,0.0,0.0,0.0,0.0,0.0,0.0,0.0,0.0,0.0,0.0,0.0,0.0,0.0,0.0,0.0,0.0,0.0,0.0,0.0,0.0,0.0,0.0,0.0,0.0,0.0,0.0,0.0,0.0,0.0,0.0,0.0,0.0,0.0,0.0,0.0,0.0,0.0,0.0,0.0,0.0,0.0,0.0,0.0,-6.3729,-6.2522,-6.2183,-6.2899,-6.1599,-5.9037,0.0,0.0,0.0,0.0,0.0,0.0,0.0,0.0,0.0,0.0,0.0,0.0,0.0,0.0,0.0,0.0,0.0,0.0,0.0,0.0,0.0,0.0,0.0,0.0,0.0,0.0,0.0,0.0,0.0,0.0,0.0,0.0,0.0,0.0,0.0,0.0,0.0,0.0,0.0,0.0,0.0,0.0,0.0,0.0,0.0,0.0,0.0,0.0,0.0,0.0,0.0,0.0,0.0,0.0,0.0,0.0,0.0,0.0,0.0,0.0,0.0,0.0,0.0,0.0,0.0,0.0,0.0,0.0,0.0,0.0,0.0,0.0,0.0,0.0,0.0,0.0,0.0,0.0,0.0,0.0,0.0,0.0,0.0,0.0,0.0,0.0,0.0,0.0,0.0,0.0,0.0,0.0,0.0,0.0,0.0,0.0,0.0,0.0,0.0,0.0,0.0,0.0,0.0,0.0,0.0,0.0,0.0,0.0,0.0,-6.1736,-6.178,-6.3012,-6.5237,-6.192,-5.929,0.0,0.0,0.0,0.0,0.0,0.0,0.0,0.0,0.0,0.0,0.0,0.0,0.0,0.0,0.0,0.0,0.0,0.0,0.0,0.0,0.0,0.0,0.0,0.0,0.0,0.0,0.0,0.0,0.0,0.0,0.0,0.0,0.0,0.0,0.0,0.0,0.0,0.0,0.0,0.0,0.0,0.0,0.0,0.0,0.0,0.0,0.0,0.0,0.0,0.0,0.0,0.0,0.0,0.0,0.0,0.0,0.0,0.0,0.0,0.0,0.0,0.0,0.0,0.0,0.0,0.0,0.0,0.0,0.0,0.0,0.0,0.0,0.0,0.0,0.0,0.0,0.0,0.0,0.0,0.0,0.0,0.0,0.0,0.0,0.0,0.0,0.0,0.0,0.0,0.0,0.0,0.0,0.0,0.0,0.0,0.0,0.0,0.0,0.0,0.0,0.0,0.0,0.0,0.0,0.0,0.0,0.0,0.0,0.0,-6.2089,0.0,-6.4647,-6.5866,-6.2387,-5.9517,0.0,0.0,0.0,0.0,0.0,0.0,0.0,0.0,0.0,0.0,0.0,0.0,0.0,0.0,0.0,0.0,0.0,0.0,0.0,0.0,0.0,0.0,0.0,0.0,0.0,0.0,0.0,0.0,0.0,0.0,0.0,0.0,0.0,0.0,0.0,0.0,0.0,0.0,0.0,0.0,0.0,0.0,0.0,0.0,0.0,0.0,0.0,0.0,0.0,0.0,0.0,0.0,0.0,0.0,0.0,0.0,0.0,0.0,0.0,0.0,0.0,0.0,0.0,0.0,0.0,0.0,0.0,0.0,0.0,0.0,0.0,0.0,0.0,0.0,0.0,0.0,0.0,0.0,0.0,0.0,0.0,0.0,0.0,0.0,0.0,0.0,0.0,0.0,0.0,0.0,0.0,0.0,0.0,0.0,0.0,0.0,0.0,0.0,0.0,0.0,0.0,0.0,0.0,0.0,0.0,0.0,0.0,0.0,-6.2626,-6.5692,-6.7333,-6.6999,-6.4757,-6.3294,-5.9912,0.0,0.0,0.0,0.0,0.0,0.0,0.0,0.0,0.0,0.0,0.0,0.0,0.0,0.0,0.0,0.0,0.0,0.0,0.0,0.0,0.0,0.0,0.0,0.0,0.0,0.0,0.0,0.0,0.0,0.0,0.0,0.0,0.0,0.0,0.0,0.0,0.0,0.0,0.0,0.0,0.0,0.0,0.0,0.0,0.0,0.0,0.0,0.0,0.0,0.0,0.0,0.0,0.0,0.0,0.0,0.0,0.0,0.0,0.0,0.0,0.0,0.0,0.0,0.0,0.0,0.0,0.0,0.0,0.0,0.0,0.0,0.0,0.0,0.0,0.0,0.0,0.0,0.0,0.0,0.0,0.0,0.0,0.0,0.0,0.0,0.0,0.0,0.0,0.0,0.0,0.0,0.0,0.0,0.0,0.0,0.0,0.0,0.0,0.0,0.0,0.0,0.0,0.0,0.0,0.0,0.0,0.0,0.0,0.0,-6.4366,-6.5842,-6.7128,-6.7936,-6.4296,-6.1672,0.0,0.0,0.0,0.0,0.0,0.0,0.0,0.0,0.0,0.0,0.0,0.0,0.0,0.0,0.0,0.0,0.0,0.0,0.0,0.0,0.0,0.0,0.0,0.0,0.0,0.0,0.0,0.0,0.0,0.0,0.0,0.0,0.0,0.0,0.0,0.0,0.0,0.0,0.0,0.0,0.0,0.0,0.0,0.0,0.0,0.0,0.0,0.0,0.0,0.0,0.0,0.0,0.0,0.0,0.0,0.0,0.0,0.0,0.0,0.0,0.0,0.0,0.0,0.0,0.0,0.0,0.0,0.0,0.0,0.0,0.0,0.0,0.0,0.0,0.0,0.0,0.0,0.0,0.0,0.0,0.0,0.0,0.0,0.0,0.0,0.0,0.0,0.0,0.0,0.0,0.0,0.0,0.0,0.0,0.0,0.0,0.0,0.0,0.0,0.0,0.0,0.0,0.0,0.0,0.0,0.0,0.0,0.0,0.0,-6.711,-6.8502,-6.972,-7.0629,-6.659,-6.3782,-6.2358,0.0,0.0,0.0,0.0,0.0,0.0,0.0,0.0,0.0,0.0,0.0,0.0,0.0,0.0,0.0,0.0,0.0,0.0,0.0,0.0,0.0,0.0,0.0,0.0,0.0,0.0,0.0,0.0,0.0,0.0,0.0,0.0,0.0,0.0,0.0,0.0,0.0,0.0,0.0,0.0,0.0,0.0,0.0,0.0,0.0,0.0,0.0,0.0,0.0,0.0,0.0,0.0,0.0,0.0,0.0,0.0,0.0,0.0,0.0,0.0,0.0,0.0,0.0,0.0,0.0,0.0,0.0,0.0,0.0,0.0,0.0,0.0,0.0,0.0,0.0,0.0,0.0,0.0,0.0,0.0,0.0,0.0,0.0,0.0,0.0,0.0,0.0,0.0,0.0,0.0,0.0,0.0,0.0,0.0,0.0,0.0,0.0,0.0,0.0,0.0,0.0,0.0,0.0,0.0,0.0,0.0,0.0,0.0,-7.292,-7.4674,-7.4688,-7.2811,-7.0014,-6.6282,0.0,0.0,0.0,0.0,0.0,0.0,0.0,0.0,0.0,0.0,0.0,0.0,0.0,0.0,0.0,0.0,0.0,0.0,0.0,0.0,0.0,0.0,0.0,0.0,0.0,0.0,0.0,0.0,0.0,0.0,0.0,0.0,0.0,0.0,0.0,0.0,0.0,0.0,0.0,0.0,0.0,0.0,0.0,0.0,0.0,0.0,0.0,0.0,0.0,0.0,0.0,0.0,0.0,0.0,0.0,0.0,0.0,0.0,0.0,0.0,0.0,0.0,0.0,0.0,0.0,0.0,0.0,0.0,0.0,0.0,0.0,0.0,0.0,0.0,0.0,0.0,0.0,0.0,0.0,0.0,0.0,0.0,0.0,0.0,0.0,0.0,0.0,0.0,0.0,0.0,0.0,0.0,0.0,0.0,0.0,0.0,0.0,0.0,0.0,0.0,0.0,0.0,0.0,0.0,0.0,0.0,0.0,0.0,0.0,-7.5757,-8.0318,-8.1475,-7.8776,-7.3245,-6.936,0.0,0.0,0.0,0.0,0.0,0.0,0.0,0.0,0.0,0.0,0.0,0.0,0.0,0.0,0.0,0.0,0.0,0.0,0.0,0.0,0.0,0.0,0.0,0.0,0.0,0.0,0.0,0.0,0.0,0.0,0.0,0.0,0.0,0.0,0.0,0.0,0.0,0.0,0.0,0.0,0.0,0.0,0.0,0.0,0.0,0.0,0.0,0.0,0.0,0.0,0.0,0.0,0.0,0.0,0.0,0.0,0.0,0.0,0.0,0.0,0.0,0.0,0.0,0.0,0.0,0.0,0.0,0.0,0.0,0.0,0.0,0.0,0.0,0.0,0.0,0.0,0.0,0.0,0.0,0.0,0.0,0.0,0.0,0.0,0.0,0.0,0.0,0.0,0.0,0.0,0.0,0.0,0.0,0.0,0.0,0.0,0.0,0.0,0.0,0.0,0.0,0.0,0.0,0.0,0.0,0.0,0.0,0.0,-7.6277,-7.9478,-8.5259,-8.7461,-8.5681,-7.8486,-7.3206,0.0,0.0,0.0,0.0,0.0,0.0,0.0,0.0,0.0,0.0,0.0,0.0,0.0,0.0,0.0,0.0,0.0,0.0,0.0,0.0,0.0,0.0,0.0,0.0,0.0,0.0,0.0,0.0,0.0,0.0,0.0,0.0,0.0,0.0,0.0,0.0,0.0,0.0,0.0,0.0,0.0,0.0,0.0,0.0,0.0,0.0,0.0,0.0,0.0,0.0,0.0,0.0,0.0,0.0,0.0,0.0,0.0,0.0,0.0,0.0,0.0,0.0,0.0,0.0,0.0,0.0,0.0,0.0,0.0,0.0,0.0,0.0,0.0,0.0,0.0,0.0,0.0,0.0,0.0,0.0,0.0,0.0,0.0,0.0,0.0,0.0,0.0,0.0,0.0,0.0,0.0,0.0,0.0,0.0,0.0,0.0,0.0,0.0,0.0,0.0,0.0,0.0,0.0,0.0,0.0,0.0,0.0,0.0,-8.0225,-8.3483,-8.9212,-9.2089,-9.1731,-8.3991,-7.7073,0.0,0.0,0.0,0.0,0.0,0.0,0.0,0.0,0.0,0.0,0.0,0.0,0.0,0.0,0.0,0.0,0.0,0.0,0.0,0.0,0.0,0.0,0.0,0.0,0.0,0.0,0.0,0.0,0.0,0.0,0.0,0.0,0.0,0.0,0.0,0.0,0.0,0.0,0.0,0.0,0.0,0.0,0.0,0.0,0.0,0.0,0.0,0.0,0.0,0.0,0.0,0.0,0.0,0.0,0.0,0.0,0.0,0.0,0.0,0.0,0.0,0.0,0.0,0.0,0.0,0.0,0.0,0.0,0.0,0.0,0.0,0.0,0.0,0.0,0.0,0.0,0.0,0.0,0.0,0.0,0.0,0.0,0.0,0.0,0.0,0.0,0.0,0.0,0.0,0.0,0.0,0.0,0.0,0.0,0.0,0.0,0.0,0.0,0.0,0.0,0.0,0.0,0.0,0.0,0.0,0.0,0.0,0.0,-8.1444,-8.5503,-8.9913,-9.2208,-9.21,-8.366,-7.755,0.0,0.0,0.0,0.0,0.0,0.0,0.0,0.0,0.0,0.0,0.0,0.0,0.0,0.0,0.0,0.0,0.0,0.0,0.0,0.0,0.0,0.0,0.0,0.0,0.0,0.0,0.0,0.0,0.0,0.0,0.0,0.0,0.0,0.0,0.0,0.0,0.0,0.0,0.0,0.0,0.0,0.0,0.0,0.0,0.0,0.0,0.0,0.0,-6.794,0.0,0.0,0.0,0.0,0.0,0.0,0.0,0.0,0.0,0.0,0.0,0.0,0.0,0.0,0.0,0.0,0.0,0.0,0.0,0.0,0.0,0.0,0.0,0.0,0.0,0.0,0.0,0.0,0.0,0.0,0.0,0.0,0.0,0.0,0.0,0.0,0.0,0.0,0.0,0.0,0.0,0.0,0.0,0.0,0.0,0.0,0.0,0.0,0.0,0.0,0.0,0.0,0.0,0.0,0.0,0.0,0.0,0.0,0.0,-8.3242,-8.789,-9.0849,-9.2595,-9.2707,-8.5983,-8.0201,0.0,0.0,0.0,0.0,0.0,0.0,0.0,0.0,0.0,0.0,0.0,0.0,0.0,0.0,0.0,0.0,0.0,0.0,0.0,0.0,0.0,0.0,0.0,0.0,0.0,0.0,0.0,0.0,0.0,0.0,0.0,0.0,0.0,0.0,0.0,0.0,0.0,0.0,0.0,0.0,0.0,0.0,0.0,0.0,0.0,0.0,0.0,0.0,0.0,0.0,0.0,0.0,0.0,0.0,0.0,0.0,0.0,0.0,0.0,0.0,0.0,0.0,0.0,0.0,0.0,0.0,0.0,0.0,0.0,0.0,0.0,0.0,0.0,0.0,0.0,0.0,0.0,0.0,0.0,0.0,0.0,0.0,0.0,0.0,0.0,0.0,0.0,0.0,0.0,0.0,0.0,0.0,0.0,0.0,0.0,0.0,0.0,0.0,0.0,0.0,0.0,0.0,0.0,0.0,0.0,0.0,0.0,-7.9375,-8.4648,-9.0156,-9.1836,-9.2969,-9.3594,-8.8928,-8.328,-7.6948,0.0,0.0,0.0,0.0,0.0,0.0,0.0,0.0,0.0,0.0,0.0,0.0,0.0,0.0,0.0,0.0,0.0,0.0,0.0,0.0,0.0,0.0,0.0,0.0,0.0,0.0,0.0,0.0,0.0,0.0,0.0,0.0,0.0,0.0,0.0,0.0,0.0,0.0,-6.2425,-6.6292,0.0,0.0,0.0,0.0,0.0,0.0,0.0,0.0,-7.1354,0.0,0.0,0.0,0.0,0.0,0.0,0.0,0.0,0.0,0.0,0.0,0.0,0.0,0.0,0.0,0.0,0.0,0.0,0.0,0.0,0.0,0.0,0.0,0.0,0.0,0.0,0.0,0.0,0.0,0.0,0.0,0.0,0.0,0.0,0.0,0.0,0.0,0.0,0.0,0.0,0.0,0.0,0.0,0.0,0.0,0.0,0.0,0.0,0.0,0.0,0.0,0.0,0.0,0.0,0.0,0.0,-7.9421,-7.9958,-8.4023,-9.1914,-9.2461,-9.2656,-9.2734,-8.9843,-8.4723,-7.7452,0.0,0.0,0.0,0.0,0.0,0.0,0.0,0.0,0.0,0.0,0.0,0.0,0.0,0.0,0.0,0.0,0.0,0.0,0.0,0.0,0.0,0.0,0.0,0.0,0.0,0.0,0.0,0.0,0.0,0.0,0.0,0.0,0.0,0.0,0.0,0.0,0.0,0.0,0.0,-7.3817,-7.5689,0.0,0.0,0.0,0.0,0.0,0.0,0.0,0.0,-7.2922,0.0,0.0,0.0,0.0,0.0,0.0,0.0,0.0,0.0,0.0,0.0,0.0,0.0,0.0,0.0,0.0,0.0,0.0,0.0,0.0,0.0,0.0,0.0,0.0,0.0,0.0,0.0,0.0,0.0,0.0,0.0,0.0,0.0,0.0,0.0,0.0,0.0,0.0,0.0,0.0,0.0,0.0,0.0,0.0,0.0,0.0,0.0,0.0,0.0,0.0,0.0,0.0,0.0,0.0,0.0,-7.8585,-8.2456,-8.7031,-9.2383,-9.2578,-9.2578,-9.25,-8.8359,-8.3242,0.0,0.0,0.0,0.0,0.0,0.0,0.0,0.0,0.0,0.0,0.0,0.0,0.0,0.0,0.0,0.0,0.0,0.0,0.0,0.0,0.0,0.0,0.0,0.0,0.0,0.0,0.0,0.0,0.0,0.0,0.0,0.0,0.0,0.0,0.0,0.0,0.0,0.0,0.0,0.0,-7.6203,-7.7928,-8.1195,0.0,0.0,0.0,0.0,0.0,0.0,-7.5004,-7.4124,0.0,0.0,0.0,0.0,0.0,0.0,0.0,0.0,0.0,0.0,0.0,0.0,0.0,0.0,0.0,0.0,0.0,0.0,0.0,0.0,0.0,0.0,0.0,0.0,0.0,0.0,0.0,0.0,0.0,0.0,0.0,0.0,0.0,0.0,0.0,0.0,0.0,0.0,0.0,0.0,0.0,0.0,0.0,0.0,0.0,0.0,0.0,0.0,0.0,0.0,0.0,0.0,0.0,0.0,0.0,-7.7238,-8.4398,-8.9685,-9.2773,-9.289,-9.2773,-9.25,-8.707,-8.1953,0.0,0.0,0.0,0.0,0.0,0.0,0.0,0.0,0.0,0.0,0.0,0.0,0.0,0.0,0.0,0.0,0.0,0.0,0.0,0.0,0.0,0.0,0.0,0.0,0.0,0.0,0.0,0.0,0.0,0.0,0.0,0.0,0.0,0.0,0.0,0.0,0.0,0.0,0.0,0.0,0.0,-8.0277,-8.2994,-8.1195,0.0,0.0,0.0,0.0,-7.7867,-7.8098,0.0,0.0,0.0,0.0,0.0,0.0,0.0,0.0,0.0,0.0,0.0,0.0,0.0,0.0,0.0,0.0,0.0,0.0,0.0,0.0,0.0,0.0,0.0,0.0,0.0,0.0,0.0,0.0,0.0,0.0,0.0,0.0,0.0,0.0,0.0,0.0,0.0,0.0,0.0,0.0,0.0,0.0,0.0,0.0,0.0,0.0,0.0,0.0,0.0,0.0,0.0,0.0,0.0,0.0,0.0,0.0,-7.7802,-8.3302,-8.8719,-9.3789,-9.3867,-9.3398,-9.2578,-8.8242,-8.3164,0.0,0.0,0.0,0.0,0.0,0.0,0.0,0.0,0.0,0.0,0.0,0.0,0.0,0.0,0.0,0.0,0.0,0.0,0.0,0.0,0.0,0.0,0.0,0.0,0.0,0.0,0.0,0.0,0.0,0.0,0.0,0.0,0.0,0.0,0.0,0.0,0.0,0.0,0.0,0.0,0.0,-8.527,-8.3654,-8.3104,-8.2517,0.0,0.0,-8.2103,-8.4301,-8.6966,0.0,0.0,0.0,0.0,0.0,0.0,0.0,0.0,0.0,0.0,0.0,0.0,0.0,0.0,0.0,0.0,0.0,0.0,0.0,0.0,0.0,0.0,0.0,0.0,0.0,0.0,0.0,0.0,0.0,0.0,0.0,0.0,0.0,0.0,0.0,0.0,0.0,0.0,0.0,0.0,0.0,0.0,0.0,0.0,0.0,0.0,0.0,0.0,0.0,0.0,0.0,0.0,0.0,0.0,0.0,-7.4558,-7.7943,-8.5972,-9.1694,-9.4655,-9.4684,-9.3984,-9.2617,-8.7031,-8.1875,0.0,0.0,0.0,0.0,0.0,0.0,0.0,0.0,0.0,0.0,0.0,0.0,0.0,0.0,0.0,0.0,0.0,0.0,0.0,0.0,0.0,0.0,0.0,0.0,0.0,0.0,0.0,0.0,0.0,0.0,0.0,0.0,0.0,0.0,0.0,0.0,0.0,0.0,0.0,0.0,0.0,0.0,-8.7935,-8.8134,0.0,0.0,0.0,-8.5782,-8.6397,0.0,0.0,0.0,0.0,0.0,0.0,0.0,0.0,0.0,0.0,0.0,0.0,0.0,0.0,0.0,0.0,0.0,0.0,0.0,0.0,0.0,0.0,0.0,0.0,0.0,0.0,0.0,0.0,0.0,0.0,0.0,0.0,0.0,0.0,0.0,0.0,0.0,0.0,0.0,0.0,0.0,0.0,0.0,0.0,0.0,0.0,0.0,0.0,0.0,0.0,0.0,0.0,0.0,0.0,0.0,0.0,0.0,-7.8395,-8.864,-9.4562,-9.5768,-9.5793,-9.4879,-9.3008,-8.707,0.0,0.0,0.0,0.0,0.0,0.0,0.0,0.0,0.0,0.0,0.0,0.0,0.0,0.0,0.0,0.0,0.0,0.0,0.0,0.0,0.0,0.0,0.0,0.0,0.0,0.0,0.0,-5.5742,0.0,0.0,0.0,0.0,0.0,0.0,0.0,0.0,0.0,0.0,0.0,0.0,0.0,0.0,-8.8442,-9.1,-9.2523,-9.3522,0.0,0.0,-8.9654,-8.943,-9.0774,-8.931,0.0,0.0,0.0,0.0,0.0,0.0,0.0,0.0,0.0,0.0,0.0,0.0,0.0,0.0,0.0,0.0,0.0,0.0,0.0,0.0,0.0,0.0,0.0,0.0,0.0,0.0,0.0,0.0,0.0,0.0,0.0,0.0,0.0,0.0,0.0,0.0,0.0,0.0,0.0,0.0,0.0,0.0,0.0,0.0,0.0,0.0,0.0,0.0,0.0,0.0,0.0,0.0,0.0,0.0,-7.7305,-8.0256,-9.008,-9.602,-9.7466,-9.7329,-9.6283,-9.4179,-9.0351,-8.4765,0.0,0.0,0.0,0.0,0.0,0.0,0.0,0.0,0.0,0.0,0.0,0.0,0.0,0.0,0.0,0.0,0.0,0.0,0.0,0.0,0.0,0.0,0.0,0.0,0.0,0.0,0.0,0.0,0.0,0.0,0.0,0.0,0.0,0.0,0.0,0.0,0.0,0.0,0.0,0.0,0.0,-9.0193,-9.0523,-9.4551,-9.8083,0.0,-9.6397,-9.4323,-9.5827,-9.9168,-9.7452,-8.5159,0.0,0.0,0.0,0.0,0.0,0.0,0.0,0.0,0.0,0.0,0.0,0.0,0.0,0.0,0.0,0.0,0.0,0.0,0.0,0.0,0.0,0.0,0.0,0.0,0.0,0.0,0.0,0.0,0.0,0.0,0.0,0.0,0.0,0.0,0.0,0.0,0.0,0.0,0.0,0.0,0.0,0.0,0.0,0.0,0.0,0.0,0.0,0.0,0.0,0.0,0.0,0.0,0.0,-7.7564,-8.0817,-9.0428,-9.6527,-9.8741,-9.8382,-9.7494,-9.6133,-9.2338,-8.6445,0.0,0.0,0.0,0.0,0.0,0.0,0.0,0.0,0.0,0.0,0.0,0.0,0.0,0.0,0.0,0.0,0.0,0.0,0.0,0.0,0.0,0.0,0.0,0.0,0.0,0.0,0.0,0.0,-6.659,-6.7359,-6.582,0.0,0.0,0.0,0.0,0.0,0.0,0.0,0.0,0.0,0.0,-9.3158,-9.7336,-9.9689,0.0,0.0,-9.999,-9.7847,-9.747,-9.7487,-9.4689,-8.6244,-8.292,0.0,0.0,0.0,0.0,0.0,0.0,0.0,0.0,0.0,0.0,0.0,0.0,0.0,0.0,0.0,0.0,0.0,0.0,0.0,0.0,0.0,0.0,0.0,0.0,0.0,0.0,0.0,0.0,0.0,0.0,0.0,0.0,0.0,0.0,0.0,0.0,0.0,0.0,0.0,0.0,0.0,0.0,0.0,0.0,0.0,0.0,0.0,0.0,0.0,0.0,0.0,0.0,-7.8054,-8.1439,-9.1076,-9.7247,-9.9774,-9.9366,-9.8669,-9.7554,-9.4186,-8.8705,0.0,0.0,0.0,0.0,0.0,0.0,0.0,0.0,0.0,0.0,0.0,0.0,0.0,0.0,0.0,0.0,0.0,0.0,0.0,0.0,0.0,0.0,0.0,0.0,0.0,0.0,0.0,0.0,-6.8552,-6.859,-6.659,0.0,0.0,0.0,0.0,0.0,0.0,0.0,0.0,0.0,0.0,-9.598,-10.1443,-10.2539,-10.3007,-10.3496,-10.1006,-9.8832,-9.826,-9.6793,-9.3889,-8.879,0.0,0.0,0.0,0.0,0.0,0.0,0.0,0.0,0.0,0.0,0.0,0.0,0.0,0.0,0.0,0.0,0.0,0.0,0.0,0.0,0.0,0.0,0.0,0.0,0.0,0.0,0.0,-4.2675,0.0,0.0,-4.6436,0.0,0.0,0.0,0.0,0.0,0.0,0.0,0.0,0.0,0.0,0.0,0.0,0.0,0.0,0.0,0.0,0.0,0.0,0.0,0.0,0.0,0.0,-7.8938,-8.2324,-9.2284,-9.8387,-10.0286,-10.0384,-9.9785,-9.8547,-9.6071,-9.1982,-8.6054,0.0,0.0,0.0,0.0,0.0,0.0,0.0,0.0,0.0,0.0,0.0,0.0,0.0,0.0,0.0,0.0,0.0,0.0,0.0,0.0,0.0,0.0,0.0,0.0,0.0,0.0,-6.4936,-6.5513,-6.5782,0.0,0.0,0.0,0.0,0.0,0.0,0.0,0.0,0.0,-8.4055,-9.2095,-9.8327,-10.0981,-10.2058,-10.2711,-10.2711,-9.9217,-9.7001,-9.859,-9.8757,-9.7383,0.0,0.0,0.0,0.0,0.0,0.0,0.0,0.0,0.0,0.0,0.0,0.0,0.0,0.0,0.0,0.0,0.0,0.0,0.0,0.0,0.0,0.0,0.0,0.0,0.0,0.0,0.0,-4.704,-4.7852,0.0,0.0,0.0,0.0,0.0,0.0,0.0,0.0,0.0,0.0,0.0,-6.6801,-6.9076,0.0,0.0,0.0,0.0,0.0,0.0,0.0,0.0,0.0,0.0,0.0,0.0,-7.9515,-8.4209,-9.2903,-9.8632,-10.0897,-10.062,-10.0017,-9.9202,-9.7967,-9.3543,-8.5547,0.0,0.0,0.0,0.0,0.0,0.0,0.0,0.0,0.0,0.0,0.0,0.0,0.0,0.0,0.0,0.0,0.0,0.0,0.0,0.0,0.0,0.0,0.0,0.0,0.0,-6.6244,0.0,0.0,0.0,0.0,0.0,0.0,0.0,0.0,0.0,0.0,-7.6801,-8.2401,-8.8325,-9.3518,-9.7827,-10.0904,-10.2558,-10.3866,0.0,0.0,0.0,0.0,0.0,0.0,0.0,0.0,0.0,0.0,0.0,0.0,0.0,0.0,-9.3051,-8.1856,-8.0204,-8.0461,-8.0204,0.0,0.0,0.0,0.0,0.0,0.0,0.0,0.0,0.0,0.0,0.0,0.0,0.0,0.0,-5.1375,-5.2165,-5.3901,0.0,0.0,0.0,0.0,0.0,0.0,0.0,0.0,-6.8042,-7.1068,-7.204,-7.4311,-7.4882,-7.3854,-7.334,-6.9633,0.0,0.0,0.0,0.0,0.0,0.0,0.0,0.0,-8.0669,-8.5863,-9.3826,-9.9019,-10.1135,-10.0891,-10.0606,-10.0417,-9.9328,-9.5094,-8.7383,-8.0547,-7.4531,0.0,0.0,0.0,0.0,0.0,0.0,0.0,0.0,0.0,0.0,0.0,0.0,0.0,0.0,0.0,0.0,0.0,0.0,0.0,0.0,0.0,0.0,0.0,-6.8398,0.0,0.0,0.0,0.0,0.0,0.0,0.0,0.0,0.0,-7.7822,-8.249,-8.7825,-9.3133,-9.6519,-9.9058,-10.0635,0.0,0.0,0.0,0.0,0.0,0.0,0.0,-9.8943,-9.9248,-9.8554,-9.8234,-9.9363,-10.1671,-10.2934,-10.1499,0.0,0.0,-9.0629,-8.894,-8.9197,-8.8904,-9.0115,-9.0922,-9.0152,-9.1473,-9.2501,0.0,0.0,0.0,0.0,-4.3819,0.0,0.0,0.0,-5.4466,-5.5097,0.0,-5.842,0.0,0.0,0.0,0.0,-5.9607,-6.5317,0.0,0.0,-7.636,-7.9612,-7.8422,-8.012,-8.0324,-7.9029,-8.0351,-7.8148,-7.2789,-6.8898,-6.5791,0.0,0.0,0.0,0.0,0.0,-8.2477,-8.7555,-9.498,-9.9635,-10.1212,-10.1289,-10.1561,-10.1993,-10.0063,-9.664,-9.1719,-8.8164,-8.3242,-7.6484,-7.1367,0.0,0.0,0.0,0.0,0.0,0.0,0.0,0.0,0.0,0.0,0.0,0.0,0.0,0.0,0.0,0.0,0.0,0.0,0.0,0.0,-7.1168,0.0,0.0,0.0,0.0,0.0,0.0,0.0,0.0,0.0,-8.4868,-8.4387,-8.9025,-9.4095,-9.8134,0.0,0.0,0.0,0.0,-10.1866,-9.9673,-9.9942,-10.0943,-10.1789,-10.5174,-10.8021,-10.8906,0.0,0.0,-10.8021,-10.7186,-10.6538,-10.4003,-10.5642,-10.6019,-10.3476,-10.1347,-10.0099,-9.9365,-9.8117,-9.7456,-9.8043,-9.8814,-9.9402,-4.3659,0.0,0.0,0.0,0.0,-5.0895,-5.523,-6.2236,-6.1971,-6.1791,-6.1516,-6.2311,0.0,0.0,0.0,0.0,0.0,0.0,-6.8402,-7.0617,-7.5318,-7.8811,-8.1355,-8.3146,-8.4499,-8.5416,-8.4168,-8.2443,-8.0241,-7.7965,-7.3128,-6.5936,0.0,0.0,0.0,0.0,-8.5632,-9.0171,-9.6442,-10.0212,-10.1289,-10.1289,-10.1561,-10.2051,-9.9902,-9.8101,-9.6836,-9.3515,-8.9101,-8.3476,-7.8867,0.0,0.0,0.0,0.0,0.0,0.0,0.0,0.0,0.0,0.0,0.0,0.0,0.0,0.0,0.0,0.0,0.0,0.0,0.0,-6.7616,-7.0475,-7.186,0.0,0.0,0.0,0.0,0.0,0.0,0.0,0.0,0.0,-9.4943,-9.5212,-9.5865,0.0,0.0,-9.9481,-9.8404,-10.175,-10.4751,-10.5867,-10.7752,0.0,-11.106,-11.0791,-11.1329,-11.3868,-11.7154,-11.8741,-11.6698,-11.7277,-11.7236,-11.4571,-11.4734,-11.4502,-11.2404,-10.8995,-10.6486,-10.5998,-10.5678,-10.5385,-10.5642,-10.5862,-10.6156,-5.3337,-5.2565,-5.0974,-5.2381,-5.5637,-5.7066,-6.1436,-6.7342,-6.7289,-6.7175,-6.7211,-6.7487,-6.6027,-6.3129,-6.3132,0.0,0.0,0.0,-7.1954,-7.4897,-7.7628,-8.0719,-8.3883,-8.5813,-8.7405,-8.861,-8.7545,-8.6407,-8.5306,-8.3691,-7.9741,-7.3774,0.0,-7.3985,-7.615,-8.3235,-8.8786,-9.271,-9.7596,-10.0481,-10.1289,-10.14,-10.1618,-10.1899,-10.076,-10.0048,-9.9867,-9.7654,-9.4375,-8.9922,-8.5312,-7.9609,0.0,0.0,0.0,0.0,0.0,0.0,0.0,0.0,0.0,0.0,0.0,-6.7577,-6.2052,0.0,0.0,0.0,-6.9031,-7.1087,-7.2531,-7.5181,0.0,0.0,0.0,0.0,0.0,0.0,0.0,-8.8709,-9.3746,-9.8133,-10.1173,-10.1173,-10.1096,-10.1943,-10.2481,-10.2366,-10.1212,0.0,-10.8059,-10.9252,-11.1868,-11.4214,-11.5561,-11.5945,-11.7061,-12.0023,-12.2447,-12.3735,-12.2981,-12.3338,-12.3028,-12.1339,-12.0458,-11.9644,-11.7826,-11.5097,-11.2663,-11.1456,-11.0671,-11.023,-11.023,-10.9973,-10.9973,-6.1877,-6.5823,-5.8962,-5.7327,-5.9843,-6.3975,-6.741,-7.0128,-7.1022,-7.1637,-7.2188,-7.2945,-7.187,-6.9446,-6.9888,0.0,-7.4153,-7.5506,-7.7638,-8.0378,-8.2217,-8.4112,-8.6047,-8.8016,-8.9175,-8.9568,-9.03,-8.9895,-8.8353,-8.6885,-8.5603,-8.4397,-8.2414,-8.1641,-8.2368,-8.7427,-9.1751,-9.5057,-9.8327,-10.0442,-10.1289,-10.1528,-10.1671,-10.17,-10.2123,-10.1963,-10.1231,-10.0535,-9.8672,-9.5351,-9.0586,-8.5195,-7.9258,0.0,0.0,0.0,0.0,0.0,0.0,0.0,0.0,0.0,0.0,0.0,0.0,0.0,0.0,0.0,-7.7277,0.0,-8.1522,-8.3308,0.0,0.0,0.0,-8.4439,-8.4747,-9.0517,-9.4403,-9.4403,0.0,0.0,-10.4482,-10.6595,-10.844,-10.9367,-10.9213,-10.8444,-10.6944,-10.9598,-11.1637,-11.1137,-11.383,-11.6292,-11.7677,-12.0793,-12.3947,-12.6024,-12.7563,-12.764,-12.686,-12.6062,-12.519,-12.4226,-12.3456,-12.2223,-12.0392,-11.9725,-11.8956,-11.5568,-11.3754,-11.2653,-11.2543,-11.1919,-11.1698,-6.3367,-6.8366,-6.5389,-6.4463,-6.5005,-6.7707,-7.0332,-7.2835,-7.4661,-7.4958,-7.4121,-7.3834,-7.3817,-7.4075,-7.6531,-7.8285,-7.9464,-7.9803,-8.0648,-8.1934,-8.3498,-8.4998,-8.6377,-8.8891,-9.0366,-9.0762,-9.1287,-9.0996,-9.0041,-8.9638,-8.868,-8.7378,-8.9038,-8.8425,-8.5431,-8.9659,-9.3287,-9.598,-9.8057,-9.9827,-10.125,-10.1365,-10.15,-10.17,-10.1367,-10.1213,-10.1183,-9.9988,-9.8359,-9.625,-9.3125,-8.8945,-8.3594,-7.6211,0.0,0.0,0.0,0.0,0.0,0.0,0.0,0.0,0.0,-7.3867,-6.5273,0.0,-7.625,0.0,-8.1323,-8.5559,-8.617,-8.7783,0.0,0.0,-9.0748,-9.1672,-9.4826,-9.8327,-10.0481,-10.0481,-10.4714,-10.8216,-10.9521,-11.0752,-11.2291,-11.4291,-11.1906,-10.9752,-10.9444,-11.2753,-11.5484,-11.6176,-11.9292,-12.2254,-12.3216,-12.6294,-12.8525,-12.8602,-12.9294,-12.9563,-12.8756,-12.7887,-12.6959,-12.6068,-12.5256,-12.396,-12.2223,-12.1346,-12.0108,-11.8014,-11.625,-11.4965,-11.4378,-11.357,-11.3424,-6.4225,-6.9355,-6.8145,-6.7507,-6.7401,-6.916,-7.1089,-7.3359,-7.5391,-7.62,-7.6096,-7.5594,-7.6143,-7.7435,-7.9313,-8.1075,-8.2746,-8.278,-8.3355,-8.4437,-8.5249,-8.6264,-8.7488,-8.9612,-9.1016,-9.1774,-9.2487,-9.2684,-9.2244,-9.2244,-9.217,-9.2024,-9.3742,-9.3737,-9.2026,-9.3478,-9.5113,-9.6826,-9.8865,-10.0558,-10.1827,-10.152,-10.0704,-9.9473,-9.9099,-9.8374,-9.7231,-9.6797,-9.5656,-9.3711,-9.2226,-8.9297,-8.4531,-7.914,-7.4492,0.0,0.0,0.0,0.0,0.0,0.0,0.0,0.0,0.0,0.0,0.0,-8.1249,-8.1003,-8.76,-9.2061,-9.2482,-9.4485,-9.6444,-9.8245,-9.8681,-9.9891,-10.252,-10.502,-10.6713,-10.7059,-10.9832,-11.2103,-11.3099,-11.4214,-11.5599,-11.7407,-11.6292,-11.4984,-11.4599,-11.7138,-11.9523,-12.0139,-12.3024,-12.5717,-12.6871,-12.8986,-13.0179,-12.9487,-12.991,-13.0333,-12.9871,-12.941,-12.8886,-12.8362,-12.7923,-12.7045,-12.5202,-12.4129,-12.2821,-12.0718,-11.9137,-11.7547,-11.524,-11.4158,-11.4048,-6.4505,-6.8697,-6.8665,-6.8346,-6.802,-6.9316,-7.1034,-7.2885,-7.4942,-7.659,-7.7943,-7.7588,-7.821,-7.9563,-8.0522,-8.2167,-8.4555,-8.4804,-8.5689,-8.7008,-8.7042,-8.7692,-8.888,-9.0396,-9.1603,-9.2639,-9.4093,-9.4703,-9.4593,-9.4703,-9.5364,-9.6539,-9.6759,-9.7496,-9.8685,-9.7375,-9.7019,-9.7711,-10.0058,-10.1673,-10.2404,-10.1366,-9.9437,-9.6723,-9.6289,-9.4885,-9.2312,-9.2871,-9.2267,-9.0156,-9.0117,-8.8476,-8.4765,-8.1914,-7.8281,0.0,-7.3203,0.0,0.0,0.0,0.0,0.0,0.0,0.0,0.0,-8.5586,-8.7145,-8.8591,-9.4799,-9.8965,-9.9693,-10.2008,-10.3956,-10.5176,-10.6572,-10.7658,-10.8334,-11.0521,-11.2252,-11.2945,-11.4522,-11.5643,-11.5638,-11.71,-11.84,-11.9331,-12.06,-12.0985,-12.0485,-12.1639,-12.2831,-12.3216,-12.537,-12.7486,-12.8948,-13.0025,-13.0448,-12.9794,-13.0217,-13.0718,-13.0871,-13.0718,-13.0641,-13.0756,-13.059,-12.9898,-12.8206,-12.7237,-12.5789,-12.3024,-12.1822,-12.0054,-11.6468,-11.4965,-11.4745,-6.302,-6.5556,-6.767,-6.8572,-6.8447,-6.8853,-7.0769,-7.4131,-7.6223,-7.7671,-7.8579,-7.8519,-7.878,-7.9614,-8.3761,-8.5101,-8.4473,-8.5816,-8.6941,-8.7786,-8.7786,-8.8506,-9.0036,-9.2355,-9.3522,-9.3861,-9.6058,-9.6906,-9.6282,-9.6906,-9.6685,-9.5804,-9.7016,-9.7756,-9.8006,0.0,0.0,0.0,-10.0366,-10.1404,-10.1481,-9.9365,-9.7633,-9.6358,-9.4481,0.0,-9.2026,-9.166,-9.1018,-9.0117,-9.0664,0.0,0.0,0.0,0.0,0.0,0.0,0.0,0.0,0.0,0.0,0.0,-8.9258,-8.7929,-8.7031,-9.1953,-9.5703,-9.6795,-10.1171,-10.4795,-10.6724,-10.8011,-10.9219,-11.0333,-11.0756,-11.1138,-11.176,-11.3445,-11.4638,-11.4791,-11.6336,-11.7337,-11.7446,-11.8831,-12.0131,-12.11,-12.2562,-12.4024,-12.5063,-12.4409,-12.4178,-12.4947,-12.7063,-12.8986,-13.0102,-13.091,-13.1333,-13.1295,-13.1333,-13.1718,-13.2179,-13.1872,-13.1795,-13.2295,-13.1949,-13.091,-12.9167,-12.8633,-12.7399,-12.4197,-12.3438,-12.2181,-11.8564,-11.7571,-11.7792,-6.2775,-6.46,-6.7676,-6.9024,0.0,-6.9024,-7.0694,-7.3695,-7.5532,-7.7453,-7.9238,-7.8603,-7.8868,-7.9924,-8.31,-8.4536,-8.4899,-8.7048,-8.8361,-8.9106,-8.9478,-9.0019,-9.0844,-9.2685,-9.3946,-9.4631,-9.6538,-9.7597,-9.7933,-9.83,-9.8264,-9.7897,-9.8704,-9.9646,-10.0894,-10.2091,-10.2234,-10.1327,-10.2174,-10.2789,-10.3097,-10.1558,-9.9516,-9.711,-9.5792,0.0,0.0,0.0,0.0,0.0,0.0,0.0,0.0,0.0,0.0,-8.6289,-8.7695,-9.0664,-9.4961,-9.3633,-9.4179,-9.8008,-9.9062,-9.8086,-9.4726,-9.957,-10.3164,-10.4062,-10.6914,-10.9294,-11.0838,-11.1809,-11.2577,-11.3294,-11.3384,-11.3693,-11.4501,-11.533,-11.6215,-11.71,-11.7952,-11.8568,-11.8985,-12.0092,-12.1592,-12.3216,-12.4562,-12.5986,-12.7409,-12.6486,-12.5832,-12.7063,-12.864,-13.0152,-13.091,-13.1372,-13.1679,-13.1718,-13.2064,-13.2295,-13.2333,-13.2718,-13.3026,-13.3026,-13.2603,-13.1987,-13.1128,-13.0021,-12.8378,-12.6235,-12.5057,-12.3886,-12.1443,-12.0097,-11.9224,-6.2687,-6.4159,-6.7911,-6.9451,-6.9451,-6.9451,-7.0782,-7.2904,-7.48,0.0,0.0,-7.8759,-7.8952,-8.0168,-8.1751,-8.3475,-8.5495,-8.7862,-8.9623,-9.0594,-9.1068,-9.144,-9.1792,-9.2831,-9.4215,-9.5622,-9.6884,-9.8227,-9.9512,-9.9512,-9.9879,-10.0466,-10.0503,-10.1796,-10.4176,-10.58,-10.6011,-10.4828,-10.4328,-10.4405,-10.5059,-10.402,-10.1749,-9.8276,-9.7623,-9.5438,-9.1643,-9.2112,-9.1637,-8.9926,-9.1423,-9.2146,-9.1679,-9.3789,-9.4219,-9.2656,-9.5781,-10.0312,-10.5742,-10.3398,-10.2695,-10.5156,-10.7383,-10.7187,-10.3672,-10.6523,-10.8906,-10.9922,-11.1328,-11.2539,-11.3554,-11.4297,-11.4894,-11.5346,-11.5307,-11.56,-11.6593,-11.6813,-11.7386,-11.8799,-11.9299,-11.9761,-12.0446,-12.1746,-12.3207,-12.5216,-12.6447,-12.7563,-12.8679,-12.814,-12.7871,-12.9063,-13.0064,-13.0948,-13.1487,-13.1679,-13.1756,-13.1987,-13.2526,-13.2795,-13.2718,-13.3564,-13.4103,-13.368,-13.3372,-13.318,-13.3077,-13.1333,-12.9448,-12.8552,-12.7059,-12.5583,-12.4334,-12.2449,-12.0839,-6.2175,-6.2438,-6.7347,-6.9451,-6.9451,-6.9451,-7.0605,-7.305,-7.6415,-7.9035,-8.0644,-8.0078,-7.9507,-7.9272,-8.2822,-8.4694,-8.531,-8.766,-8.9947,-9.2049,-9.1541,-9.1981,-9.3282,-9.3973,-9.5262,-9.7145,-9.8554,-9.9861,-10.1046,-10.1127,-10.12,-10.131,-10.131,-10.2575,-10.4945,-10.6632,-10.7677,-10.8136,-10.6059,-10.4982,-10.5059,-10.2866,-10.1097,-9.9787,-9.771,-9.5962,-9.4702,-9.4768,-9.4868,-9.4948,-9.5924,-9.6836,-9.7734,-9.8789,-9.9883,-10.1015,-10.2344,-10.4883,-10.875,-10.7734,-10.7734,-10.9531,-11.0742,-11.1054,-11.0547,-11.0312,-11.0898,-11.2422,-11.2851,-11.3672,-11.5195,-11.5468,-11.6044,-11.7193,-11.6806,-11.6787,-11.785,-11.7981,-11.8334,-11.9184,-12.0415,-12.1262,-12.1793,-12.4014,-12.586,-12.6678,-12.8063,-12.9025,-12.9448,-12.9679,-13.0025,-13.0371,-13.0987,-13.1525,-13.1756,-13.1718,-13.2102,-13.2718,-13.2987,-13.3526,-13.4411,-13.4988,-13.5218,-13.5103,-13.4526,-13.4103,-13.4039,-13.2641,-13.1218,-13.0641,-12.9334,-12.7956,-12.6308,-12.4904,-12.3697,-6.2354,-6.2732,-6.7762,-6.9878,-6.9878,-6.9878,-7.1064,-7.3103,-7.5958,-7.8122,-7.9466,-8.0169,-8.0197,-8.0102,-8.2815,-8.4625,-8.5757,-8.8137,-9.0372,-9.2271,-9.2489,-9.2895,-9.3621,-9.3827,-9.5215,-9.7399,-9.7597,-9.901,-10.1258,-10.1494,-10.1494,-10.1574,-10.2341,-10.3825,-10.5799,-10.7016,-10.823,-10.9521,-10.7982,-10.7175,-10.7136,-10.602,-10.5059,-10.4251,-10.2597,-10.1212,-10.0007,-9.9653,-9.9371,-9.9112,-10.019,-10.1289,-10.2269,-10.3668,-10.4844,-10.5664,-10.6914,-10.8828,-11.1445,-11.1562,-11.1875,-11.2656,-11.3515,-11.4218,-11.4648,-11.3047,-11.2539,-11.375,-11.3906,-11.4609,-11.625,-11.6445,-11.6985,-11.8463,-11.8207,-11.8478,-11.9401,-11.9631,-12.0033,-12.1006,-12.1839,-12.284,-12.4216,-12.5706,-12.736,-12.8525,-13.0179,-13.1333,-13.1795,-13.2256,-13.1987,-13.0948,-13.1525,-13.2295,-13.241,-13.2833,-13.3256,-13.3641,-13.4064,-13.4411,-13.4988,-13.5449,-13.5911,-13.5603,-13.518,-13.4795,-13.4462,-13.2872,-13.1602,-13.0371,-12.9833,-12.8566,-12.7036,-12.5899,-12.4595,-6.2147,-6.3035,-6.7526,-6.9879,-7.043,-7.0305,-7.1013,-7.2472,-7.498,-7.6806,-7.8122,-8.0281,-8.1093,-8.0971,-8.258,-8.4078,-8.5927,-8.8214,-9.0288,-9.2069,-9.3149,-9.3571,-9.3571,-9.3571,-9.504,-9.7375,-9.7116,-9.8605,-10.1653,-10.2008,-10.2045,-10.2162,-10.3422,-10.5044,-10.6667,-10.7492,-10.8806,-11.0594,-11.0098,-10.9752,-10.9752,-10.9752,-10.9367,-10.8559,-10.7675,-10.6559,-10.5137,-10.4553,-10.4055,-10.3521,-10.4522,-10.548,-10.6266,-10.7722,-10.8672,-10.8984,-11.0117,-11.1679,-11.3359,-11.4297,-11.4765,-11.4765,-11.539,-11.6054,-11.6445,-11.5117,-11.4297,-11.4961,-11.5312,-11.5937,-11.7109,-11.7734,-11.8355,-11.9436,-11.9584,-12.0069,-12.1067,-12.1224,-12.1726,-12.2994,-12.3548,-12.461,-12.6217,-12.7206,-12.8514,-13.0718,-13.2372,-13.3487,-13.3949,-13.4141,-13.3295,-13.1833,-13.2076,-13.2884,-13.3026,-13.3487,-13.3949,-13.4218,-13.4911,-13.5218,-13.5257,-13.6065,-13.6449,-13.5949,-13.5411,-13.5065,-13.4449,-13.2949,-13.1525,-13.0525,-12.9871,-12.8756,-12.736,-12.6729,-12.5412,-6.1166,-6.338,-6.6294,-6.8859,-7.0958,-7.0506,-7.0412,-7.1115,-7.4518,-7.6069,-7.6811,-8.0756,-8.1901,-8.1063,-8.229,-8.3563,-8.4871,-8.7231,-8.9415,-9.1173,-9.2875,-9.3571,-9.3571,-9.3605,-9.5315,-9.8152,-9.849,-10.0241,-10.3311,-10.3623,-10.366,-10.377,-10.455,-10.5915,-10.7521,-10.8415,-11.0017,-11.2401,-11.2406,-11.2368,-11.2368,-11.2368,-11.1945,-11.1175,-11.0291,-10.9406,-10.8444,-10.837,-10.8415,-10.8601,-10.8878,-10.9325,-10.9689,-11.01,-11.0703,-11.1445,-11.1718,-11.2539,-11.4218,-11.5117,-11.5625,-11.5625,-11.5781,-11.5898,-11.5976,-11.6367,-11.664,-11.6875,-11.7461,-11.7929,-11.8242,-11.9492,-12.0351,-12.0625,-12.0781,-12.127,-12.2424,-12.2532,-12.2905,-12.4279,-12.5428,-12.6457,-12.7025,-12.8717,-13.0718,-13.2372,-13.3372,-13.3987,-13.3795,-13.418,-13.4064,-13.2449,-13.2538,-13.3038,-13.3103,-13.3051,-13.3743,-13.4334,-13.5026,-13.5642,-13.6219,-13.6449,-13.668,-13.6142,-13.5334,-13.4718,-13.4487,-13.3526,-13.2025,-13.1525,-13.041,-12.8909,-12.814,-12.8233,-12.7543,-6.148,-6.3852,-6.6423,-6.9182,-7.1324,-7.1334,-7.0857,-7.0594,-7.3391,-7.511,-7.6456,-7.943,-8.1285,-8.1991,-8.2529,-8.3725,-8.5242,-8.7244,-8.9119,-9.1021,-9.2789,-9.3571,-9.3605,-9.4045,-9.5412,-9.7604,-9.9666,-10.1353,-10.2693,-10.3985,-10.4871,-10.5422,-10.6156,-10.7694,-10.9707,-11.0213,-11.1615,-11.4132,-11.4253,-11.4445,-11.4753,-11.3984,-11.3291,-11.2945,-11.2137,-11.1522,-11.1098,-11.0214,-10.9761,-10.9803,-10.9632,-10.9874,-11.0706,-11.1427,-11.2326,-11.3359,-11.4375,-11.5468,-11.6679,-11.7031,-11.7461,-11.7968,-11.7539,-11.7265,-11.7265,-11.8047,-11.8554,-11.8593,-11.8867,-11.9062,-11.9179,-12.0195,-12.1093,-12.1601,-12.2109,-12.2805,-12.3643,-12.4112,-12.4809,-12.5929,-12.6552,-12.7535,-12.8794,-13.0256,-13.1872,-13.3372,-13.4141,-13.4372,-13.5026,-13.5565,-13.5449,-13.4872,-13.4603,-13.4218,-13.391,-13.4218,-13.4757,-13.5526,-13.6026,-13.6488,-13.6603,-13.6296,-13.6026,-13.6065,-13.5103,-13.4295,-13.3872,-13.3372,-13.241,-13.1872,-13.0718,-12.9179,-12.9371,-12.9717,-12.9138,-6.1442,-6.4571,-6.793,-7.046,-7.2138,-7.2138,-7.1585,-7.1048,-7.2779,-7.4579,-7.6512,-7.8527,-8.0747,-8.2587,-8.2769,-8.358,-8.4957,-8.7096,-8.8855,-9.0386,-9.2714,-9.3876,-9.3977,-9.4654,-9.5818,-9.7502,-9.9991,-10.2043,-10.3457,-10.496,-10.6229,-10.7037,-10.7624,-10.9141,-11.111,-11.1383,-11.2737,-11.5048,-11.5291,-11.5676,-11.6176,-11.533,-11.4561,-11.433,-11.3753,-11.3291,-11.306,-11.1906,-11.1137,-11.0868,-11.0723,-11.1022,-11.176,-11.2812,-11.3931,-11.5156,-11.6797,-11.7968,-11.8633,-11.8867,-11.9297,-11.9804,-11.9336,-11.8984,-11.914,-11.9804,-12.0156,-11.9961,-12.0351,-12.0664,-12.039,-12.1328,-12.2226,-12.289,-12.3672,-12.4414,-12.5067,-12.5812,-12.6582,-12.7449,-12.807,-12.8766,-13.041,-13.1333,-13.2295,-13.3872,-13.4295,-13.4757,-13.6065,-13.6334,-13.6257,-13.6142,-13.5449,-13.5026,-13.4718,-13.4949,-13.5795,-13.6219,-13.6449,-13.6719,-13.6796,-13.618,-13.5872,-13.6257,-13.5218,-13.4603,-13.4334,-13.3718,-13.2679,-13.1372,-13.0564,-13.0371,-13.0641,-13.0833,-13.0602,-6.0464,-6.574,-7.1054,-7.2977,-7.2715,-7.2715,-7.2364,-7.1897,-7.299,-7.4847,-7.6898,-7.8536,-8.062,-8.2798,-8.2828,-8.292,-8.3461,-8.6634,-8.8315,-8.9048,-9.2724,-9.4654,-9.4721,-9.5398,-9.6842,-9.8602,-9.9675,-10.2621,-10.7269,-10.7551,-10.7881,-10.8688,-10.8799,-10.9655,-11.1307,-11.1572,-11.2679,-11.5033,-11.5368,-11.5676,-11.6369,-11.6369,-11.5907,-11.5368,-11.5176,-11.4753,-11.4099,-11.3868,-11.3445,-11.2637,-11.3466,-11.3863,-11.3645,-11.4605,-11.5688,-11.6953,-11.8476,-11.9453,-11.9648,-12.0234,-12.0742,-12.082,-12.0664,-12.0703,-12.0586,-12.1328,-12.1523,-12.0898,-12.2187,-12.2734,-12.2343,-12.3281,-12.4336,-12.4609,-12.5351,-12.6133,-12.6953,-12.7495,-12.8168,-12.8896,-12.9896,-13.0827,-13.1614,-13.1641,-13.2641,-13.3872,-13.4372,-13.4757,-13.5565,-13.5757,-13.5603,-13.5141,-13.4872,-13.468,-13.5295,-13.5449,-13.5488,-13.6026,-13.6642,-13.6873,-13.6796,-13.6757,-13.668,-13.6488,-13.5719,-13.5218,-13.5026,-13.4295,-13.3064,-13.2333,-13.2603,-13.2564,-13.2102,-13.1795,-13.1679,-6.0996,-6.6304,-7.1858,-7.3996,-7.382,-7.382,-7.3293,-7.2414,-7.2893,-7.4691,-7.7221,-7.7788,-7.9846,-8.3367,-8.3397,-8.3397,-8.3701,-8.6411,-8.8423,-8.9699,-9.238,-9.4556,-9.6142,-9.6853,-9.7536,-9.8582,-10.1244,-10.4692,-10.8148,-10.8872,-10.9533,-11.0193,-11.034,-11.1144,-11.2552,-11.2963,-11.3768,-11.5114,-11.5754,-11.6215,-11.6446,-11.6484,-11.6676,-11.71,-11.6446,-11.5907,-11.5599,-11.5099,-11.4907,-11.5099,-11.4581,-11.4662,-11.5706,-11.6533,-11.7757,-11.9258,-11.957,-12.0078,-12.1054,-12.1015,-12.1172,-12.164,-12.1211,-12.0976,-12.1054,-12.164,-12.2031,-12.2031,-12.2734,-12.3437,-12.3945,-12.4453,-12.5039,-12.5586,-12.6328,-12.6953,-12.7461,-12.843,-12.9448,-13.0147,-13.1486,-13.2541,-13.2588,-13.3026,-13.3795,-13.4795,-13.5065,-13.5449,-13.618,-13.6757,-13.6911,-13.6911,-13.7194,-13.7425,-13.7065,-13.6103,-13.5628,-13.6372,-13.695,-13.7103,-13.7142,-13.7026,-13.6988,-13.6642,-13.6026,-13.5642,-13.5372,-13.5026,-13.3795,-13.3603,-13.391,-13.3834,-13.3526,-13.3141,-13.3256,-6.3059,-6.6825,-7.2322,-7.4573,-7.4448,-7.4598,-7.4046,-7.3042,-7.2816,-7.4808,-7.7511,-7.7561,-7.9829,-8.3592,-8.4265,-8.4354,-8.4509,-8.6538,-8.8438,-9.0468,-9.2677,-9.4829,-9.6776,-9.8138,-9.8578,-9.9003,-10.2456,-10.6199,-10.9321,-11.0083,-11.0817,-11.1515,-11.1808,-11.2565,-11.3589,-11.407,-11.4629,-11.5287,-11.6042,-11.6484,-11.6522,-11.6792,-11.7677,-11.8876,-11.8023,-11.733,-11.733,-11.6792,-11.6599,-11.6753,-11.6061,-11.6319,-11.7695,-11.8365,-11.9293,-12.0489,-12.0586,-12.0937,-12.1953,-12.1914,-12.1992,-12.2539,-12.2148,-12.1758,-12.1797,-12.2304,-12.2578,-12.2812,-12.3398,-12.4258,-12.5,-12.5429,-12.582,-12.6445,-12.7187,-12.7695,-12.7773,-12.8984,-13.0156,-13.1053,-13.2099,-13.2912,-13.3204,-13.3564,-13.4295,-13.5334,-13.5488,-13.5911,-13.6988,-13.7642,-13.8219,-13.845,-13.8719,-13.8618,-13.8065,-13.7065,-13.668,-13.7219,-13.7488,-13.7565,-13.7642,-13.7488,-13.7296,-13.6834,-13.6411,-13.6026,-13.5719,-13.5488,-13.518,-13.4834,-13.4795,-13.4795,-13.4564,-13.4411,-13.4064,-6.6426,-6.7144,-7.2712,-7.4975,-7.4674,-7.505,-7.4623,-7.3669,-7.3117,-7.512,-7.8158,-7.808,-8.0405,-8.4022,-8.5096,-8.5581,-8.5714,-8.6759,-8.8607,-9.0714,-9.3556,-9.5631,-9.7326,-9.9119,-10.0012,-9.9874,-10.2917,-10.6873,-11.0928,-11.1148,-11.1625,-11.2432,-11.3093,-11.3475,-11.3734,-11.4638,-11.5134,-11.5497,-11.6261,-11.6638,-11.6599,-11.733,-11.8908,-12.0877,-11.9838,-11.9061,-11.9138,-11.8985,-11.8484,-11.8023,-11.8484,-11.9133,-11.936,-11.9941,-12.0381,-12.0737,-12.1509,-12.2109,-12.2343,-12.2929,-12.3242,-12.3359,-12.3398,-12.3281,-12.332,-12.3437,-12.3554,-12.3789,-12.4336,-12.5117,-12.5937,-12.6601,-12.7109,-12.7343,-12.8008,-12.8437,-12.8672,-12.9336,-13.0429,-13.1601,-13.2312,-13.2604,-13.3148,-13.3473,-13.4024,-13.5063,-13.5501,-13.5949,-13.7257,-13.7911,-13.8488,-13.895,-13.945,-13.9527,-13.8796,-13.8065,-13.8027,-13.8065,-13.8142,-13.8219,-13.8411,-13.8373,-13.8488,-13.8142,-13.7796,-13.7411,-13.7065,-13.6757,-13.6257,-13.5949,-13.5911,-13.5642,-13.5218,-13.4795,-13.3987,-6.7305,-6.782,-7.3419,-7.5703,-7.5552,-7.5728,-7.5377,-7.4749,-7.4523,-7.5928,-7.7945,-7.8759,-8.073,-8.3419,-8.5,-8.5701,-8.5701,-8.6631,-8.886,-9.2159,-9.3454,-9.5901,-9.881,-9.9863,-10.1714,-10.4018,-10.4961,-10.7599,-11.1266,-11.1992,-11.2689,-11.3791,-11.3717,-11.3933,-11.441,-11.5395,-11.596,-11.6132,-11.7528,-11.7753,-11.6785,-11.7946,-11.9638,-12.1224,-12.0531,-12.0446,-12.1562,-12.0023,-11.9292,-11.9485,-11.9254,-11.948,-12.0251,-12.073,-12.1341,-12.2071,-12.213,-12.25,-12.3047,-12.3281,-12.3515,-12.3515,-12.3515,-12.3828,-12.4297,-12.4414,-12.4648,-12.5078,-12.5508,-12.5976,-12.6718,-12.7109,-12.7539,-12.8125,-12.8437,-12.8593,-12.8672,-12.9375,-13.0468,-13.1758,-13.253,-13.3135,-13.3738,-13.3922,-13.4367,-13.4941,-13.5365,-13.5949,-13.6449,-13.795,-13.8604,-13.8604,-13.9488,-14.0065,-13.9027,-13.845,-13.8527,-13.8411,-13.845,-13.895,-13.9142,-13.9258,-13.9373,-13.945,-13.9104,-13.8681,-13.8334,-13.7796,-13.7142,-13.695,-13.6873,-13.6334,-13.568,-13.5065,-13.4526,-6.791,-6.8521,-7.3809,-7.6055,-7.6055,-7.6055,-7.5753,-7.5276,-7.5226,-7.6177,-7.7877,-7.9701,-8.1624,-8.3779,-8.567,-8.6599,-8.6838,-8.7257,-8.9944,-9.3609,-9.3882,-9.6212,-9.9821,-10.054,-10.2747,-10.6089,-10.6314,-10.8281,-11.2233,-11.2726,-11.3497,-11.4488,-11.4561,-11.4525,-11.4979,-11.6105,-11.6779,-11.7009,-11.825,-11.8677,-11.8169,-11.8946,-12.0415,-12.1839,-12.1608,-12.1831,-12.2716,-12.1331,-12.0754,-12.1023,-12.0485,-12.0396,-12.1077,-12.1386,-12.1947,-12.2544,-12.2707,-12.2812,-12.3398,-12.3476,-12.3672,-12.3906,-12.3984,-12.4375,-12.5039,-12.5234,-12.5547,-12.5898,-12.6289,-12.6718,-12.7187,-12.7656,-12.8047,-12.8515,-12.8593,-12.8593,-12.8711,-12.9375,-13.0351,-13.1484,-13.229,-13.3102,-13.3986,-13.4493,-13.4929,-13.5199,-13.5653,-13.6219,-13.6603,-13.7834,-13.8219,-13.8681,-13.9488,-13.9527,-13.8873,-13.8796,-13.9042,-13.8796,-13.8604,-13.9373,-13.995,-13.995,-14.0027,-14.0296,-14.0181,-13.945,-13.9027,-13.8104,-13.745,-13.7565,-13.7565,-13.7065,-13.6449,-13.6142,-13.5603,-6.8426,-6.8996,-7.4028,-7.623,-7.623,-7.623,-7.5954,-7.5427,-7.5402,-7.6215,-7.806,-8.0311,-8.257,-8.4789,-8.669,-8.7915,-8.8544,-8.8484,-9.0799,-9.4134,-9.5115,-9.6932,-10.0225,-10.1183,-10.3488,-10.6517,-10.6987,-10.91,-11.271,-11.3387,-11.4084,-11.5075,-11.5699,-11.5699,-11.5673,-11.6779,-11.7873,-11.8031,-11.8977,-11.9831,-11.9946,-12.0331,-12.1293,-12.3071,-12.287,-12.287,-12.3178,-12.3024,-12.2908,-12.2793,-12.2024,-12.1801,-12.1854,-12.2082,-12.2497,-12.2913,-12.2989,-12.3427,-12.3633,-12.3906,-12.414,-12.4765,-12.4883,-12.5234,-12.5937,-12.6093,-12.6211,-12.6445,-12.6992,-12.7383,-12.7578,-12.8047,-12.8515,-12.8593,-12.8593,-12.8633,-12.875,-12.9453,-13.0351,-13.1211,-13.1843,-13.2624,-13.4129,-13.4567,-13.5019,-13.551,-13.6099,-13.6742,-13.7257,-13.7796,-13.845,-13.9065,-13.9604,-13.9681,-13.9258,-13.9412,-13.9527,-13.9065,-13.895,-13.9604,-14.0489,-14.0604,-14.0719,-14.0989,-14.0835,-14.0181,-13.9642,-13.8873,-13.8142,-13.7873,-13.7796,-13.7565,-13.7334,-13.7026,-13.6449,-6.8919,-6.9539,-7.4955,-7.726,-7.726,-7.726,-7.6933,-7.6482,-7.6431,-7.6475,-7.7447,-8.0604,-8.2587,-8.3391,-8.6931,-8.8544,-8.8723,-8.8753,-9.0525,-9.39,-9.568,-9.824,-10.1309,-10.2096,-10.4124,-10.7217,-10.8226,-11.0506,-11.3902,-11.4415,-11.5222,-11.6544,-11.6727,-11.6801,-11.6909,-11.8988,-11.9878,-11.9884,-12.1709,-12.21,-12.1408,-12.187,-12.2485,-12.3109,-12.3062,-12.3562,-12.4562,-12.4755,-12.4101,-12.3024,-12.3293,-12.3447,-12.3379,-12.3627,-12.3907,-12.4267,-12.4611,-12.498,-12.5234,-12.5273,-12.5468,-12.5625,-12.5703,-12.6054,-12.6875,-12.6953,-12.7265,-12.7734,-12.8164,-12.8242,-12.8281,-12.8476,-12.8593,-12.8593,-12.8672,-12.8867,-12.9375,-12.9765,-13.0468,-13.1836,-13.2226,-13.2929,-13.3789,-13.4427,-13.47,-13.4972,-13.5664,-13.6447,-13.6974,-13.795,-13.8758,-13.9104,-13.9527,-13.9796,-13.995,-14.0104,-13.9989,-13.9412,-13.9373,-13.9719,-14.0566,-14.1143,-14.1373,-14.172,-14.0989,-14.0296,-14.0335,-14.0065,-13.9335,-13.8411,-13.8758,-13.8873,-13.8219,-13.7757,-13.7103,-6.9412,-6.9821,-7.5418,-7.7687,-7.7687,-7.7687,-7.7511,-7.7285,-7.721,-7.6908,-7.7515,-8.1177,-8.3057,-8.3321,-8.7241,-8.9262,-8.9471,-8.9501,-9.1284,-9.4245,-9.7306,-10.0416,-10.2823,-10.3415,-10.4887,-10.7414,-10.91,-11.1372,-11.4001,-11.5275,-11.6544,-11.7461,-11.7718,-11.7718,-11.7831,-11.9995,-12.1306,-12.1465,-12.3107,-12.3716,-12.3293,-12.3293,-12.3408,-12.3725,-12.3755,-12.4524,-12.5293,-12.537,-12.4755,-12.3793,-12.3832,-12.4101,-12.4062,-12.4266,-12.4589,-12.5059,-12.528,-12.5532,-12.5937,-12.6015,-12.6172,-12.6445,-12.6523,-12.6992,-12.7617,-12.7851,-12.8164,-12.8437,-12.8593,-12.8593,-12.8593,-12.8593,-12.8789,-12.9101,-12.914,-12.9375,-12.9883,-12.9883,-13.0703,-13.1914,-13.2578,-13.3008,-13.4101,-13.4726,-13.5078,-13.5468,-13.6216,-13.6477,-13.6717,-13.7976,-13.8873,-13.9065,-13.9527,-13.9912,-14.0296,-14.0489,-14.1181,-14.0604,-14.0527,-14.0719,-14.0912,-14.1643,-14.1874,-14.1912,-14.1143,-14.0719,-14.0912,-14.0796,-13.9873,-13.945,-13.995,-14.0104,-13.9565,-13.9296,-13.845,-6.9468,-7.0294,-7.5248,-7.766,-7.7938,-7.7938,-7.7988,-7.7812,-7.7888,-7.7561,-7.7954,-8.1686,-8.3362,-8.3681,-8.7406,-8.9888,-9.0818,-9.0848,-9.2855,-9.5994,-9.9494,-10.2619,-10.5211,-10.5005,-10.5979,-10.7828,-10.9702,-11.2016,-11.4318,-11.6344,-11.7625,-11.8342,-11.8526,-11.8526,-11.8952,-12.0594,-12.1876,-12.2486,-12.389,-12.4707,-12.4793,-12.4486,-12.4293,-12.437,-12.5063,-12.5409,-12.5601,-12.5563,-12.5216,-12.4447,-12.437,-12.4524,-12.4486,-12.4447,-12.4827,-12.5381,-12.5683,-12.5875,-12.625,-12.6523,-12.6679,-12.7265,-12.7422,-12.7734,-12.832,-12.8476,-12.8515,-12.8593,-12.8593,-12.8593,-12.8633,-12.8672,-12.9101,-12.9648,-12.9883,-13.0039,-13.0156,-13.0195,-13.0859,-13.2422,-13.2812,-13.3554,-13.4687,-13.5664,-13.6211,-13.6242,-13.6886,-13.7071,-13.7369,-13.8223,-13.8708,-13.8719,-13.9335,-14.0104,-14.0489,-14.0835,-14.172,-14.2104,-14.2181,-14.222,-14.1835,-14.222,-14.2297,-14.2143,-14.1835,-14.1681,-14.172,-14.1258,-14.0681,-14.0989,-14.1835,-14.1681,-14.1296,-14.1258,-14.0758,-6.8187,-7.0617,-7.403,-7.6822,-7.8887,-7.9469,-7.9168,-7.8415,-7.8842,-7.844,-7.8365,-8.0228,-8.2657,-8.4899,-8.743,-8.9721,-9.1876,-9.2333,-9.478,-9.9506,-10.0826,-10.4422,-10.6993,-10.7035,-10.7591,-10.9435,-11.1871,-11.3903,-11.5665,-11.7208,-11.8563,-11.9223,-11.937,-11.9333,-11.9708,-12.163,-12.2929,-12.3054,-12.479,-12.5668,-12.5447,-12.5293,-12.5101,-12.5216,-12.5909,-12.6332,-12.6409,-12.6409,-12.6332,-12.6178,-12.6063,-12.5909,-12.5947,-12.5986,-12.6256,-12.6713,-12.6961,-12.7301,-12.7851,-12.789,-12.8047,-12.8164,-12.8203,-12.8398,-12.8515,-12.8593,-12.8593,-12.8593,-12.8593,-12.8633,-12.875,-12.9258,-12.9726,-13.0078,-13.0625,-13.1211,-13.1758,-13.1914,-13.2617,-13.3828,-13.4414,-13.4843,-13.5859,-13.664,-13.707,-13.7226,-13.7477,-13.7742,-13.8197,-13.8682,-13.8902,-13.9055,-14.0027,-14.0873,-14.1066,-14.145,-14.2143,-14.2874,-14.3143,-14.3374,-14.3028,-14.2758,-14.2835,-14.2874,-14.2797,-14.272,-14.272,-14.3143,-14.2874,-14.3335,-14.3605,-14.3374,-14.3181,-14.3181,-14.2566,-6.9244,-7.0115,-7.5548,-7.8816,-7.9989,-8.0449,-8.0097,-7.9469,-7.962,-7.9143,-7.8772,-8.0374,-8.2761,-8.537,-8.7461,-8.9876,-9.2333,-9.3472,-9.6397,-10.0431,-10.2288,-10.5045,-10.8708,-10.8963,-10.9201,-11.0257,-11.2896,-11.4776,-11.6033,-11.8111,-11.9811,-12.0141,-12.0178,-12.0214,-12.0331,-12.2167,-12.2975,-12.3411,-12.4935,-12.59,-12.5976,-12.5986,-12.6024,-12.6024,-12.6447,-12.6717,-12.6678,-12.6678,-12.6678,-12.6717,-12.6717,-12.6717,-12.6717,-12.6727,-12.7031,-12.748,-12.7598,-12.7941,-12.8398,-12.8593,-12.8554,-12.8593,-12.8593,-12.8593,-12.8593,-12.8593,-12.8593,-12.8593,-12.8633,-12.8711,-12.9179,-12.9531,-13.0117,-13.1054,-13.1523,-13.2304,-13.3281,-13.3359,-13.3554,-13.4726,-13.5273,-13.5976,-13.6757,-13.7422,-13.7851,-13.7968,-13.789,-13.8219,-13.8694,-13.915,-13.966,-14.0095,-14.1043,-14.172,-14.1835,-14.2143,-14.2528,-14.3143,-14.3566,-14.3835,-14.3874,-14.3605,-14.3374,-14.3451,-14.3566,-14.3759,-14.3874,-14.4374,-14.4682,-14.4759,-14.4797,-14.4951,-14.4913,-14.4528,-14.3682,-7.0372,-7.0223,-7.6982,-8.0131,-8.1026,-8.1102,-8.075,-8.0223,-8.0323,-7.9695,-7.915,-8.0886,-8.2578,-8.5543,-8.722,-8.9992,-9.2698,-9.4453,-9.7411,-10.1697,-10.2714,-10.5947,-10.9306,-11.0283,-11.015,-10.995,-11.3405,-11.5094,-11.6227,-11.8718,-12.0485,-12.0838,-12.0875,-12.0765,-12.105,-12.1777,-12.2769,-12.3683,-12.4778,-12.5782,-12.6464,-12.6601,-12.6601,-12.6601,-12.664,-12.6717,-12.6717,-12.6717,-12.6717,-12.6717,-12.6717,-12.6717,-12.6717,-12.6775,-12.6904,-12.7469,-12.7548,-12.7868,-12.8329,-12.8554,-12.8593,-12.8593,-12.8593,-12.8593,-12.8593,-12.8633,-12.875,-12.8945,-12.9101,-12.9492,-13.0,-13.0468,-13.1133,-13.2031,-13.2539,-13.3437,-13.4414,-13.4375,-13.4531,-13.539,-13.5937,-13.6445,-13.7265,-13.8007,-13.8359,-13.8632,-13.8554,-13.8629,-13.9101,-13.9589,-14.008,-14.0591,-14.1393,-14.2197,-14.2374,-14.2528,-14.2951,-14.3835,-14.422,-14.4566,-14.4874,-14.4951,-14.4759,-14.4297,-14.4336,-14.4528,-14.4759,-14.5028,-14.5336,-14.5682,-14.5836,-14.5874,-14.5836,-14.5759,-14.4797,-6.8529,-7.442,-7.3847,-7.6305,-8.0679,-8.1478,-8.1127,-8.0398,-8.07,-8.0273,-7.9243,-7.9328,-8.2181,-8.5642,-8.647,-8.9372,-9.3332,-9.5241,-9.8149,-10.2241,-10.3575,-10.6517,-11.0329,-11.1061,-11.0993,-11.1925,-11.4168,-11.5802,-11.6534,-11.9149,-12.0779,-12.0912,-12.0912,-12.0912,-12.1087,-12.1815,-12.2763,-12.3797,-12.4726,-12.5726,-12.6453,-12.6717,-12.6717,-12.6717,-12.6717,-12.6717,-12.6717,-12.6717,-12.6717,-12.6717,-12.6717,-12.6717,-12.6717,-12.6717,-12.6899,-12.7178,-12.7586,-12.7968,-12.8193,-12.8515,-12.8593,-12.8593,-12.8593,-12.8593,-12.8593,-12.8711,-12.9062,-12.9687,-13.0234,-13.0742,-13.0976,-13.1445,-13.2031,-13.2617,-13.3164,-13.3945,-13.4726,-13.4961,-13.5429,-13.6679,-13.6797,-13.6836,-13.7734,-13.8398,-13.8593,-13.8789,-13.8711,-13.8945,-13.9385,-13.9908,-14.0443,-14.0969,-14.1468,-14.2227,-14.2797,-14.2989,-14.3374,-14.4682,-14.5297,-14.5643,-14.599,-14.6374,-14.6259,-14.5297,-14.5028,-14.522,-14.5451,-14.572,-14.5874,-14.6067,-14.6336,-14.6644,-14.6451,-14.6182,-14.5797,-7.0748,-7.472,-7.659,-7.9152,-8.1692,-8.2131,-8.1654,-8.075,-8.0901,-8.0424,-7.957,-7.9273,-8.1319,-8.4906,-8.6404,-8.9722,-9.3985,-9.5785,-9.8994,-10.2814,-10.4471,-10.6855,-11.105,-11.1399,-11.1399,-11.2198,-11.4448,-11.6085,-11.6437,-11.9325,-12.0779,-12.0912,-12.0912,-12.0912,-12.1124,-12.1815,-12.2763,-12.3797,-12.4726,-12.5669,-12.6591,-12.6717,-12.6717,-12.6717,-12.6717,-12.6717,-12.6717,-12.6717,-12.6717,-12.6717,-12.6717,-12.6717,-12.6717,-12.6727,-12.6806,-12.7147,-12.7772,-12.8162,-12.8302,-12.8711,-12.9101,-12.8672,-12.8633,-12.8593,-12.875,-12.9062,-12.9687,-13.039,-13.082,-13.1406,-13.1836,-13.2304,-13.2656,-13.3125,-13.3632,-13.4414,-13.5156,-13.5195,-13.6328,-13.7695,-13.7461,-13.7578,-13.8359,-13.8789,-13.8867,-13.8906,-13.8906,-13.9297,-13.9726,-14.0167,-14.0739,-14.1128,-14.1652,-14.2433,-14.3121,-14.3489,-14.3989,-14.5259,-14.6028,-14.6413,-14.6682,-14.6875,-14.6413,-14.5567,-14.5605,-14.5605,-14.6144,-14.6374,-14.6413,-14.6413,-14.6605,-14.6759,-14.6759,-14.6567,-14.6182,-7.3736,-7.5702,-7.988,-8.2128,-8.2508,-8.2633,-8.1955,-8.1051,-8.0976,-8.0424,-7.9469,-7.9525,-8.1197,-8.447,-8.7859,-9.1478,-9.5695,-9.6354,-9.9578,-10.3259,-10.4729,-10.7214,-11.0413,-11.1399,-11.1399,-11.1854,-11.4573,-11.6085,-11.6704,-11.9325,-12.0682,-12.0912,-12.0912,-12.0912,-12.1124,-12.1531,-12.2638,-12.3724,-12.4491,-12.5457,-12.6402,-12.6717,-12.6717,-12.6717,-12.6717,-12.6794,-12.7025,-12.6794,-12.6871,-12.6871,-12.6832,-12.6717,-12.6717,-12.6832,-12.6953,-12.7187,-12.8209,-12.8569,-12.8948,-12.9492,-12.9922,-12.9492,-12.9218,-12.9179,-12.9414,-13.0117,-13.0742,-13.1328,-13.1797,-13.207,-13.2695,-13.2929,-13.3242,-13.3632,-13.414,-13.4726,-13.5547,-13.6054,-13.664,-13.7461,-13.7695,-13.8164,-13.8711,-13.8984,-13.8984,-13.9453,-13.9492,-13.9882,-14.0311,-14.0504,-14.0945,-14.1315,-14.1823,-14.269,-14.3367,-14.3951,-14.472,-14.5874,-14.6374,-14.6682,-14.6913,-14.7067,-14.6336,-14.5567,-14.5451,-14.5528,-14.6259,-14.6721,-14.6567,-14.6528,-14.6759,-14.6875,-14.6836,-14.6798,-14.6567,-7.4077,-8.1467,-7.9524,-7.9856,-8.1792,-8.2432,-8.1754,-8.0474,-8.0825,-8.0398,-7.9394,-7.9575,-8.13,-8.5452,-9.1812,-9.4666,-9.5819,-9.7066,-9.9808,-10.3674,-10.4857,-10.7247,-11.0908,-11.1399,-11.1399,-11.1992,-11.4573,-11.5848,-11.6819,-11.9325,-12.0815,-12.0912,-12.0912,-12.0912,-12.1007,-12.133,-12.199,-12.354,-12.4011,-12.4955,-12.6402,-12.6717,-12.6717,-12.6717,-12.6755,-12.7025,-12.7448,-12.7178,-12.7101,-12.764,-12.7063,-12.6755,-12.6832,-12.7409,-12.7255,-12.7401,-12.8027,-12.9218,-12.9858,-13.0547,-13.0898,-13.0586,-13.0664,-13.082,-13.0937,-13.1367,-13.1992,-13.2304,-13.289,-13.3281,-13.3515,-13.414,-13.4257,-13.4453,-13.4804,-13.5468,-13.6211,-13.6562,-13.7187,-13.7812,-13.8164,-13.8398,-13.8789,-13.8945,-13.914,-13.9648,-14.0117,-14.0468,-14.073,-14.0832,-14.0916,-14.1212,-14.1624,-14.2472,-14.314,-14.3806,-14.4836,-14.6105,-14.6605,-14.6798,-14.6759,-14.6644,-14.6105,-14.549,-14.5297,-14.5066,-14.5336,-14.572,-14.6182,-14.6567,-14.6721,-14.6836,-14.6875,-14.6836,-14.6836,-7.3765,-8.1455,-7.8744,-7.9152,-8.1241,-8.1955,-8.1428,-8.0524,-8.0775,-8.0398,-7.9595,-7.9746,-8.2481,-8.7396,-9.3657,-9.6358,-9.6655,-9.7252,-10.0146,-10.3799,-10.5145,-10.74,-11.059,-11.1399,-11.1399,-11.2232,-11.4356,-11.5967,-11.7161,-11.8976,-12.0912,-12.0912,-12.0912,-12.0912,-12.0971,-12.1477,-12.2474,-12.3724,-12.479,-12.582,-12.6491,-12.6717,-12.6717,-12.6717,-12.6717,-12.7178,-12.764,-12.7678,-12.7794,-12.8294,-12.7832,-12.7678,-12.7871,-12.8102,-12.7986,-12.8805,-12.9509,-13.0306,-13.0814,-13.1346,-13.1492,-13.1289,-13.1289,-13.1367,-13.1836,-13.2265,-13.2773,-13.3203,-13.3554,-13.3789,-13.3789,-13.4101,-13.4062,-13.4297,-13.5117,-13.5742,-13.6367,-13.6992,-13.7461,-13.8086,-13.8593,-13.8711,-13.8789,-13.8906,-13.9101,-13.9453,-13.9922,-14.0351,-14.0586,-14.0724,-14.0828,-14.0966,-14.1492,-14.2123,-14.2703,-14.3357,-14.4352,-14.5528,-14.6528,-14.6605,-14.6336,-14.6028,-14.5567,-14.5028,-14.4566,-14.4451,-14.4489,-14.5143,-14.6028,-14.6413,-14.6682,-14.6798,-14.6875,-14.6951,-14.6913,-7.0906,-7.6365,-7.6953,-7.8763,-8.1252,-8.1654,-8.1202,-8.0323,-8.08,-8.0499,-8.0053,-8.0261,-8.3582,-8.9217,-9.4075,-9.7245,-9.7461,-9.767,-10.0765,-10.356,-10.5464,-10.7553,-11.027,-11.1399,-11.1399,-11.1505,-11.4573,-11.5967,-11.7048,-11.8976,-12.0912,-12.0912,-12.0912,-12.0912,-12.1124,-12.144,-12.2306,-12.3797,-12.5612,-12.6453,-12.6717,-12.6717,-12.6717,-12.6717,-12.6794,-12.7178,-12.8025,-12.7909,-12.8294,-12.9217,-12.8717,-12.8525,-12.8833,-12.8909,-12.8909,-12.9613,-13.0345,-13.1132,-13.1483,-13.1865,-13.2038,-13.1953,-13.1875,-13.2304,-13.2695,-13.2851,-13.3008,-13.3672,-13.3711,-13.3789,-13.3867,-13.3984,-13.4062,-13.4453,-13.5117,-13.5664,-13.6367,-13.7265,-13.789,-13.8359,-13.875,-13.8789,-13.8867,-13.8867,-13.9023,-13.9297,-13.9726,-14.0195,-14.0507,-14.0742,-14.0762,-14.0939,-14.1819,-14.2123,-14.2046,-14.2781,-14.3872,-14.4776,-14.5776,-14.6259,-14.5913,-14.5567,-14.5182,-14.4605,-14.4066,-14.4451,-14.493,-14.5413,-14.5913,-14.6413,-14.6798,-14.6836,-14.6913,-14.7028,-14.699,-6.4116,-6.4978,-7.3259,-7.8401,-8.1466,-8.1779,-8.1202,-8.0298,-8.0825,-8.075,-8.0406,-8.0906,-8.3879,-8.93,-9.4418,-9.753,-9.7551,-9.8149,-10.1135,-10.3655,-10.5305,-10.7553,-11.0092,-11.1399,-11.1505,-11.2095,-11.4698,-11.5967,-11.6934,-11.9464,-12.0682,-12.0912,-12.0912,-12.0912,-12.1124,-12.1477,-12.2428,-12.3907,-12.5784,-12.6706,-12.6755,-12.6755,-12.6794,-12.6717,-12.6832,-12.7409,-12.8909,-12.8409,-12.8679,-13.0102,-12.9525,-12.9294,-12.9602,-12.9756,-12.9871,-13.0113,-13.0855,-13.1508,-13.1741,-13.2386,-13.3131,-13.3437,-13.3476,-13.3281,-13.3437,-13.3632,-13.3789,-13.3789,-13.3789,-13.3906,-13.4062,-13.4297,-13.4218,-13.4883,-13.5508,-13.6211,-13.6992,-13.7929,-13.8515,-13.8789,-13.8906,-13.8906,-13.9101,-13.914,-13.9101,-13.9336,-13.9804,-14.0273,-14.0664,-14.0898,-14.0781,-14.1086,-14.2194,-14.2318,-14.1436,-14.2041,-14.2829,-14.3589,-14.4407,-14.5045,-14.5374,-14.5066,-14.5105,-14.4528,-14.4143,-14.4776,-14.5199,-14.5391,-14.5682,-14.649,-14.6875,-14.6875,-14.7259,-14.7605,-14.7336,-6.6794,-7.1527,-7.3268,-7.5501,-7.8641,-8.0752,-8.1202,-8.0474,-8.1127,-8.1428,-8.1127,-8.1536,-8.4571,-8.9624,-9.3057,-9.6375,-9.7849,-9.8359,-10.1228,-10.3687,-10.5464,-10.7705,-11.0092,-11.1505,-11.1854,-11.3002,-11.5,-11.6819,-11.7902,-11.9951,-12.0584,-12.0912,-12.1059,-12.0912,-12.1124,-12.1977,-12.3078,-12.4129,-12.5974,-12.7255,-12.6832,-12.7178,-12.7217,-12.6717,-12.6717,-12.7255,-12.8217,-12.864,-12.941,-13.0064,-13.0102,-13.0256,-13.041,-13.0602,-13.0564,-13.059,-13.1448,-13.1625,-13.1793,-13.245,-13.3152,-13.3672,-13.3789,-13.3789,-13.3789,-13.3789,-13.3789,-13.3789,-13.3789,-13.3906,-13.457,-13.4414,-13.4336,-13.5234,-13.6054,-13.6718,-13.7422,-13.832,-13.8789,-13.8867,-13.8906,-13.8906,-13.914,-13.9414,-13.9375,-13.9414,-13.9882,-14.0312,-14.0664,-14.082,-14.0625,-14.0468,-14.1408,-14.1427,-14.0544,-14.1008,-14.1707,-14.2443,-14.323,-14.3974,-14.473,-14.5413,-14.5336,-14.4682,-14.4259,-14.4699,-14.4968,-14.499,-14.5528,-14.6528,-14.6875,-14.6875,-14.7413,-14.8067,-14.7759,-6.8569,-7.4347,-7.3788,-7.5351,-7.8354,-8.0802,-8.1403,-8.0901,-8.1453,-8.1805,-8.1805,-8.2128,-8.5183,-8.9831,-9.2447,-9.5345,-9.766,-9.8838,-10.143,-10.3522,-10.5464,-10.7705,-11.0092,-11.1611,-11.2061,-11.3683,-11.5034,-11.642,-11.8805,-12.0554,-12.1378,-12.1719,-12.1572,-12.1536,-12.1404,-12.2981,-12.4136,-12.475,-12.6318,-12.7437,-12.6909,-12.714,-12.7294,-12.6832,-12.6948,-12.7602,-12.8486,-12.9179,-13.0025,-13.0641,-13.091,-13.1141,-13.1295,-13.1333,-13.1256,-13.1564,-13.1922,-13.1963,-13.1943,-13.2434,-13.3122,-13.3672,-13.3789,-13.3789,-13.3789,-13.3789,-13.3789,-13.3789,-13.3828,-13.414,-13.4883,-13.4648,-13.4883,-13.5742,-13.6523,-13.7187,-13.7656,-13.832,-13.8632,-13.8906,-13.8906,-13.8906,-13.9023,-13.9297,-13.9531,-13.9414,-13.9414,-13.9882,-14.0312,-14.039,-14.0234,-14.0078,-14.0207,-13.9886,-13.9409,-14.0108,-14.0841,-14.1942,-14.2669,-14.3398,-14.4179,-14.4937,-14.5353,-14.4682,-14.4451,-14.4605,-14.499,-14.5528,-14.6067,-14.6682,-14.6875,-14.699,-14.7567,-14.8144,-14.8106,-6.815,-7.1019,-7.4615,-7.8475,-8.1953,-8.2031,-8.1779,-8.1604,-8.1754,-8.1855,-8.1955,-8.2521,-8.5524,-8.9968,-9.2137,-9.4964,-9.7872,-9.8688,-10.0772,-10.4014,-10.5146,-10.7705,-10.9948,-11.1611,-11.2435,-11.3544,-11.4701,-11.6455,-11.9778,-12.164,-12.2576,-12.2857,-12.271,-12.238,-12.1381,-12.3667,-12.4893,-12.5292,-12.7065,-12.749,-12.7255,-12.7332,-12.7371,-12.7294,-12.764,-12.8332,-12.8909,-12.9756,-13.0525,-13.1064,-13.1218,-13.141,-13.1602,-13.1487,-13.1487,-13.1679,-13.2372,-13.2384,-13.1877,-13.2709,-13.3388,-13.3781,-13.3906,-13.3789,-13.3789,-13.3789,-13.3906,-13.4023,-13.3984,-13.4375,-13.4765,-13.5117,-13.5625,-13.6406,-13.7226,-13.7578,-13.8007,-13.8359,-13.8711,-13.8906,-13.8906,-13.8906,-13.8945,-13.9062,-13.9492,-13.9492,-13.9218,-13.9414,-13.9922,-14.0117,-14.0,-13.9648,-13.9531,-13.9353,-13.9178,-13.9324,-14.0012,-14.1173,-14.2157,-14.287,-14.3731,-14.4576,-14.4733,-14.4561,-14.4643,-14.4836,-14.5528,-14.6297,-14.6605,-14.6836,-14.7028,-14.7259,-14.7836,-14.8144,-14.8144,-6.7911,-7.2239,-7.3926,-7.7736,-8.2393,-8.2483,-8.2181,-8.1855,-8.183,-8.2031,-8.2357,-8.2633,-8.5655,-8.954,-9.1636,-9.4076,-9.7843,-9.8688,-10.0772,-10.447,-10.4986,-10.7705,-11.027,-11.1679,-11.2739,-11.4488,-11.5282,-11.7024,-12.1312,-12.2807,-12.3199,-12.3371,-12.3518,-12.3041,-12.3194,-12.4664,-12.5796,-12.6308,-12.7999,-12.9294,-12.8525,-12.8756,-12.8794,-12.8294,-12.8602,-12.8948,-12.9333,-13.0141,-13.0794,-13.1064,-13.1102,-13.1256,-13.1487,-13.141,-13.1256,-13.1564,-13.2141,-13.2156,-13.2288,-13.3017,-13.3851,-13.4059,-13.4101,-13.3984,-13.3828,-13.3789,-13.4062,-13.4453,-13.4609,-13.5273,-13.6367,-13.6054,-13.6484,-13.7578,-13.8242,-13.8125,-13.8398,-13.8632,-13.8906,-13.8906,-13.8906,-13.9257,-13.9414,-13.9062,-13.9297,-13.9726,-13.957,-13.9179,-13.9453,-13.9882,-13.9961,-13.9414,-13.9101,-13.9023,-13.8984,-13.9101,-13.9453,-14.0424,-14.1504,-14.2468,-14.3299,-14.429,-14.5039,-14.5337,-14.5177,-14.5105,-14.599,-14.6682,-14.6759,-14.6951,-14.7105,-14.7452,-14.7952,-14.8182,-14.8182,-6.7759,-7.1648,-7.3835,-7.7213,-8.1046,-8.2203,-8.2432,-8.2131,-8.2106,-8.2332,-8.2608,-8.2873,-8.5655,-8.9431,-9.0992,-9.3571,-9.8147,-9.8508,-10.0803,-10.4502,-10.5274,-10.7902,-11.026,-11.1742,-11.3285,-11.4998,-11.5931,-11.756,-12.1816,-12.3834,-12.4399,-12.4325,-12.4105,-12.4215,-12.4653,-12.5739,-12.6627,-12.7281,-12.8802,-12.9871,-12.9448,-12.9448,-12.9602,-12.9333,-12.941,-12.9717,-12.991,-13.0333,-13.091,-13.091,-13.0987,-13.1141,-13.1333,-13.1333,-13.1179,-13.1564,-13.173,-13.2117,-13.298,-13.2788,-13.3643,-13.467,-13.4609,-13.4687,-13.4687,-13.4843,-13.5039,-13.5312,-13.5429,-13.6289,-13.7187,-13.6836,-13.7382,-13.8476,-13.8672,-13.8593,-13.8672,-13.8906,-13.8906,-13.8906,-13.8945,-13.9375,-13.957,-13.9336,-13.9101,-13.9531,-13.9922,-13.9492,-13.914,-13.9648,-13.9882,-13.9336,-13.8984,-13.8945,-13.8906,-13.8867,-13.9257,-13.9804,-14.1017,-14.2322,-14.3221,-14.4297,-14.5223,-14.5992,-14.5631,-14.5622,-14.6451,-14.699,-14.7028,-14.7067,-14.7144,-14.7567,-14.8067,-14.799,-14.7798,-6.7852,-6.9697,-7.4805,-7.7617,-7.893,-8.1746,-8.2658,-8.2633,-8.2633,-8.2633,-8.2683,-8.2683,-8.5655,-8.9831,-9.0598,-9.3571,-9.7813,-9.8417,-10.1413,-10.4199,-10.5786,-10.86,-11.0695,-11.225,-11.3529,-11.4783,-11.579,-11.7345,-12.1838,-12.427,-12.5353,-12.5463,-12.528,-12.5243,-12.5687,-12.6785,-12.7495,-12.8153,-12.9435,-13.0231,-13.0064,-12.9717,-12.9871,-12.9871,-13.0179,-13.0448,-13.0718,-13.1141,-13.1448,-13.1525,-13.1564,-13.1602,-13.1641,-13.1641,-13.1641,-13.1679,-13.1679,-13.2499,-13.3225,-13.2758,-13.366,-13.4934,-13.5815,-13.6132,-13.6054,-13.5859,-13.5976,-13.6172,-13.6367,-13.6992,-13.7578,-13.7812,-13.8086,-13.8632,-13.8945,-13.8984,-13.9023,-13.9023,-13.8906,-13.8906,-13.8906,-13.9023,-13.8906,-13.875,-13.8789,-13.9023,-13.9375,-13.957,-13.9375,-13.9765,-13.9843,-13.9218,-13.8984,-13.8984,-13.8984,-13.9101,-13.9453,-14.0117,-14.1328,-14.2593,-14.346,-14.4225,-14.5077,-14.5688,-14.5749,-14.5908,-14.6028,-14.6644,-14.7259,-14.7221,-14.6836,-14.7452,-14.7875,-14.7221,-14.699,-6.7509,-7.1789,-7.3474,-7.6882,-8.1238,-8.2203,-8.2683,-8.2683,-8.2683,-8.2683,-8.2683,-8.2683,-8.5655,-9.04,-9.0598,-9.3952,-9.6896,-9.9438,-10.211,-10.45,-10.6556,-10.9433,-11.1452,-11.286,-11.4009,-11.473,-11.5701,-11.7193,-12.1584,-12.4563,-12.5684,-12.5647,-12.5684,-12.5684,-12.6484,-12.8046,-12.828,-12.8948,-13.0317,-13.091,-13.0987,-13.0871,-13.0871,-13.1025,-13.1141,-13.1333,-13.141,-13.1487,-13.1679,-13.1679,-13.1141,-13.1025,-13.1679,-13.1218,-13.0948,-13.1641,-13.1718,-13.1949,-13.2434,-13.2903,-13.3715,-13.5082,-13.6156,-13.6491,-13.6445,-13.6523,-13.6757,-13.7187,-13.7461,-13.8047,-13.8632,-13.8945,-13.9336,-13.9765,-13.9726,-13.9179,-13.9218,-13.914,-13.9023,-13.8867,-13.8867,-13.8476,-13.8359,-13.8359,-13.8437,-13.8554,-13.875,-13.9062,-13.9531,-13.9882,-13.9765,-13.914,-13.9101,-13.914,-13.9531,-13.9726,-14.0039,-14.0547,-14.1718,-14.2656,-14.334,-14.4123,-14.4936,-14.5507,-14.5811,-14.5452,-14.5028,-14.5682,-14.6451,-14.6336,-14.6105,-14.6951,-14.7452,-14.6913,-14.6682,-6.5623,-6.9098,-7.1752,-7.6661,-8.2153,-8.2683,-8.2683,-8.2683,-8.2683,-8.2683,-8.2683,-8.2683,-8.5655,-9.0003,-9.0795,-9.3379,-9.8177,-9.9288,-10.1723,-10.5352,-10.7033,-10.9992,-11.2202,-11.3605,-11.4691,-11.5152,-11.5682,-11.6781,-12.162,-12.4423,-12.5684,-12.5684,-12.5684,-12.5684,-12.6235,-12.7485,-12.8498,-12.9441,-13.069,-13.1856,-13.2179,-13.2179,-13.2218,-13.2218,-13.2218,-13.2102,-13.1795,-13.1756,-13.1718,-13.1679,-13.1102,-13.1179,-13.1641,-13.1256,-13.141,-13.1987,-13.1833,-13.1795,-13.1922,-13.2357,-13.361,-13.4951,-13.6055,-13.6691,-13.7304,-13.7617,-13.8086,-13.8554,-13.875,-13.9023,-13.9609,-14.0156,-14.0703,-14.125,-14.0351,-13.9414,-13.9297,-13.9257,-13.9101,-13.8906,-13.8554,-13.8125,-13.7968,-13.8007,-13.8007,-13.8047,-13.8242,-13.8632,-13.9179,-13.9804,-13.9609,-13.9062,-13.9179,-13.9336,-13.9726,-14.0039,-14.0273,-14.0703,-14.1836,-14.2695,-14.3281,-14.4106,-14.5053,-14.5637,-14.6036,-14.5532,-14.4912,-14.4907,-14.5297,-14.5374,-14.5605,-14.6144,-14.6798,-14.6951,-14.6951,-6.3579,-6.4214,-7.05,-7.6882,-8.2178,-8.2683,-8.2683,-8.2683,-8.2683,-8.2683,-8.2683,-8.2683,-8.5655,-8.9804,-9.0795,-9.3656,-9.75,-9.9588,-10.2358,-10.6266,-10.7609,-11.041,-11.322,-11.4452,-11.5443,-11.5843,-11.6788,-11.8493,-12.2343,-12.4928,-12.5684,-12.5684,-12.5684,-12.5684,-12.598,-12.7695,-12.8874,-12.9565,-13.153,-13.3256,-13.2987,-13.2987,-13.3103,-13.3103,-13.2987,-13.2795,-13.2179,-13.191,-13.1795,-13.1795,-13.1679,-13.1641,-13.1833,-13.2102,-13.2526,-13.2641,-13.2526,-13.241,-13.2333,-13.2599,-13.3689,-13.4734,-13.547,-13.678,-13.7734,-13.8281,-13.875,-13.9023,-13.9101,-13.9531,-14.0039,-13.9961,-14.0273,-14.0742,-14.039,-14.0078,-14.0195,-13.9765,-13.9023,-13.875,-13.8281,-13.7812,-13.7304,-13.7265,-13.6953,-13.7226,-13.7773,-13.8164,-13.8711,-13.9453,-13.9414,-13.9023,-13.9375,-13.9531,-13.9453,-13.9804,-14.0234,-14.0898,-14.1914,-14.2539,-14.3007,-14.4023,-14.5174,-14.5319,-14.5419,-14.5392,-14.5025,-14.4943,-14.4899,-14.5374,-14.5567,-14.5528,-14.5913,-14.6567,-14.6836,-6.4151,-6.7098,-7.3651,-7.8934,-8.2418,-8.2683,-8.2683,-8.2683,-8.2683,-8.2683,-8.2683,-8.3062,-8.5655,-9.0003,-9.0681,-9.3799,-9.8312,-10.025,-10.3325,-10.6415,-10.8441,-11.1129,-11.4288,-11.5028,-11.6198,-11.7667,-11.9096,-12.0908,-12.4073,-12.5446,-12.5684,-12.5684,-12.5684,-12.5684,-12.5919,-12.7932,-12.9522,-12.9758,-13.237,-13.3729,-13.3372,-13.3718,-13.3987,-13.4026,-13.3949,-13.3834,-13.3333,-13.2949,-13.2795,-13.2641,-13.1987,-13.2102,-13.2641,-13.3256,-13.3718,-13.391,-13.368,-13.3449,-13.341,-13.3473,-13.4418,-13.5472,-13.6453,-13.7419,-13.8203,-13.8672,-13.8984,-13.9179,-13.9609,-14.0078,-14.0273,-14.0,-13.9882,-14.0273,-14.039,-14.0625,-14.0859,-13.9961,-13.8984,-13.8515,-13.8047,-13.7461,-13.6875,-13.6406,-13.6054,-13.6445,-13.7265,-13.7812,-13.8164,-13.875,-13.9179,-13.9062,-13.9687,-13.9804,-13.9531,-13.9882,-14.0507,-14.1015,-14.1875,-14.2382,-14.2773,-14.3828,-14.4836,-14.461,-14.4577,-14.4673,-14.4727,-14.4611,-14.4729,-14.5196,-14.5369,-14.5361,-14.5892,-14.6528,-14.6644,-6.3637,-6.6153,-7.2436,-7.8253,-8.2153,-8.2683,-8.2683,-8.2683,-8.2683,-8.2683,-8.2683,-8.3087,-8.5655,-9.0113,-9.0874,-9.4084,-9.8882,-10.0513,-10.3787,-10.7048,-10.9225,-11.1996,-11.391,-11.5502,-11.7337,-11.9208,-12.1922,-12.4043,-12.5583,-12.5684,-12.5684,-12.5684,-12.5684,-12.582,-12.6054,-12.8206,-12.9823,-13.0098,-13.3071,-13.3995,-13.3897,-13.4564,-13.5103,-13.518,-13.5065,-13.4834,-13.4218,-13.3795,-13.368,-13.3526,-13.3141,-13.3141,-13.3564,-13.391,-13.4411,-13.4564,-13.4487,-13.4334,-13.4372,-13.4601,-13.5145,-13.6132,-13.6652,-13.73,-13.8476,-13.8945,-13.9297,-13.9609,-14.0976,-14.1601,-14.1093,-14.0742,-14.082,-14.1054,-14.0156,-13.9648,-13.9765,-13.9414,-13.8906,-13.8789,-13.8086,-13.7187,-13.6601,-13.5976,-13.5898,-13.6836,-13.75,-13.7773,-13.8086,-13.8359,-13.8711,-13.8984,-13.9492,-13.9609,-13.9257,-14.0,-14.1093,-14.1562,-14.1797,-14.2343,-14.2851,-14.3711,-14.4403,-14.4353,-14.4286,-14.4221,-14.4242,-14.4322,-14.4538,-14.4968,-14.5088,-14.5144,-14.5876,-14.6507,-14.6623,-6.3029,-6.4573,-7.0695,-7.6835,-8.2178,-8.2683,-8.2683,-8.2683,-8.2683,-8.2683,-8.2873,-8.3062,-8.6252,-8.9421,-9.1914,-9.5575,-9.8631,-10.0389,-10.3972,-10.7406,-10.8857,-11.1904,-11.4295,-11.5875,-11.7989,-12.0741,-12.3684,-12.4903,-12.5977,-12.583,-12.5684,-12.5684,-12.5684,-12.5684,-12.6004,-12.7133,-12.8645,-13.04,-13.2605,-13.4203,-13.495,-13.568,-13.6065,-13.6219,-13.6065,-13.5372,-13.4949,-13.4526,-13.4564,-13.4526,-13.4449,-13.4372,-13.4526,-13.4795,-13.518,-13.5411,-13.5295,-13.5026,-13.4872,-13.4988,-13.5739,-13.6397,-13.6612,-13.7304,-13.8515,-13.9179,-13.9531,-14.0156,-14.1523,-14.1875,-14.1328,-14.1054,-14.1132,-14.1172,-13.9961,-13.8945,-13.8984,-13.8984,-13.8945,-13.8867,-13.8047,-13.707,-13.6406,-13.5781,-13.5976,-13.6953,-13.7578,-13.7968,-13.8242,-13.8515,-13.8789,-13.8906,-13.9101,-13.9101,-13.8945,-13.9648,-14.082,-14.1132,-14.1328,-14.2109,-14.2851,-14.3398,-14.3906,-14.433,-14.4216,-14.4056,-14.4142,-14.4312,-14.4565,-14.5043,-14.5469,-14.585,-14.6295,-14.6829,-14.6733,-6.5155,-7.0752,-7.4329,-7.8547,-8.2368,-8.2683,-8.2683,-8.2683,-8.2683,-8.2683,-8.3276,-8.5263,-8.7842,-9.0795,-9.3052,-9.6346,-9.9572,-10.0937,-10.4311,-10.8356,-10.9349,-11.2252,-11.4926,-11.673,-11.8471,-12.1448,-12.4373,-12.5748,-12.6197,-12.5941,-12.5684,-12.5684,-12.572,-12.5893,-12.6201,-12.7616,-12.9656,-13.123,-13.3117,-13.5024,-13.5965,-13.6488,-13.6603,-13.668,-13.6642,-13.6911,-13.6834,-13.5911,-13.5911,-13.5872,-13.5642,-13.5334,-13.5334,-13.5642,-13.6103,-13.618,-13.6026,-13.6026,-13.5911,-13.5911,-13.6622,-13.7088,-13.7405,-13.7812,-13.8789,-13.9492,-13.9609,-13.9414,-14.0312,-14.039,-14.0039,-13.9843,-13.9882,-14.0273,-13.9726,-13.9257,-13.9062,-13.8984,-13.8906,-13.8554,-13.8007,-13.7226,-13.6523,-13.5781,-13.5,-13.5859,-13.6484,-13.6875,-13.7461,-13.8086,-13.8789,-13.8828,-13.8828,-13.8906,-13.8906,-13.9101,-13.9922,-14.0312,-14.082,-14.1523,-14.2187,-14.2734,-14.3242,-14.3672,-14.3984,-14.3956,-14.4102,-14.4262,-14.5118,-14.5654,-14.6259,-14.6686,-14.6979,-14.6932,-14.671]},{"header":{"parameterUnit":"m.s-1","parameterCategory":1,"la1":31.0,"la2":29.5877,"lo1":-88.7671,"lo2":-86.6584,"dy":0.0162,"dx":0.0185,"nx":115,"ny":88,"refTime":"2025-01-08T06:00:00:Z","depth":0,"parameterNumber":3,"parameterNumberName":"V-component_of_WINDS"},"data":[0.0,0.0,0.0,0.0,0.0,0.0,0.0,0.0,0.0,0.0,0.0,0.0,0.0,0.0,0.0,0.0,0.0,0.0,0.0,0.0,0.0,0.0,0.0,0.0,0.0,0.0,0.0,0.0,0.0,0.0,0.0,0.0,0.0,0.0,0.0,0.0,0.0,0.0,0.0,0.0,0.0,0.0,0.0,0.0,0.0,0.0,0.0,0.0,0.0,0.0,0.0,0.0,0.0,0.0,0.0,0.0,0.0,0.0,0.0,0.0,0.0,0.0,0.0,0.0,0.0,0.0,0.0,0.0,0.0,0.0,0.0,0.0,0.0,0.0,0.0,0.0,0.0,0.0,0.0,0.0,0.0,0.0,0.0,0.0,0.0,0.0,0.0,0.0,0.0,0.0,0.0,0.0,0.0,0.0,0.0,0.0,0.0,0.0,0.0,0.0,0.0,0.0,0.0,0.0,0.0,0.0,0.0,0.0,0.0,0.0,0.0,0.0,0.0,0.0,0.0,0.0,0.0,0.0,0.0,0.0,0.0,0.0,0.0,0.0,0.0,0.0,0.0,0.0,0.0,0.0,0.0,0.0,0.0,0.0,0.0,0.0,0.0,0.0,0.0,0.0,0.0,0.0,0.0,0.0,0.0,0.0,0.0,0.0,0.0,0.0,0.0,0.0,0.0,0.0,0.0,0.0,0.0,0.0,0.0,0.0,0.0,0.0,0.0,0.0,0.0,0.0,0.0,0.0,0.0,0.0,0.0,0.0,0.0,0.0,0.0,0.0,0.0,0.0,0.0,0.0,0.0,0.0,0.0,0.0,0.0,0.0,0.0,0.0,0.0,0.0,0.0,0.0,0.0,0.0,0.0,0.0,0.0,0.0,0.0,0.0,0.0,0.0,0.0,0.0,0.0,0.0,0.0,0.0,0.0,0.0,0.0,0.0,0.0,0.0,0.0,0.0,0.0,0.0,0.0,0.0,0.0,0.0,0.0,0.0,0.0,0.0,0.0,0.0,0.0,0.0,0.0,0.0,0.0,0.0,0.0,0.0,0.0,0.0,0.0,0.0,0.0,0.0,0.0,0.0,0.0,0.0,0.0,0.0,0.0,0.0,0.0,0.0,0.0,0.0,0.0,0.0,0.0,0.0,0.0,0.0,0.0,0.0,0.0,0.0,0.0,0.0,0.0,0.0,0.0,0.0,0.0,0.0,0.0,0.0,0.0,0.0,0.0,0.0,0.0,0.0,0.0,0.0,0.0,0.0,0.0,0.0,0.0,0.0,0.0,0.0,0.0,0.0,0.0,0.0,0.0,0.0,0.0,0.0,0.0,0.0,0.0,0.0,0.0,0.0,0.0,0.0,0.0,0.0,0.0,0.0,0.0,0.0,0.0,0.0,0.0,0.0,0.0,0.0,0.0,0.0,0.0,0.0,0.0,0.0,0.0,0.0,0.0,0.0,0.0,0.0,0.0,0.0,0.0,0.0,0.0,0.0,0.0,0.0,0.0,0.0,0.0,0.0,0.0,0.0,0.0,0.0,0.0,0.0,0.0,0.0,0.0,0.0,0.0,0.0,0.0,0.0,0.0,0.0,0.0,0.0,0.0,0.0,0.0,0.0,0.0,0.0,0.0,0.0,0.0,0.0,0.0,0.0,0.0,0.0,0.0,0.0,0.0,0.0,0.0,0.0,0.0,0.0,0.0,0.0,0.0,0.0,0.0,0.0,0.0,0.0,0.0,0.0,0.0,0.0,0.0,0.0,0.0,0.0,0.0,0.0,0.0,0.0,0.0,0.0,0.0,0.0,0.0,0.0,0.0,0.0,0.0,0.0,0.0,0.0,0.0,0.0,0.0,0.0,0.0,0.0,0.0,0.0,0.0,0.0,0.0,0.0,0.0,0.0,0.0,0.0,0.0,0.0,0.0,0.0,0.0,0.0,0.0,0.0,0.0,0.0,0.0,0.0,0.0,0.0,0.0,0.0,0.0,0.0,0.0,0.0,0.0,0.0,0.0,0.0,0.0,0.0,0.0,0.0,0.0,0.0,0.0,0.0,0.0,0.0,0.0,0.0,0.0,0.0,0.0,0.0,0.0,0.0,0.0,0.0,0.0,0.0,0.0,0.0,0.0,0.0,0.0,0.0,0.0,0.0,0.0,0.0,0.0,0.0,0.0,0.0,0.0,0.0,0.0,0.0,0.0,0.0,0.0,0.0,0.0,0.0,0.0,0.0,0.0,0.0,0.0,0.0,0.0,0.0,0.0,0.0,0.0,0.0,0.0,0.0,0.0,0.0,0.0,0.0,0.0,0.0,0.0,0.0,0.0,0.0,0.0,0.0,0.0,0.0,0.0,0.0,0.0,0.0,0.0,0.0,0.0,0.0,0.0,0.0,0.0,0.0,0.0,0.0,0.0,0.0,0.0,0.0,0.0,0.0,0.0,0.0,0.0,0.0,0.0,0.0,0.0,0.0,0.0,0.0,0.0,0.0,0.0,0.0,0.0,0.0,0.0,0.0,0.0,0.0,0.0,0.0,0.0,0.0,0.0,0.0,0.0,0.0,0.0,0.0,0.0,0.0,0.0,0.0,0.0,0.0,0.0,0.0,0.0,0.0,0.0,0.0,0.0,0.0,0.0,0.0,0.0,0.0,0.0,0.0,0.0,0.0,0.0,0.0,0.0,0.0,0.0,0.0,0.0,0.0,0.0,0.0,0.0,0.0,0.0,0.0,0.0,0.0,0.0,0.0,0.0,0.0,0.0,0.0,0.0,0.0,0.0,0.0,0.0,0.0,0.0,0.0,0.0,0.0,0.0,0.0,0.0,0.0,0.0,0.0,0.0,0.0,0.0,0.0,0.0,0.0,0.0,0.0,0.0,0.0,0.0,0.0,0.0,0.0,0.0,0.0,0.0,0.0,0.0,0.0,0.0,0.0,0.0,0.0,0.0,0.0,0.0,0.0,0.0,0.0,0.0,0.0,0.0,0.0,0.0,0.0,0.0,0.0,0.0,0.0,0.0,0.0,0.0,0.0,0.0,0.0,0.0,0.0,0.0,0.0,0.0,0.0,0.0,0.0,0.0,0.0,0.0,0.0,0.0,0.0,0.0,0.0,0.0,0.0,0.0,0.0,0.0,0.0,0.0,0.0,0.0,0.0,0.0,0.0,0.0,0.0,0.0,0.0,0.0,0.0,0.0,0.0,0.0,0.0,0.0,0.0,0.0,0.0,0.0,0.0,0.0,0.0,0.0,0.0,0.0,0.0,0.0,0.0,0.0,0.0,0.0,0.0,0.0,0.0,0.0,0.0,0.0,0.0,0.0,0.0,0.0,0.0,0.0,0.0,0.0,0.0,0.0,0.0,0.0,0.0,0.0,0.0,0.0,0.0,0.0,0.0,0.0,0.0,0.0,0.0,0.0,0.0,0.0,0.0,0.0,0.0,0.0,0.0,0.0,0.0,0.0,0.0,0.0,0.0,0.0,0.0,0.0,0.0,0.0,0.0,0.0,0.0,0.0,0.0,0.0,0.0,0.0,0.0,0.0,0.0,0.0,0.0,0.0,0.0,0.0,0.0,0.0,0.0,0.0,0.0,0.0,0.0,0.0,0.0,0.0,0.0,0.0,0.0,0.0,0.0,0.0,0.0,0.0,0.0,0.0,0.0,0.0,0.0,0.0,0.0,0.0,0.0,0.0,0.0,0.0,0.0,0.0,0.0,0.0,0.0,0.0,0.0,0.0,0.0,0.0,0.0,0.0,0.0,0.0,0.0,0.0,0.0,0.0,0.0,0.0,0.0,0.0,0.0,0.0,0.0,0.0,0.0,0.0,0.0,0.0,0.0,0.0,0.0,0.0,0.0,0.0,0.0,0.0,0.0,0.0,0.0,0.0,0.0,0.0,0.0,0.0,0.0,0.0,0.0,0.0,0.0,0.0,0.0,0.0,0.0,0.0,0.0,0.0,0.0,0.0,0.0,0.0,0.0,0.0,0.0,0.0,0.0,0.0,0.0,0.0,0.0,0.0,0.0,0.0,0.0,0.0,0.0,0.0,0.0,0.0,0.0,0.0,0.0,0.0,0.0,0.0,0.0,0.0,0.0,0.0,0.0,0.0,0.0,0.0,0.0,0.0,0.0,0.0,0.0,0.0,0.0,0.0,0.0,0.0,0.0,0.0,0.0,0.0,0.0,0.0,0.0,0.0,0.0,0.0,0.0,0.0,0.0,0.0,0.0,0.0,0.0,0.0,0.0,0.0,0.0,0.0,0.0,0.0,0.0,0.0,0.0,0.0,0.0,3.5794,0.0,0.0,0.0,0.0,0.0,0.0,0.0,0.0,0.0,0.0,0.0,0.0,0.0,0.0,0.0,0.0,0.0,0.0,0.0,0.0,0.0,0.0,0.0,0.0,0.0,0.0,0.0,0.0,0.0,0.0,0.0,0.0,0.0,0.0,0.0,0.0,0.0,0.0,0.0,0.0,0.0,0.0,0.0,0.0,0.0,0.0,0.0,0.0,0.0,0.0,0.0,0.0,0.0,0.0,0.0,0.0,0.0,0.0,0.0,0.0,0.0,0.0,0.0,0.0,0.0,0.0,0.0,0.0,0.0,0.0,0.0,0.0,0.0,0.0,0.0,0.0,0.0,0.0,0.0,0.0,0.0,0.0,0.0,0.0,0.0,0.0,0.0,0.0,0.0,0.0,0.0,0.0,0.0,0.0,0.0,0.0,0.0,0.0,0.0,0.0,0.0,0.0,0.0,0.0,0.0,0.0,0.0,0.0,0.0,0.0,3.7581,3.5795,3.4799,3.3999,3.302,0.0,0.0,0.0,0.0,0.0,0.0,0.0,0.0,0.0,0.0,0.0,0.0,0.0,0.0,0.0,0.0,0.0,0.0,0.0,0.0,0.0,0.0,0.0,0.0,0.0,0.0,0.0,0.0,0.0,0.0,0.0,0.0,0.0,0.0,0.0,0.0,0.0,0.0,0.0,0.0,0.0,0.0,0.0,0.0,0.0,0.0,0.0,0.0,0.0,0.0,0.0,0.0,0.0,0.0,0.0,0.0,0.0,0.0,0.0,0.0,0.0,0.0,0.0,0.0,0.0,0.0,0.0,0.0,0.0,0.0,0.0,0.0,0.0,0.0,0.0,0.0,0.0,0.0,0.0,0.0,0.0,0.0,0.0,0.0,0.0,0.0,0.0,0.0,0.0,0.0,0.0,0.0,0.0,0.0,0.0,0.0,0.0,0.0,0.0,0.0,0.0,0.0,0.0,0.0,0.0,0.0,0.0,0.0,0.0,0.0,0.0,0.0,3.1401,3.1017,2.9959,0.0,0.0,0.0,0.0,0.0,0.0,0.0,0.0,0.0,0.0,0.0,0.0,0.0,0.0,0.0,0.0,0.0,0.0,0.0,0.0,0.0,0.0,0.0,0.0,0.0,0.0,0.0,0.0,0.0,0.0,0.0,0.0,0.0,0.0,0.0,0.0,0.0,0.0,0.0,0.0,0.0,0.0,0.0,0.0,0.0,0.0,0.0,0.0,0.0,0.0,0.0,0.0,0.0,0.0,0.0,0.0,0.0,0.0,0.0,0.0,0.0,0.0,0.0,0.0,0.0,0.0,0.0,0.0,0.0,0.0,0.0,0.0,0.0,0.0,0.0,0.0,0.0,0.0,0.0,0.0,0.0,0.0,0.0,0.0,0.0,0.0,0.0,0.0,0.0,0.0,0.0,0.0,0.0,0.0,0.0,0.0,0.0,0.0,0.0,0.0,0.0,0.0,0.0,0.0,0.0,0.0,0.0,0.0,0.0,0.0,2.8331,2.7428,2.7445,0.0,2.541,0.0,0.0,0.0,0.0,0.0,0.0,0.0,0.0,0.0,0.0,0.0,0.0,0.0,0.0,0.0,0.0,0.0,0.0,0.0,0.0,0.0,0.0,0.0,0.0,0.0,0.0,0.0,0.0,0.0,0.0,0.0,0.0,0.0,0.0,0.0,0.0,0.0,0.0,0.0,0.0,0.0,0.0,0.0,0.0,0.0,0.0,0.0,0.0,0.0,0.0,0.0,0.0,0.0,0.0,0.0,0.0,0.0,0.0,0.0,0.0,0.0,0.0,0.0,0.0,0.0,0.0,0.0,0.0,0.0,0.0,0.0,0.0,0.0,0.0,0.0,0.0,0.0,0.0,0.0,0.0,0.0,0.0,0.0,0.0,0.0,0.0,0.0,0.0,0.0,0.0,0.0,0.0,0.0,0.0,0.0,0.0,0.0,0.0,0.0,0.0,0.0,0.0,0.0,0.0,0.0,0.0,0.0,0.0,0.0,0.0,2.4776,2.5432,2.5045,2.4747,0.0,0.0,0.0,0.0,0.0,0.0,0.0,0.0,0.0,0.0,0.0,0.0,0.0,0.0,0.0,0.0,0.0,0.0,0.0,0.0,0.0,0.0,0.0,0.0,0.0,0.0,0.0,0.0,0.0,0.0,0.0,0.0,0.0,0.0,0.0,0.0,0.0,0.0,0.0,0.0,0.0,0.0,0.0,0.0,0.0,0.0,0.0,0.0,0.0,0.0,0.0,0.0,0.0,0.0,0.0,0.0,0.0,0.0,0.0,0.0,0.0,0.0,0.0,0.0,0.0,0.0,0.0,0.0,0.0,0.0,0.0,0.0,0.0,0.0,0.0,0.0,0.0,0.0,0.0,0.0,0.0,0.0,0.0,0.0,0.0,0.0,0.0,0.0,0.0,0.0,0.0,0.0,0.0,0.0,0.0,0.0,0.0,0.0,0.0,0.0,0.0,0.0,0.0,0.0,0.0,0.0,0.0,0.0,0.0,0.0,2.0758,2.0963,2.2241,2.2309,2.2377,2.2644,0.0,0.0,0.0,0.0,0.0,0.0,0.0,0.0,0.0,0.0,0.0,0.0,0.0,0.0,0.0,0.0,0.0,0.0,0.0,0.0,0.0,0.0,0.0,0.0,0.0,0.0,0.0,0.0,0.0,0.0,0.0,0.0,0.0,0.0,0.0,0.0,0.0,0.0,0.0,0.0,0.0,0.0,0.0,0.0,0.0,0.0,0.0,0.0,0.0,0.0,0.0,0.0,0.0,0.0,0.0,0.0,0.0,0.0,0.0,0.0,0.0,0.0,0.0,0.0,0.0,0.0,0.0,0.0,0.0,0.0,0.0,0.0,0.0,0.0,0.0,0.0,0.0,0.0,0.0,0.0,0.0,0.0,0.0,0.0,0.0,0.0,0.0,0.0,0.0,0.0,0.0,0.0,0.0,0.0,0.0,0.0,0.0,0.0,0.0,0.0,0.0,0.0,0.0,0.0,0.0,0.0,0.0,0.0,1.7374,1.6899,1.6953,1.7444,1.8833,1.904,0.0,0.0,0.0,0.0,0.0,0.0,0.0,0.0,0.0,0.0,0.0,0.0,0.0,0.0,0.0,0.0,0.0,0.0,0.0,0.0,0.0,0.0,0.0,0.0,0.0,0.0,0.0,0.0,0.0,0.0,0.0,0.0,0.0,0.0,0.0,0.0,0.0,0.0,0.0,0.0,0.0,0.0,0.0,0.0,0.0,0.0,0.0,0.0,0.0,0.0,0.0,0.0,0.0,0.0,0.0,0.0,0.0,0.0,0.0,0.0,0.0,0.0,0.0,0.0,0.0,0.0,0.0,0.0,0.0,0.0,0.0,0.0,0.0,0.0,0.0,0.0,0.0,0.0,0.0,0.0,0.0,0.0,0.0,0.0,0.0,0.0,0.0,0.0,0.0,0.0,0.0,0.0,0.0,0.0,0.0,0.0,0.0,0.0,0.0,0.0,0.0,0.0,0.0,0.0,0.0,0.0,0.0,0.0,0.0,1.2982,1.5404,1.7031,1.7633,1.7463,1.7001,0.0,0.0,0.0,0.0,0.0,0.0,0.0,0.0,0.0,0.0,0.0,0.0,0.0,0.0,0.0,0.0,0.0,0.0,0.0,0.0,0.0,0.0,0.0,0.0,0.0,0.0,0.0,0.0,0.0,0.0,0.0,0.0,0.0,0.0,0.0,0.0,0.0,0.0,0.0,0.0,0.0,0.0,0.0,0.0,0.0,0.0,0.0,0.0,0.0,0.0,0.0,0.0,0.0,0.0,0.0,0.0,0.0,0.0,0.0,0.0,0.0,0.0,0.0,0.0,0.0,0.0,0.0,0.0,0.0,0.0,0.0,0.0,0.0,0.0,0.0,0.0,0.0,0.0,0.0,0.0,0.0,0.0,0.0,0.0,0.0,0.0,0.0,0.0,0.0,0.0,0.0,0.0,0.0,0.0,0.0,0.0,0.0,0.0,0.0,0.0,0.0,0.0,0.0,0.0,0.0,0.0,0.0,0.0,0.0,1.0948,0.0,1.552,1.5965,1.5555,1.5115,0.0,0.0,0.0,0.0,0.0,0.0,0.0,0.0,0.0,0.0,0.0,0.0,0.0,0.0,0.0,0.0,0.0,0.0,0.0,0.0,0.0,0.0,0.0,0.0,0.0,0.0,0.0,0.0,0.0,0.0,0.0,0.0,0.0,0.0,0.0,0.0,0.0,0.0,0.0,0.0,0.0,0.0,0.0,0.0,0.0,0.0,0.0,0.0,0.0,0.0,0.0,0.0,0.0,0.0,0.0,0.0,0.0,0.0,0.0,0.0,0.0,0.0,0.0,0.0,0.0,0.0,0.0,0.0,0.0,0.0,0.0,0.0,0.0,0.0,0.0,0.0,0.0,0.0,0.0,0.0,0.0,0.0,0.0,0.0,0.0,0.0,0.0,0.0,0.0,0.0,0.0,0.0,0.0,0.0,0.0,0.0,0.0,0.0,0.0,0.0,0.0,0.0,0.0,0.0,0.0,0.0,0.0,0.0,0.908,1.1435,1.2024,1.2115,1.1564,1.3165,1.3282,0.0,0.0,0.0,0.0,0.0,0.0,0.0,0.0,0.0,0.0,0.0,0.0,0.0,0.0,0.0,0.0,0.0,0.0,0.0,0.0,0.0,0.0,0.0,0.0,0.0,0.0,0.0,0.0,0.0,0.0,0.0,0.0,0.0,0.0,0.0,0.0,0.0,0.0,0.0,0.0,0.0,0.0,0.0,0.0,0.0,0.0,0.0,0.0,0.0,0.0,0.0,0.0,0.0,0.0,0.0,0.0,0.0,0.0,0.0,0.0,0.0,0.0,0.0,0.0,0.0,0.0,0.0,0.0,0.0,0.0,0.0,0.0,0.0,0.0,0.0,0.0,0.0,0.0,0.0,0.0,0.0,0.0,0.0,0.0,0.0,0.0,0.0,0.0,0.0,0.0,0.0,0.0,0.0,0.0,0.0,0.0,0.0,0.0,0.0,0.0,0.0,0.0,0.0,0.0,0.0,0.0,0.0,0.0,0.0,0.9333,1.1018,1.1837,1.1979,1.1916,1.1709,0.0,0.0,0.0,0.0,0.0,0.0,0.0,0.0,0.0,0.0,0.0,0.0,0.0,0.0,0.0,0.0,0.0,0.0,0.0,0.0,0.0,0.0,0.0,0.0,0.0,0.0,0.0,0.0,0.0,0.0,0.0,0.0,0.0,0.0,0.0,0.0,0.0,0.0,0.0,0.0,0.0,0.0,0.0,0.0,0.0,0.0,0.0,0.0,0.0,0.0,0.0,0.0,0.0,0.0,0.0,0.0,0.0,0.0,0.0,0.0,0.0,0.0,0.0,0.0,0.0,0.0,0.0,0.0,0.0,0.0,0.0,0.0,0.0,0.0,0.0,0.0,0.0,0.0,0.0,0.0,0.0,0.0,0.0,0.0,0.0,0.0,0.0,0.0,0.0,0.0,0.0,0.0,0.0,0.0,0.0,0.0,0.0,0.0,0.0,0.0,0.0,0.0,0.0,0.0,0.0,0.0,0.0,0.0,0.0,0.7943,0.9932,1.1511,1.2454,1.1742,1.1246,1.0995,0.0,0.0,0.0,0.0,0.0,0.0,0.0,0.0,0.0,0.0,0.0,0.0,0.0,0.0,0.0,0.0,0.0,0.0,0.0,0.0,0.0,0.0,0.0,0.0,0.0,0.0,0.0,0.0,0.0,0.0,0.0,0.0,0.0,0.0,0.0,0.0,0.0,0.0,0.0,0.0,0.0,0.0,0.0,0.0,0.0,0.0,0.0,0.0,0.0,0.0,0.0,0.0,0.0,0.0,0.0,0.0,0.0,0.0,0.0,0.0,0.0,0.0,0.0,0.0,0.0,0.0,0.0,0.0,0.0,0.0,0.0,0.0,0.0,0.0,0.0,0.0,0.0,0.0,0.0,0.0,0.0,0.0,0.0,0.0,0.0,0.0,0.0,0.0,0.0,0.0,0.0,0.0,0.0,0.0,0.0,0.0,0.0,0.0,0.0,0.0,0.0,0.0,0.0,0.0,0.0,0.0,0.0,0.0,0.6861,0.8838,1.0829,1.2675,1.2345,1.1687,0.0,0.0,0.0,0.0,0.0,0.0,0.0,0.0,0.0,0.0,0.0,0.0,0.0,0.0,0.0,0.0,0.0,0.0,0.0,0.0,0.0,0.0,0.0,0.0,0.0,0.0,0.0,0.0,0.0,0.0,0.0,0.0,0.0,0.0,0.0,0.0,0.0,0.0,0.0,0.0,0.0,0.0,0.0,0.0,0.0,0.0,0.0,0.0,0.0,0.0,0.0,0.0,0.0,0.0,0.0,0.0,0.0,0.0,0.0,0.0,0.0,0.0,0.0,0.0,0.0,0.0,0.0,0.0,0.0,0.0,0.0,0.0,0.0,0.0,0.0,0.0,0.0,0.0,0.0,0.0,0.0,0.0,0.0,0.0,0.0,0.0,0.0,0.0,0.0,0.0,0.0,0.0,0.0,0.0,0.0,0.0,0.0,0.0,0.0,0.0,0.0,0.0,0.0,0.0,0.0,0.0,0.0,0.0,0.0,0.4633,0.7027,1.0184,1.3713,1.2915,1.223,0.0,0.0,0.0,0.0,0.0,0.0,0.0,0.0,0.0,0.0,0.0,0.0,0.0,0.0,0.0,0.0,0.0,0.0,0.0,0.0,0.0,0.0,0.0,0.0,0.0,0.0,0.0,0.0,0.0,0.0,0.0,0.0,0.0,0.0,0.0,0.0,0.0,0.0,0.0,0.0,0.0,0.0,0.0,0.0,0.0,0.0,0.0,0.0,0.0,0.0,0.0,0.0,0.0,0.0,0.0,0.0,0.0,0.0,0.0,0.0,0.0,0.0,0.0,0.0,0.0,0.0,0.0,0.0,0.0,0.0,0.0,0.0,0.0,0.0,0.0,0.0,0.0,0.0,0.0,0.0,0.0,0.0,0.0,0.0,0.0,0.0,0.0,0.0,0.0,0.0,0.0,0.0,0.0,0.0,0.0,0.0,0.0,0.0,0.0,0.0,0.0,0.0,0.0,0.0,0.0,0.0,0.0,0.0,0.1331,0.3818,0.5401,0.7844,1.147,1.2607,1.2908,0.0,0.0,0.0,0.0,0.0,0.0,0.0,0.0,0.0,0.0,0.0,0.0,0.0,0.0,0.0,0.0,0.0,0.0,0.0,0.0,0.0,0.0,0.0,0.0,0.0,0.0,0.0,0.0,0.0,0.0,0.0,0.0,0.0,0.0,0.0,0.0,0.0,0.0,0.0,0.0,0.0,0.0,0.0,0.0,0.0,0.0,0.0,0.0,0.0,0.0,0.0,0.0,0.0,0.0,0.0,0.0,0.0,0.0,0.0,0.0,0.0,0.0,0.0,0.0,0.0,0.0,0.0,0.0,0.0,0.0,0.0,0.0,0.0,0.0,0.0,0.0,0.0,0.0,0.0,0.0,0.0,0.0,0.0,0.0,0.0,0.0,0.0,0.0,0.0,0.0,0.0,0.0,0.0,0.0,0.0,0.0,0.0,0.0,0.0,0.0,0.0,0.0,0.0,0.0,0.0,0.0,0.0,0.0,0.1225,0.3462,0.3895,0.5028,0.7421,1.1431,1.3244,0.0,0.0,0.0,0.0,0.0,0.0,0.0,0.0,0.0,0.0,0.0,0.0,0.0,0.0,0.0,0.0,0.0,0.0,0.0,0.0,0.0,0.0,0.0,0.0,0.0,0.0,0.0,0.0,0.0,0.0,0.0,0.0,0.0,0.0,0.0,0.0,0.0,0.0,0.0,0.0,0.0,0.0,0.0,0.0,0.0,0.0,0.0,0.0,0.0,0.0,0.0,0.0,0.0,0.0,0.0,0.0,0.0,0.0,0.0,0.0,0.0,0.0,0.0,0.0,0.0,0.0,0.0,0.0,0.0,0.0,0.0,0.0,0.0,0.0,0.0,0.0,0.0,0.0,0.0,0.0,0.0,0.0,0.0,0.0,0.0,0.0,0.0,0.0,0.0,0.0,0.0,0.0,0.0,0.0,0.0,0.0,0.0,0.0,0.0,0.0,0.0,0.0,0.0,0.0,0.0,0.0,0.0,0.0,0.0355,0.0933,0.2943,0.4227,0.4827,0.8608,1.0382,0.0,0.0,0.0,0.0,0.0,0.0,0.0,0.0,0.0,0.0,0.0,0.0,0.0,0.0,0.0,0.0,0.0,0.0,0.0,0.0,0.0,0.0,0.0,0.0,0.0,0.0,0.0,0.0,0.0,0.0,0.0,0.0,0.0,0.0,0.0,0.0,0.0,0.0,0.0,0.0,0.0,0.0,0.0,0.0,0.0,0.0,0.0,0.0,2.608,0.0,0.0,0.0,0.0,0.0,0.0,0.0,0.0,0.0,0.0,0.0,0.0,0.0,0.0,0.0,0.0,0.0,0.0,0.0,0.0,0.0,0.0,0.0,0.0,0.0,0.0,0.0,0.0,0.0,0.0,0.0,0.0,0.0,0.0,0.0,0.0,0.0,0.0,0.0,0.0,0.0,0.0,0.0,0.0,0.0,0.0,0.0,0.0,0.0,0.0,0.0,0.0,0.0,0.0,0.0,0.0,0.0,0.0,0.0,0.0,0.0,0.1388,0.202,0.2225,0.5071,0.7017,0.0,0.0,0.0,0.0,0.0,0.0,0.0,0.0,0.0,0.0,0.0,0.0,0.0,0.0,0.0,0.0,0.0,0.0,0.0,0.0,0.0,0.0,0.0,0.0,0.0,0.0,0.0,0.0,0.0,0.0,0.0,0.0,0.0,0.0,0.0,0.0,0.0,0.0,0.0,0.0,0.0,0.0,0.0,0.0,0.0,0.0,0.0,0.0,0.0,0.0,0.0,0.0,0.0,0.0,0.0,0.0,0.0,0.0,0.0,0.0,0.0,0.0,0.0,0.0,0.0,0.0,0.0,0.0,0.0,0.0,0.0,0.0,0.0,0.0,0.0,0.0,0.0,0.0,0.0,0.0,0.0,0.0,0.0,0.0,0.0,0.0,0.0,0.0,0.0,0.0,0.0,0.0,0.0,0.0,0.0,0.0,0.0,0.0,0.0,0.0,0.0,0.0,0.0,0.0,0.0,0.0,0.0,-0.0173,0.0,0.0,0.0,0.0,0.0,0.1746,0.3636,0.5549,0.0,0.0,0.0,0.0,0.0,0.0,0.0,0.0,0.0,0.0,0.0,0.0,0.0,0.0,0.0,0.0,0.0,0.0,0.0,0.0,0.0,0.0,0.0,0.0,0.0,0.0,0.0,0.0,0.0,0.0,0.0,0.0,0.0,0.0,0.0,0.0,0.0,0.0,2.2875,2.4128,0.0,0.0,0.0,0.0,0.0,0.0,0.0,0.0,2.7212,0.0,0.0,0.0,0.0,0.0,0.0,0.0,0.0,0.0,0.0,0.0,0.0,0.0,0.0,0.0,0.0,0.0,0.0,0.0,0.0,0.0,0.0,0.0,0.0,0.0,0.0,0.0,0.0,0.0,0.0,0.0,0.0,0.0,0.0,0.0,0.0,0.0,0.0,0.0,0.0,0.0,0.0,0.0,0.0,0.0,0.0,0.0,0.0,0.0,0.0,0.0,0.0,0.0,0.0,0.0,0.0,-0.2253,-0.0698,0.0,0.0,0.0,0.0,0.0,0.0392,0.0739,0.1183,0.0,0.0,0.0,0.0,0.0,0.0,0.0,0.0,0.0,0.0,0.0,0.0,0.0,0.0,0.0,0.0,0.0,0.0,0.0,0.0,0.0,0.0,0.0,0.0,0.0,0.0,0.0,0.0,0.0,0.0,0.0,0.0,0.0,0.0,0.0,0.0,0.0,0.0,0.0,2.6867,2.7549,0.0,0.0,0.0,0.0,0.0,0.0,0.0,0.0,2.8358,0.0,0.0,0.0,0.0,0.0,0.0,0.0,0.0,0.0,0.0,0.0,0.0,0.0,0.0,0.0,0.0,0.0,0.0,0.0,0.0,0.0,0.0,0.0,0.0,0.0,0.0,0.0,0.0,0.0,0.0,0.0,0.0,0.0,0.0,0.0,0.0,0.0,0.0,0.0,0.0,0.0,0.0,0.0,0.0,0.0,0.0,0.0,0.0,0.0,0.0,0.0,0.0,0.0,0.0,0.0,-0.2744,-0.0899,0.0,0.0,0.0,0.0,0.0,0.0,0.0,0.0,0.0,0.0,0.0,0.0,0.0,0.0,0.0,0.0,0.0,0.0,0.0,0.0,0.0,0.0,0.0,0.0,0.0,0.0,0.0,0.0,0.0,0.0,0.0,0.0,0.0,0.0,0.0,0.0,0.0,0.0,0.0,0.0,0.0,0.0,0.0,0.0,0.0,0.0,0.0,2.7736,2.8364,2.9553,0.0,0.0,0.0,0.0,0.0,0.0,2.8604,2.8825,0.0,0.0,0.0,0.0,0.0,0.0,0.0,0.0,0.0,0.0,0.0,0.0,0.0,0.0,0.0,0.0,0.0,0.0,0.0,0.0,0.0,0.0,0.0,0.0,0.0,0.0,0.0,0.0,0.0,0.0,0.0,0.0,0.0,0.0,0.0,0.0,0.0,0.0,0.0,0.0,0.0,0.0,0.0,0.0,0.0,0.0,0.0,0.0,0.0,0.0,0.0,0.0,0.0,0.0,0.0,-0.3203,-0.1657,-0.0587,0.0,0.0,0.0,0.0,0.0,0.0,0.0,0.0,0.0,0.0,0.0,0.0,0.0,0.0,0.0,0.0,0.0,0.0,0.0,0.0,0.0,0.0,0.0,0.0,0.0,0.0,0.0,0.0,0.0,0.0,0.0,0.0,0.0,0.0,0.0,0.0,0.0,0.0,0.0,0.0,0.0,0.0,0.0,0.0,0.0,0.0,0.0,2.9219,3.0207,2.9553,0.0,0.0,0.0,0.0,2.7957,2.9589,0.0,0.0,0.0,0.0,0.0,0.0,0.0,0.0,0.0,0.0,0.0,0.0,0.0,0.0,0.0,0.0,0.0,0.0,0.0,0.0,0.0,0.0,0.0,0.0,0.0,0.0,0.0,0.0,0.0,0.0,0.0,0.0,0.0,0.0,0.0,0.0,0.0,0.0,0.0,0.0,0.0,0.0,0.0,0.0,0.0,0.0,0.0,0.0,0.0,0.0,0.0,0.0,0.0,0.0,0.0,0.0,-0.5099,-0.4001,-0.2323,0.0,0.0,0.0,0.0,0.0,0.0,0.0,0.0,0.0,0.0,0.0,0.0,0.0,0.0,0.0,0.0,0.0,0.0,0.0,0.0,0.0,0.0,0.0,0.0,0.0,0.0,0.0,0.0,0.0,0.0,0.0,0.0,0.0,0.0,0.0,0.0,0.0,0.0,0.0,0.0,0.0,0.0,0.0,0.0,0.0,0.0,0.0,3.1036,3.0448,3.0247,3.0034,0.0,0.0,2.6677,3.0267,3.2083,0.0,0.0,0.0,0.0,0.0,0.0,0.0,0.0,0.0,0.0,0.0,0.0,0.0,0.0,0.0,0.0,0.0,0.0,0.0,0.0,0.0,0.0,0.0,0.0,0.0,0.0,0.0,0.0,0.0,0.0,0.0,0.0,0.0,0.0,0.0,0.0,0.0,0.0,0.0,0.0,0.0,0.0,0.0,0.0,0.0,0.0,0.0,0.0,0.0,0.0,0.0,0.0,0.0,0.0,0.0,-0.8824,-0.7677,-0.5258,-0.3402,-0.2479,-0.0826,0.0,0.0,0.0,0.0,0.0,0.0,0.0,0.0,0.0,0.0,0.0,0.0,0.0,0.0,0.0,0.0,0.0,0.0,0.0,0.0,0.0,0.0,0.0,0.0,0.0,0.0,0.0,0.0,0.0,0.0,0.0,0.0,0.0,0.0,0.0,0.0,0.0,0.0,0.0,0.0,0.0,0.0,0.0,0.0,0.0,0.0,2.6884,2.8212,0.0,0.0,0.0,2.8494,3.102,0.0,0.0,0.0,0.0,0.0,0.0,0.0,0.0,0.0,0.0,0.0,0.0,0.0,0.0,0.0,0.0,0.0,0.0,0.0,0.0,0.0,0.0,0.0,0.0,0.0,0.0,0.0,0.0,0.0,0.0,0.0,0.0,0.0,0.0,0.0,0.0,0.0,0.0,0.0,0.0,0.0,0.0,0.0,0.0,0.0,0.0,0.0,0.0,0.0,0.0,0.0,0.0,0.0,0.0,0.0,0.0,0.0,-0.9626,-0.7365,-0.5577,-0.4181,-0.2299,-0.0828,0.0,0.0,0.0,0.0,0.0,0.0,0.0,0.0,0.0,0.0,0.0,0.0,0.0,0.0,0.0,0.0,0.0,0.0,0.0,0.0,0.0,0.0,0.0,0.0,0.0,0.0,0.0,0.0,0.0,0.9829,0.0,0.0,0.0,0.0,0.0,0.0,0.0,0.0,0.0,0.0,0.0,0.0,0.0,0.0,2.3698,2.3958,2.6094,2.7703,0.0,0.0,3.0216,3.123,3.2815,3.2727,0.0,0.0,0.0,0.0,0.0,0.0,0.0,0.0,0.0,0.0,0.0,0.0,0.0,0.0,0.0,0.0,0.0,0.0,0.0,0.0,0.0,0.0,0.0,0.0,0.0,0.0,0.0,0.0,0.0,0.0,0.0,0.0,0.0,0.0,0.0,0.0,0.0,0.0,0.0,0.0,0.0,0.0,0.0,0.0,0.0,0.0,0.0,0.0,0.0,0.0,0.0,0.0,0.0,0.0,-1.2071,-0.9854,-1.126,-0.9457,-0.4682,-0.4249,-0.2942,0.0,0.0,0.0,0.0,0.0,0.0,0.0,0.0,0.0,0.0,0.0,0.0,0.0,0.0,0.0,0.0,0.0,0.0,0.0,0.0,0.0,0.0,0.0,0.0,0.0,0.0,0.0,0.0,0.0,0.0,0.0,0.0,0.0,0.0,0.0,0.0,0.0,0.0,0.0,0.0,0.0,0.0,0.0,0.0,2.3956,2.3622,2.4893,2.6052,0.0,2.9932,3.2018,3.0444,3.4146,3.5711,3.0996,0.0,0.0,0.0,0.0,0.0,0.0,0.0,0.0,0.0,0.0,0.0,0.0,0.0,0.0,0.0,0.0,0.0,0.0,0.0,0.0,0.0,0.0,0.0,0.0,0.0,0.0,0.0,0.0,0.0,0.0,0.0,0.0,0.0,0.0,0.0,0.0,0.0,0.0,0.0,0.0,0.0,0.0,0.0,0.0,0.0,0.0,0.0,0.0,0.0,0.0,0.0,0.0,0.0,-1.3154,-1.262,-1.2508,-1.1638,-0.9725,-0.6448,-0.4044,-0.2727,-0.1007,0.0,0.0,0.0,0.0,0.0,0.0,0.0,0.0,0.0,0.0,0.0,0.0,0.0,0.0,0.0,0.0,0.0,0.0,0.0,0.0,0.0,0.0,0.0,0.0,0.0,0.0,0.0,0.0,0.0,1.1742,1.1877,1.1606,0.0,0.0,0.0,0.0,0.0,0.0,0.0,0.0,0.0,0.0,1.9589,2.0025,2.21,0.0,0.0,2.5394,2.7365,3.0032,3.0504,3.0538,3.0752,3.0181,0.0,0.0,0.0,0.0,0.0,0.0,0.0,0.0,0.0,0.0,0.0,0.0,0.0,0.0,0.0,0.0,0.0,0.0,0.0,0.0,0.0,0.0,0.0,0.0,0.0,0.0,0.0,0.0,0.0,0.0,0.0,0.0,0.0,0.0,0.0,0.0,0.0,0.0,0.0,0.0,0.0,0.0,0.0,0.0,0.0,0.0,0.0,0.0,0.0,0.0,0.0,0.0,-1.3763,-1.436,-1.4018,-1.3667,-1.3357,-0.9349,-0.6251,-0.4473,-0.2466,-0.0968,0.0,0.0,0.0,0.0,0.0,0.0,0.0,0.0,0.0,0.0,0.0,0.0,0.0,0.0,0.0,0.0,0.0,0.0,0.0,0.0,0.0,0.0,0.0,0.0,0.0,0.0,0.0,0.0,1.2088,1.2094,1.1742,0.0,0.0,0.0,0.0,0.0,0.0,0.0,0.0,0.0,0.0,1.6924,1.7887,1.9699,2.0957,2.1292,2.1931,2.3727,2.7481,2.7071,2.7144,2.885,0.0,0.0,0.0,0.0,0.0,0.0,0.0,0.0,0.0,0.0,0.0,0.0,0.0,0.0,0.0,0.0,0.0,0.0,0.0,0.0,0.0,0.0,0.0,0.0,0.0,0.0,0.0,-4.2675,0.0,0.0,-3.8792,0.0,0.0,0.0,0.0,0.0,0.0,0.0,0.0,0.0,0.0,0.0,0.0,0.0,0.0,0.0,0.0,0.0,0.0,0.0,0.0,0.0,0.0,-1.3919,-1.4516,-1.6065,-1.5803,-1.3648,-1.3216,-1.0268,-0.4949,-0.4405,-0.3011,0.0,0.0,0.0,0.0,0.0,0.0,0.0,0.0,0.0,0.0,0.0,0.0,0.0,0.0,0.0,0.0,0.0,0.0,0.0,0.0,0.0,0.0,0.0,0.0,0.0,0.0,0.0,1.145,1.1552,1.1599,0.0,0.0,0.0,0.0,0.0,0.0,0.0,0.0,0.0,1.4821,1.6239,1.7338,1.7806,1.7996,1.8342,1.8342,2.0186,2.1949,2.2535,2.4852,2.655,0.0,0.0,0.0,0.0,0.0,0.0,0.0,0.0,0.0,0.0,0.0,0.0,0.0,0.0,0.0,0.0,0.0,0.0,0.0,0.0,0.0,0.0,0.0,0.0,0.0,0.0,0.0,-4.6428,-4.4623,0.0,0.0,0.0,0.0,0.0,0.0,0.0,0.0,0.0,0.0,0.0,-2.767,-2.617,0.0,0.0,0.0,0.0,0.0,0.0,0.0,0.0,0.0,0.0,0.0,0.0,-1.4021,-1.4848,-1.6381,-1.6948,-1.6432,-1.4365,-1.1395,-0.759,-0.5563,-0.3062,0.0,0.0,0.0,0.0,0.0,0.0,0.0,0.0,0.0,0.0,0.0,0.0,0.0,0.0,0.0,0.0,0.0,0.0,0.0,0.0,0.0,0.0,0.0,0.0,0.0,0.0,1.1681,0.0,0.0,0.0,0.0,0.0,0.0,0.0,0.0,0.0,0.0,1.3888,1.4529,1.5574,1.649,1.7249,1.7792,1.8084,1.8314,0.0,0.0,0.0,0.0,0.0,0.0,0.0,0.0,0.0,0.0,0.0,0.0,0.0,0.0,3.3868,2.9793,2.9192,2.9285,2.9192,0.0,0.0,0.0,0.0,0.0,0.0,0.0,0.0,0.0,0.0,0.0,0.0,0.0,0.0,-4.8118,-4.697,-4.5028,0.0,0.0,0.0,0.0,0.0,0.0,0.0,0.0,-3.1548,-3.0717,-3.0024,-2.8339,-2.7255,-2.6881,-2.6694,-2.5344,0.0,0.0,0.0,0.0,0.0,0.0,0.0,0.0,-1.4224,-1.514,-1.6544,-1.746,-1.7833,-1.5979,-1.3022,-0.9006,-0.4988,-0.2075,0.0,0.0,0.0,0.0,0.0,0.0,0.0,0.0,0.0,0.0,0.0,0.0,0.0,0.0,0.0,0.0,0.0,0.0,0.0,0.0,0.0,0.0,0.0,0.0,0.0,0.0,1.206,0.0,0.0,0.0,0.0,0.0,0.0,0.0,0.0,0.0,1.4599,1.4917,1.5486,1.6422,1.7019,1.7467,1.7745,0.0,0.0,0.0,0.0,0.0,0.0,0.0,2.0355,2.2458,2.3206,2.4038,2.5004,2.8914,3.2455,3.4454,0.0,0.0,3.2986,3.2372,3.2465,3.2358,3.2799,3.3093,3.2812,3.3293,3.3668,0.0,0.0,0.0,0.0,-5.5088,0.0,0.0,0.0,-5.0128,-4.961,0.0,-4.647,0.0,0.0,0.0,0.0,-3.4414,-3.4913,0.0,0.0,-3.4398,-3.3384,-3.2684,-3.0755,-2.9434,-2.8764,-2.9245,-2.8444,-2.6493,-2.5077,-2.2975,0.0,0.0,0.0,0.0,0.0,-1.4543,-1.5438,-1.6748,-1.7568,-1.7846,-1.786,-1.4952,-0.8923,-0.3276,-0.0211,0.0,0.0,0.0,0.0,0.0,0.0,0.0,0.0,0.0,0.0,0.0,0.0,0.0,0.0,0.0,0.0,0.0,0.0,0.0,0.0,0.0,0.0,0.0,0.0,0.0,1.2549,0.0,0.0,0.0,0.0,0.0,0.0,0.0,0.0,0.0,1.5156,1.5831,1.6098,1.6592,1.7304,0.0,0.0,0.0,0.0,1.7962,1.7575,1.7623,1.7799,1.7948,1.8545,1.9047,1.9203,0.0,0.0,2.6933,3.0229,3.2572,3.2045,3.5861,3.8326,3.7662,3.6887,3.6433,3.6166,3.5712,3.5471,3.5685,3.5965,3.6179,-7.0552,0.0,0.0,0.0,0.0,-5.9066,-5.82,-5.7029,-5.6044,-5.4428,-5.2539,-5.1594,0.0,0.0,0.0,0.0,0.0,0.0,-3.8307,-3.9548,-3.8376,-3.738,-3.6434,-3.4653,-3.286,-3.1089,-3.0635,-3.0007,-2.9205,-2.8377,-2.4824,-1.8907,0.0,0.0,0.0,0.0,-1.5099,-1.59,-1.7005,-1.767,-1.786,-1.786,-1.4952,-0.9153,-0.5236,-0.2141,0.0,0.0,0.0,0.0,0.0,0.0,0.0,0.0,0.0,0.0,0.0,0.0,0.0,0.0,0.0,0.0,0.0,0.0,0.0,0.0,0.0,0.0,0.0,0.0,1.177,1.2427,1.2671,0.0,0.0,0.0,0.0,0.0,0.0,0.0,0.0,0.0,1.6955,1.7003,1.6904,0.0,0.0,1.7541,1.7351,1.7941,1.847,1.8667,1.9,0.0,1.9583,1.9535,1.963,2.0078,2.1449,2.335,2.6406,2.7885,3.0319,3.4755,3.6727,3.8312,4.008,3.9402,3.8758,3.8842,3.8464,3.8357,3.845,3.8531,3.8638,-7.6528,-6.9756,-6.8263,-6.6445,-6.457,-6.3101,-6.1975,-6.1169,-5.9532,-5.7881,-5.6148,-5.5139,-5.1586,-4.6288,-4.4001,0.0,0.0,0.0,-4.1543,-4.3242,-4.1711,-4.0245,-3.8893,-3.6868,-3.465,-3.2251,-3.1864,-3.145,-3.1049,-3.0461,-2.7457,-2.2028,0.0,-1.8447,-1.6186,-1.5615,-1.5655,-1.6347,-1.7209,-1.7717,-1.786,-1.6741,-1.4282,-1.071,-0.6604,-0.3712,-0.1743,-0.0639,0.0,0.0,0.0,0.0,0.0,0.0,0.0,0.0,0.0,0.0,0.0,0.0,0.0,0.0,0.0,0.0442,0.1489,0.0,0.0,0.0,0.6495,0.9201,1.2463,1.2244,0.0,0.0,0.0,0.0,0.0,0.0,0.0,1.5642,1.6319,1.7083,1.784,1.784,1.8053,1.7975,1.807,1.805,1.7846,0.0,1.9054,1.9264,1.9725,2.0139,2.0376,2.0444,2.0641,2.1163,2.1591,2.2375,2.4462,2.6216,2.8686,3.2229,3.4541,3.6865,4.1147,4.0194,3.9344,4.0292,4.0281,4.012,4.012,4.0027,4.0027,-8.1372,-7.6729,-7.3138,-7.0793,-6.9145,-6.6538,-6.5097,-6.426,-6.1196,-6.0111,-6.0305,-5.7764,-5.3913,-4.908,-4.3248,0.0,-4.2812,-4.3594,-4.4824,-4.6406,-4.464,-4.2626,-4.0353,-3.827,-3.5803,-3.3043,-3.309,-3.2719,-3.2158,-3.1623,-3.0104,-2.783,-2.4217,-2.2067,-2.1302,-1.7986,-1.6385,-1.6761,-1.7338,-1.7711,-1.786,-1.5174,-1.3611,-1.3389,-0.7813,-0.4675,-0.442,-0.1535,0.0,0.0,0.0,0.0,0.0,0.0,0.0,0.0,0.0,0.0,0.0,0.0,0.0,0.0,0.0,0.0,0.0,0.0,0.0,0.0,0.4726,0.0,1.3642,1.2079,0.0,0.0,0.0,1.4889,1.4943,1.5961,1.6646,1.6646,0.0,0.0,1.8423,1.9035,1.9365,1.9284,1.9257,1.9122,1.8857,1.9325,1.9685,1.9596,2.0071,2.0505,2.075,2.1299,2.1855,2.2221,2.2493,2.2506,2.2654,2.479,2.6896,2.7825,2.9924,3.3895,4.0283,3.919,3.8651,4.1209,4.1403,4.1002,4.0962,4.0735,4.0655,-8.3331,-7.9693,-7.8273,-7.5476,-7.1879,-6.9504,-6.7919,-6.6741,-6.4332,-6.2898,-6.2195,-6.1135,-5.7413,-5.1868,-4.8756,-4.6806,-4.5879,-4.6074,-4.6562,-4.7305,-4.7482,-4.615,-4.3774,-4.1924,-3.9527,-3.667,-3.4358,-3.312,-3.2772,-3.2625,-3.2058,-3.0942,-2.8716,-2.4939,-2.0313,-1.9877,-1.8768,-1.6924,-1.729,-1.7602,-1.7853,-1.719,-1.5622,-1.3389,-0.9761,-0.6856,-0.4639,-0.1527,0.0,0.0,0.0,0.0,0.0,0.0,0.0,0.0,0.0,0.0,0.0,0.0,0.0,0.0,0.0,0.0,0.0,0.0,0.0166,0.0,0.2662,0.617,1.1345,1.1362,0.0,0.0,1.6001,1.6164,1.672,1.7338,1.7717,1.7717,1.8228,1.8838,1.9312,1.9529,1.98,2.0153,1.9732,1.9352,1.9298,1.9881,2.0363,2.0485,2.1034,2.1557,2.1726,2.2269,2.2662,2.2676,2.2798,2.2846,2.2703,2.3126,2.4678,2.7084,2.8055,3.0333,3.3895,3.6233,3.9025,4.1791,4.2312,4.1844,4.163,4.1336,4.1283,-8.5229,-8.2288,-8.1212,-7.904,-7.6183,-7.3842,-7.1712,-6.9615,-6.7585,-6.5658,-6.3852,-6.1763,-5.8427,-5.4221,-5.1507,-4.944,-4.7773,-4.7793,-4.8125,-4.875,-4.9219,-4.8063,-4.5543,-4.3224,-4.0761,-3.8014,-3.5271,-3.3734,-3.3574,-3.3574,-3.3547,-3.3494,-3.2507,-2.8882,-2.2945,-2.1581,-1.9783,-1.7073,-1.7433,-1.7731,-1.7955,-1.7901,-1.6401,-1.3538,-1.151,-0.8607,-0.467,-0.2746,-0.1252,0.0,0.0,0.0,0.0,0.0,0.0,0.0,0.0,0.0,0.0,0.0,0.0,0.0,0.0,0.0,0.0,0.0,0.0355,0.1414,0.172,0.4019,0.9109,0.8682,0.9924,1.4683,1.5189,1.6045,1.7847,1.8518,1.8816,1.8877,1.9119,1.9515,1.9942,2.0139,2.0383,2.0702,2.0505,2.0275,2.0207,2.0655,2.1075,2.1184,2.1692,2.2167,2.2371,2.2744,2.2954,2.2832,2.2907,2.2981,2.29,2.2818,2.3306,2.5242,2.5446,2.5848,2.7757,3.0949,3.5509,4.1272,4.1896,4.0762,4.1659,4.155,4.151,-8.6776,-8.4456,-8.256,-8.1452,-8.0705,-7.8348,-7.5511,-7.2568,-7.0499,-6.806,-6.5113,-6.1716,-5.8935,-5.649,-5.3296,-5.1095,-4.9558,-4.9208,-4.9473,-5.0234,-5.0254,-4.911,-4.701,-4.3845,-4.1264,-3.9085,-3.5883,-3.4469,-3.4429,-3.4469,-3.471,-3.5137,-3.5217,-3.2385,-2.6673,-2.3603,-2.0401,-1.7229,-1.7643,-1.7928,-1.8057,-1.7874,-1.664,-1.4024,-1.289,-1.0182,-0.5242,-0.4258,-0.2618,0.0,0.0,0.0,0.0,0.0,0.0,0.0,0.0,0.0,0.0,0.0,0.0,0.0,0.0,0.0,0.0,0.0,0.0761,0.2707,0.1034,0.1943,0.6753,0.5346,0.6814,1.2681,1.3794,1.537,1.8615,1.9488,1.9793,1.9915,2.0193,2.0131,2.039,2.0648,2.1144,2.1041,2.1265,2.1333,2.1245,2.1448,2.1658,2.1726,2.2106,2.2479,2.2737,2.2927,2.3002,2.2886,2.2961,2.3049,2.3076,2.3049,2.3035,2.3056,2.332,2.3197,2.2895,2.5887,3.1071,3.8494,3.841,3.8429,4.1243,4.1844,4.1764,-8.7138,-8.505,-8.2824,-8.1721,-8.1572,-8.0973,-7.8253,-7.3808,-7.1703,-6.902,-6.5936,-6.4726,-6.2665,-5.9993,-5.7299,-5.5002,-5.2785,-5.0802,-5.0195,-5.0683,-5.0683,-5.0842,-5.0681,-4.5795,-4.3362,-4.2528,-3.7838,-3.5271,-3.5044,-3.5271,-3.5191,-3.487,-3.5311,-3.2472,-2.649,0.0,0.0,0.0,-1.7697,-1.788,-1.7894,-1.7521,-1.6996,-1.6341,-1.3699,0.0,-0.7647,-0.5004,-0.2582,0.0,0.0,0.0,0.0,0.0,0.0,0.0,0.0,0.0,0.0,0.0,0.0,0.0,0.0,0.0,0.0,0.0,0.0209,0.0634,0.0221,0.1372,0.4893,0.4952,0.7159,1.3303,1.4335,1.5867,1.9204,2.0003,2.0214,2.0241,2.0252,2.0426,2.0709,2.0953,2.1453,2.1353,2.1611,2.1869,2.2052,2.1937,2.1896,2.2032,2.2405,2.2744,2.294,2.3083,2.3158,2.3151,2.3158,2.3225,2.3307,2.3253,2.3239,2.3327,2.3266,2.3083,2.3066,2.5879,2.7952,2.6682,3.0491,3.5613,4.1404,4.2793,4.2873,-8.7603,-8.651,-8.3573,-8.226,0.0,-8.226,-8.0257,-7.6647,-7.4225,-7.0662,-6.6488,-6.5664,-6.3866,-6.1328,-5.8458,-5.6219,-5.4087,-5.1788,-5.1016,-5.1445,-5.166,-5.1973,-5.2185,-4.8249,-4.5567,-4.4127,-3.9987,-3.722,-3.5645,-3.5778,-3.5765,-3.5631,-3.5925,-3.31,-2.7034,-2.4039,-2.1032,-1.7867,-1.8016,-1.8124,-1.8179,-1.7907,-1.6877,-1.5381,-1.4958,0.0,0.0,0.0,0.0,0.0,0.0,0.0,0.0,0.0,0.0,0.0,0.0,0.0,0.0,0.0,0.0,0.0,0.0,0.0,0.0,0.0,0.0,0.0,0.0,0.0715,0.2177,0.244,0.5161,1.1408,1.2418,1.4464,1.9161,2.0336,2.0492,2.0648,2.0533,2.064,2.098,2.1446,2.1714,2.1726,2.1964,2.2215,2.2466,2.2303,2.2188,2.2405,2.2683,2.2657,2.3083,2.3164,2.3219,2.3225,2.3286,2.3327,2.3334,2.3402,2.3456,2.3456,2.3381,2.3273,2.3417,2.4685,2.4954,2.3681,2.6582,3.1751,3.7129,3.9312,4.1052,-8.829,-8.7904,-8.4238,-8.2769,-8.2769,-8.2769,-8.1426,-7.9213,-7.6117,0.0,0.0,-6.6086,-6.4506,-6.2353,-5.9669,-5.7371,-5.5256,-5.3316,-5.2266,-5.2305,-5.2578,-5.2793,-5.2729,-5.0141,-4.7231,-4.4589,-4.1875,-3.894,-3.6219,-3.6219,-3.6353,-3.6567,-3.658,-3.3567,-2.7914,-2.2489,-1.9409,-1.8484,-1.8396,-1.8409,-1.8525,-1.8342,-1.7027,-1.4468,-1.6118,-1.4689,-0.9632,-0.9275,-0.7614,-0.4516,-0.1995,-0.0603,0.0,0.0,0.0,0.0,0.0,0.0,0.0,0.0,0.0,0.0,0.0,0.0,0.0,0.0,0.0,0.0,0.0,0.0,0.0,0.0,0.2507,0.8572,0.9075,1.1895,1.8467,1.9548,1.9907,2.068,2.0767,2.0848,2.1238,2.1741,2.2002,2.2079,2.2296,2.2493,2.269,2.2595,2.2547,2.2757,2.2934,2.309,2.3185,2.3219,2.3232,2.3273,2.3368,2.3415,2.3402,2.3551,2.3646,2.3571,2.3517,2.3483,2.3166,2.3158,2.2825,2.2956,2.4985,2.7841,3.1577,3.4246,3.7233,-8.8795,-8.794,-8.4289,-8.2769,-8.2769,-8.2769,-8.158,-7.9026,-7.444,-7.0542,-6.7668,-6.7492,-6.6714,-6.5347,-6.3839,-6.1534,-5.8632,-5.6655,-5.485,-5.3144,-5.2851,-5.3105,-5.3586,-5.0493,-4.7756,-4.5299,-4.2342,-3.9588,-3.7028,-3.6807,-3.6834,-3.6874,-3.6874,-3.3824,-2.8365,-2.4863,-2.1907,-1.9067,-1.8701,-1.8511,-1.8525,-1.8138,-1.7599,-1.7147,-1.7009,-1.5628,-1.2678,-1.2476,-0.9971,-0.4976,-0.4188,-0.2747,0.0,0.0,0.0,0.0,0.0,0.0,0.0,0.0,0.0,0.0,0.0,0.0,0.0,0.0,0.0,0.0,0.0,0.0,0.0,0.0,0.1519,0.5117,0.5866,0.8679,1.5515,1.6581,1.7685,2.0747,2.0962,2.1109,2.1475,2.2146,2.2476,2.2337,2.2581,2.2751,2.2825,2.2866,2.2927,2.2988,2.3097,2.3191,2.3232,2.3225,2.3293,2.3402,2.3449,2.3544,2.37,2.3802,2.3843,2.3822,2.3721,2.3646,2.3333,2.3388,2.3137,2.3035,2.3679,2.4872,2.8002,2.9411,3.1702,-8.9051,-8.8354,-8.4808,-8.3277,-8.3277,-8.3277,-8.175,-7.9083,-7.5627,-7.2532,-6.9997,-6.8471,-6.7592,-6.6916,-6.4993,-6.2619,-5.977,-5.7785,-5.5651,-5.3541,-5.3398,-5.3633,-5.378,-5.2546,-4.9566,-4.5677,-4.4221,-4.1265,-3.7356,-3.6941,-3.6941,-3.6719,-3.5489,-3.2487,-2.8349,-2.5446,-2.2512,-1.9312,-1.904,-1.8898,-1.8891,-1.8694,-1.8525,-1.8382,-1.8091,-1.7391,-1.6063,-1.4227,-1.2201,-0.9543,-0.6347,-0.398,-0.2678,-0.0905,0.0,0.0,0.0,0.0,0.0,0.0,0.0,0.0,0.0,0.0,0.0,0.0,0.0,0.0,0.0,0.0,0.0,0.0,0.1276,0.4654,0.5161,0.8025,1.4132,1.575,1.7137,2.0521,2.121,2.1384,2.1903,2.2448,2.2744,2.2662,2.2954,2.3158,2.3239,2.332,2.3273,2.309,2.3191,2.3327,2.3347,2.3422,2.3497,2.3565,2.3639,2.37,2.3802,2.3883,2.3965,2.391,2.3836,2.3768,2.3407,2.3429,2.3205,2.2988,2.2893,2.3538,2.4693,2.6187,3.02,-9.0003,-8.9192,-8.6041,-8.4395,-8.3936,-8.3786,-8.2415,-8.0136,-7.7306,-7.4821,-7.2532,-6.948,-6.8045,-6.7642,-6.5982,-6.3934,-6.1291,-5.9222,-5.6967,-5.4504,-5.4051,-5.4023,-5.4023,-5.4023,-5.1067,-4.6185,-4.5544,-4.2619,-3.7754,-3.7128,-3.7141,-3.6932,-3.5107,-3.2115,-2.8581,-2.6303,-2.3376,-1.975,-1.9413,-1.9352,-1.9352,-1.9352,-1.9284,-1.9142,-1.8986,-1.8789,-1.8302,-1.6326,-1.4624,-1.3629,-0.8685,-0.5528,-0.464,-0.1645,0.0,0.0,0.0,0.0,0.0,0.0,0.0,0.0,0.0,0.0,0.0,0.0,0.0,0.0,0.0,0.0,0.0,0.0,0.1033,0.3649,0.3915,0.6293,1.2191,1.4348,1.6296,1.9755,2.0952,2.1692,2.2255,2.2716,2.295,2.3049,2.3341,2.3537,2.3619,2.3653,2.3503,2.3246,2.2992,2.3132,2.3456,2.3537,2.3619,2.3666,2.3788,2.3843,2.3849,2.3992,2.406,2.3972,2.3877,2.3816,2.3707,2.3442,2.3191,2.3015,2.29,2.2703,2.2744,2.4634,2.8954,-9.2411,-9.0096,-8.7974,-8.6181,-8.4564,-8.4025,-8.3543,-8.2533,-7.8184,-7.6069,-7.5153,-7.1133,-6.8723,-6.802,-6.844,-6.7067,-6.4246,-6.2221,-5.9745,-5.7248,-5.4981,-5.4023,-5.4023,-5.4043,-5.1215,-4.6553,-4.5927,-4.3067,-3.8113,-3.7716,-3.7729,-3.7769,-3.7795,-3.467,-2.9314,-2.8543,-2.5652,-2.0072,-1.982,-1.9813,-1.9813,-1.9813,-1.9739,-1.9603,-1.9447,-1.9291,-1.9122,-1.8865,-1.7414,-1.4539,-1.1203,-0.7884,-0.5029,-0.1922,0.0,0.0,0.0,0.0,0.0,0.0,0.0,0.0,0.0,0.0,0.0,0.0,0.0,0.0,0.0,0.0,0.0,0.0,0.0,0.0,0.0,0.2117,0.6148,0.9375,1.2647,1.6362,1.9866,2.2013,2.2398,2.2696,2.3049,2.3341,2.3517,2.3626,2.3592,2.366,2.3639,2.3354,2.3072,2.3159,2.347,2.376,2.3884,2.3687,2.3809,2.3917,2.4019,2.406,2.41,2.4005,2.3863,2.3754,2.3714,2.3544,2.328,2.3191,2.2995,2.273,2.2595,2.3188,2.6529,-9.3327,-9.0767,-8.8951,-8.6973,-8.5378,-8.5013,-8.4444,-8.3389,-8.0092,-7.7778,-7.5791,-7.2784,-7.0349,-6.8798,-6.925,-6.7799,-6.5113,-6.2807,-6.0395,-5.7708,-5.5204,-5.4023,-5.4043,-5.4297,-5.2345,-4.8663,-4.7006,-4.4333,-4.0711,-3.8878,-3.817,-3.837,-3.8638,-3.5512,-2.9909,-2.9532,-2.6539,-2.0381,-2.0146,-2.018,-2.0234,-2.0098,-1.9976,-1.9915,-1.9773,-1.9664,-1.959,-1.9434,-1.8614,-1.7391,-1.419,-1.1064,-0.7741,-0.4621,-0.1961,0.0,0.0,0.0,0.0,0.0,0.0,0.0,0.0,0.0,0.0,0.0,0.0,0.0,0.0,0.0,0.0,0.0,0.0,0.0,0.0,0.134,0.5128,0.6776,0.9823,1.5462,1.9761,2.2201,2.271,2.2968,2.3253,2.3517,2.3653,2.3693,2.3809,2.3904,2.3883,2.3782,2.3734,2.3666,2.3612,2.3666,2.3761,2.3897,2.3985,2.4066,2.4087,2.4033,2.3985,2.3992,2.3822,2.368,2.3605,2.3517,2.3347,2.3253,2.3049,2.2778,2.2812,2.2873,2.4518,-9.4612,-9.179,-8.9332,-8.74,-8.597,-8.597,-8.5312,-8.3926,-8.1542,-7.8934,-7.6179,-7.3871,-7.1439,-6.9606,-6.9451,-6.8288,-6.6376,-6.3279,-6.0783,-5.8697,-5.5708,-5.4199,-5.4258,-5.4648,-5.3387,-5.0756,-4.7961,-4.49,-4.1537,-3.9504,-3.8664,-3.8958,-3.9172,-3.5989,-3.0553,-2.9845,-2.6546,-2.0804,-2.0329,-2.0397,-2.0485,-2.0336,-2.02,-2.0159,-2.0058,-1.9976,-1.9936,-1.9732,-1.9596,-1.9549,-1.6548,-1.314,-0.9778,-0.6653,-0.3481,0.0,0.0,0.0,0.0,0.0,0.0,0.0,0.0,0.0,0.0,0.0,0.0,0.0,0.0,0.0,0.0,0.0,0.0,0.0,0.0,0.0,0.3548,0.4668,0.8019,1.4239,1.914,2.2415,2.2995,2.3158,2.3327,2.3605,2.368,2.3761,2.3992,2.4039,2.4026,2.4005,2.3883,2.3809,2.3754,2.3795,2.3944,2.4019,2.406,2.4107,2.4121,2.4012,2.3958,2.4026,2.3843,2.3734,2.3687,2.3578,2.3395,2.3164,2.3022,2.2988,2.3035,2.3069,2.3029,-9.6763,-9.302,-8.9327,-8.7357,-8.6659,-8.6659,-8.624,-8.5305,-8.2138,-7.9218,-7.6898,-7.4203,-7.1641,-6.9476,-6.9501,-6.927,-6.8494,-6.4106,-6.1839,-6.0916,-5.6822,-5.4648,-5.4687,-5.5078,-5.3957,-5.1603,-4.8615,-4.4355,-3.9574,-3.9145,-3.9265,-3.9559,-3.9599,-3.6424,-3.0868,-2.9896,-2.6792,-2.132,-2.0343,-2.0397,-2.0519,-2.0519,-2.0438,-2.0343,-2.0309,-2.0234,-2.0119,-2.0078,-2.0003,-1.9861,-1.6958,-1.3728,-1.0193,-0.6759,-0.3535,0.0,0.0,0.0,0.0,0.0,0.0,0.0,0.0,0.0,0.0,0.0,0.0,0.0,0.0,0.0,0.0,0.0,0.0,0.0,0.0,0.0,0.0277,0.3339,0.6997,1.156,1.7967,2.2186,2.2911,2.3212,2.3388,2.3605,2.3693,2.3761,2.3904,2.3938,2.391,2.3829,2.3782,2.3748,2.3856,2.3883,2.389,2.3985,2.4094,2.4134,2.4121,2.4114,2.41,2.4066,2.3931,2.3843,2.3809,2.368,2.3463,2.3334,2.3381,2.3375,2.3293,2.3239,2.3219,-9.8089,-9.3818,-8.9935,-8.8185,-8.7975,-8.7975,-8.7347,-8.6299,-8.4971,-8.1868,-7.7898,-7.6109,-7.3486,-6.9953,-6.9978,-6.9978,-6.9614,-6.6605,-6.4243,-6.2517,-5.9137,-5.6815,-5.5508,-5.5918,-5.5747,-5.4364,-5.0203,-4.4979,-3.9898,-3.9626,-3.9867,-4.0107,-4.0161,-3.7999,-3.4142,-3.1327,-2.8102,-2.3944,-2.1715,-2.0492,-2.0532,-2.0539,-2.0573,-2.0648,-2.0532,-2.0438,-2.0383,-2.0295,-2.0261,-2.0295,-1.8917,-1.6881,-1.3439,-0.8404,-0.3598,0.0,0.0,0.0,0.0,0.0,0.0,0.0,0.0,0.0,0.0,0.0,0.0,0.0,0.0,0.0,0.0,0.0,0.0,0.0,0.0,0.0,0.0,0.1401,0.339,0.796,1.469,2.04,2.2783,2.3456,2.3592,2.3768,2.3816,2.3883,2.4012,2.4114,2.4141,2.4141,2.3883,2.3923,2.4168,2.3999,2.422,2.4046,2.4148,2.4175,2.4182,2.4161,2.4155,2.4094,2.3985,2.3917,2.387,2.3809,2.3592,2.3558,2.3612,2.3598,2.3544,2.3476,2.3497,-9.7568,-9.4119,-9.0515,-8.8873,-8.8723,-8.8903,-8.8245,-8.7048,-8.6778,-8.3448,-7.8875,-7.7561,-7.4768,-7.1079,-7.0706,-7.0782,-7.0598,-6.8221,-6.574,-6.3053,-6.0762,-5.8396,-5.6438,-5.666,-5.6914,-5.6013,-5.1362,-4.5627,-4.0331,-4.0067,-4.0334,-4.0588,-4.0695,-3.9034,-3.5814,-3.244,-2.8846,-2.5558,-2.2294,-2.0539,-2.0546,-2.0594,-2.075,-2.0694,-2.0811,-2.0689,-2.0689,-2.0594,-2.056,-2.0587,-2.0465,-1.8944,-1.5495,-0.9056,-0.4426,-0.2103,0.0,0.0,0.0,0.0,0.0,0.0,0.0,0.0,0.0,0.0,0.0,0.0,0.0,0.0,0.0,0.0,0.0,0.0,0.0,0.0,0.0,0.0,0.0,0.4576,1.2138,1.868,2.2889,2.3551,2.368,2.3863,2.389,2.3965,2.4155,2.427,2.4372,2.4412,2.446,2.413,2.4345,2.4168,2.41,2.4195,2.4243,2.4256,2.427,2.4243,2.4209,2.4128,2.4053,2.3985,2.3931,2.389,2.3836,2.3775,2.3768,2.3768,2.3727,2.37,2.3639,-9.5307,-9.4132,-9.1003,-8.9352,-8.8993,-8.9441,-8.8933,-8.7796,-8.7137,-8.4164,-7.9882,-7.8422,-7.5638,-7.2079,-7.1721,-7.1811,-7.1287,-6.9011,-6.6166,-6.3519,-6.163,-5.9178,-5.6191,-5.7226,-5.7162,-5.6218,-5.1313,-4.564,-4.0374,-4.0454,-4.0628,-4.0922,-4.1163,-3.9627,-3.6133,-3.2872,-2.924,-2.587,-2.2599,-2.0566,-2.056,-2.0689,-2.0967,-2.1042,-2.0861,-2.0994,-2.1007,-2.098,-2.0892,-2.0811,-2.0892,-1.9402,-1.5714,-0.944,-0.5519,-0.448,-0.1856,0.0,0.0,0.0,0.0,0.0,0.0,0.0,0.0,0.0,0.0,0.0,0.0,0.0,0.0,0.0,0.0,0.0,0.0,0.0,0.0,0.0,0.0,0.0,0.9542,1.8341,2.2281,2.2935,2.2729,2.2905,2.3588,2.3972,2.4202,2.4317,2.4419,2.4501,2.4589,2.4602,2.4473,2.4345,2.4338,2.4345,2.4358,2.4372,2.4406,2.4399,2.4419,2.4358,2.4297,2.4229,2.4168,2.4114,2.4026,2.3972,2.3965,2.3917,2.3843,2.3768,2.3626,-9.6122,-9.552,-9.1888,-9.0219,-9.004,-9.0249,-8.983,-8.9082,-8.8813,-8.6579,-8.3221,-8.0496,-7.762,-7.4782,-7.2919,-7.1912,-7.1912,-7.1096,-6.8803,-6.5132,-6.4229,-6.139,-5.7913,-5.7656,-5.5802,-5.2429,-5.0064,-4.6228,-4.1601,-4.0762,-4.1016,-4.1416,-4.139,-4.0906,-3.9674,-3.4182,-3.0259,-2.8955,-2.3644,-2.0763,-2.0855,-2.0797,-2.1095,-2.1102,-2.0982,-2.1238,-2.1435,-2.1163,-2.1034,-2.1068,-2.1028,-1.9459,-1.5831,-1.1625,-0.7953,-0.533,-0.2132,0.0,0.0,0.0,0.0,0.0,0.0,0.0,0.0,0.0,0.0,0.0,0.0,0.0,0.0,0.0,0.0,0.0,0.0,0.0,0.0,0.0,0.0,0.0,0.5786,1.1063,1.4942,1.7334,2.0081,2.0468,2.2046,2.3972,2.406,2.4324,2.444,2.444,2.4596,2.4697,2.4514,2.4412,2.4426,2.4406,2.4412,2.4501,2.4535,2.4555,2.4575,2.4589,2.4528,2.4453,2.4392,2.4297,2.4182,2.4148,2.4134,2.4039,2.3924,2.3816,2.3721,-9.6986,-9.6508,-9.2376,-9.0638,-9.0638,-9.0638,-9.0279,-8.9711,-8.9651,-8.8019,-8.4988,-8.1815,-7.9168,-7.6769,-7.3818,-7.2665,-7.2866,-7.3217,-7.0588,-6.6463,-6.5737,-6.278,-5.8506,-5.8047,-5.5208,-5.0602,-4.9575,-4.6521,-4.1127,-4.1029,-4.131,-4.167,-4.1697,-4.1684,-4.0999,-3.4944,-3.1291,-3.0261,-2.4596,-2.0926,-2.1102,-2.0973,-2.0962,-2.121,-2.1169,-2.1482,-2.1638,-2.1394,-2.1292,-2.134,-2.1245,-2.0147,-1.7825,-1.4636,-1.1205,-0.7495,-0.4017,0.0,0.0,0.0,0.0,0.0,0.0,0.0,0.0,0.0,0.0,0.0,0.0,0.0,0.0,0.0,0.0,0.0,0.0,0.0,0.0,0.0,0.0,0.0,0.3753,0.6102,0.7902,1.4136,1.7464,1.84,2.1485,2.4019,2.4087,2.4304,2.4372,2.4453,2.4596,2.4602,2.4487,2.4473,2.4204,2.4473,2.444,2.4575,2.4677,2.4677,2.4691,2.4738,2.4718,2.4589,2.4514,2.4351,2.4236,2.4256,2.4256,2.4168,2.406,2.4005,2.391,-9.7722,-9.7177,-9.2651,-9.0848,-9.0848,-9.0848,-9.0519,-8.989,-8.986,-8.8451,-8.5562,-8.2802,-8.0437,-7.8036,-7.5027,-7.377,-7.4297,-7.4247,-7.1902,-6.8079,-6.6292,-6.3249,-5.8743,-5.8418,-5.5315,-5.0521,-4.9889,-4.6592,-4.1302,-4.1269,-4.1523,-4.1884,-4.2111,-4.2111,-4.0678,-3.5146,-3.1584,-3.0525,-2.4747,-2.1129,-2.115,-2.1218,-2.1387,-2.1424,-2.1665,-2.1665,-2.172,-2.1692,-2.1672,-2.1652,-2.1516,-2.1203,-2.0665,-1.7973,-1.4228,-1.0483,-0.7253,-0.3502,0.0,0.0,0.0,0.0,0.0,0.0,0.0,0.0,0.0,0.0,0.0,0.0,0.0,0.0,0.0,0.0,0.0,0.0,0.0,0.0,0.0,0.0,0.2877,0.4342,0.1756,1.0295,1.5085,1.784,2.0644,2.2576,2.4202,2.4297,2.4412,2.4521,2.4616,2.4629,2.4555,2.4582,2.4602,2.4521,2.4501,2.4616,2.4772,2.4792,2.4813,2.486,2.4833,2.4718,2.4623,2.4487,2.4358,2.4311,2.4297,2.4256,2.4216,2.4161,2.406,-9.8426,-9.7941,-9.3811,-9.2075,-9.2075,-9.2075,-9.1686,-9.1147,-9.1087,-9.0336,-8.8312,-8.42,-8.1869,-8.0882,-7.6237,-7.4297,-7.4448,-7.4473,-7.3306,-7.0438,-6.7933,-6.4103,-5.9675,-5.8945,-5.5948,-5.114,-5.0466,-4.7477,-4.2021,-4.1644,-4.1937,-4.2418,-4.2485,-4.2512,-4.14,-3.5529,-3.2402,-3.1004,-2.5039,-2.153,-2.1408,-2.1489,-2.1597,-2.1431,-2.1699,-2.1787,-2.1964,-2.1998,-2.1882,-2.1692,-2.174,-2.1767,-2.1478,-1.8476,-1.494,-1.1145,-0.7622,-0.3818,0.0,0.0,0.0,0.0,0.0,0.0,0.0,0.0,0.0,0.0,0.0,0.0,0.0,0.0,0.0,0.0,0.0,0.0,0.0,0.0,0.0,0.0,0.0,0.0,0.0,0.5282,1.0601,1.3294,1.7259,2.0697,2.2614,2.4324,2.4467,2.4528,2.4602,2.465,2.4677,2.4704,2.4684,2.4582,2.4575,2.4636,2.4786,2.4887,2.4928,2.4989,2.486,2.4738,2.4745,2.4697,2.4568,2.4406,2.4467,2.4487,2.4372,2.429,2.4175,-9.913,-9.8794,-9.439,-9.2583,-9.2583,-9.2583,-9.2374,-9.2105,-9.2015,-9.1656,-8.9961,-8.5543,-8.3057,-8.2237,-7.7185,-7.49,-7.5075,-7.5101,-7.392,-7.1666,-6.8134,-6.3972,-6.0567,-5.9707,-5.7246,-5.2971,-5.1455,-4.8426,-4.4619,-4.2813,-4.2418,-4.2752,-4.2846,-4.2846,-4.2305,-3.6115,-3.2504,-3.113,-2.5606,-2.1815,-2.174,-2.174,-2.176,-2.1538,-2.1821,-2.1957,-2.2093,-2.2106,-2.1998,-2.1828,-2.1835,-2.1882,-2.1876,-1.996,-1.6402,-1.1491,-0.876,-0.5755,0.0,0.0,0.0,0.0,0.0,0.0,0.0,0.0,0.0,0.0,0.0,0.0,0.0,0.0,0.0,0.0,0.0,0.0,0.0,0.0,0.0,0.0,0.0,0.0,0.0,0.0,0.6488,0.977,1.4918,1.8271,2.0738,2.278,2.4487,2.4521,2.4602,2.467,2.4738,2.4772,2.4894,2.4792,2.4779,2.4813,2.4847,2.4975,2.5016,2.5023,2.4887,2.4813,2.4847,2.4826,2.4663,2.4589,2.4677,2.4704,2.4609,2.4562,2.4412,-10.0138,-9.9464,-9.5025,-9.2963,-9.2883,-9.2883,-9.2943,-9.2733,-9.2823,-9.2434,-9.0871,-8.6835,-8.4461,-8.3317,-7.8701,-7.6096,-7.6205,-7.623,-7.4524,-7.1682,-6.8061,-6.4435,-6.105,-6.0625,-5.8745,-5.5535,-5.2914,-4.9873,-4.6769,-4.4079,-4.3103,-4.3073,-4.314,-4.314,-4.1831,-3.6295,-3.2942,-3.1392,-2.5487,-2.227,-2.2004,-2.195,-2.1916,-2.193,-2.2052,-2.2113,-2.2147,-2.214,-2.2079,-2.1943,-2.193,-2.1957,-2.195,-2.1943,-1.8099,-1.2625,-1.0167,-0.7423,0.0,0.0,0.0,0.0,0.0,0.0,0.0,0.0,0.0,0.0,0.0,0.0,0.0,0.0,0.0,0.0,0.0,0.0,0.0,0.0,0.0,0.0,0.0,0.0,0.0,0.0,0.5649,0.7438,1.1675,1.5012,1.8085,2.0966,2.2901,2.446,2.4568,2.4704,2.4772,2.4833,2.4989,2.5057,2.507,2.5077,2.5009,2.5077,2.5091,2.5064,2.5009,2.4982,2.4989,2.4908,2.4806,2.486,2.5009,2.4982,2.4914,2.4908,2.4819,-10.205,-10.0384,-9.7796,-9.5718,-9.4431,-9.4708,-9.4349,-9.3451,-9.396,-9.3481,-9.1753,-8.8712,-8.6345,-8.4529,-8.082,-7.8683,-7.7435,-7.7134,-7.5054,-7.0977,-7.0599,-6.6845,-6.3339,-6.1797,-5.9946,-5.7272,-5.4261,-5.1011,-4.791,-4.4992,-4.3153,-4.3394,-4.3447,-4.3434,-4.2391,-3.7186,-3.2939,-3.1538,-2.5956,-2.2441,-2.212,-2.2093,-2.2059,-2.2079,-2.2201,-2.2276,-2.2289,-2.2289,-2.2276,-2.2249,-2.2228,-2.2201,-2.2208,-2.2215,-1.8588,-1.3039,-1.0829,-0.7786,0.0,0.0,0.0,0.0,0.0,0.0,0.0,0.0,0.0,0.0,0.0,0.0,0.0,0.0,0.0,0.0,0.0,0.0,0.0,0.0,0.0,0.0,0.0,0.0,0.0,0.0,0.0,0.0,0.8408,1.1748,1.5135,1.8874,2.1689,2.3894,2.4691,2.484,2.4874,2.4942,2.5064,2.5192,2.524,2.5281,2.522,2.5172,2.5186,2.5192,2.5179,2.5165,2.5165,2.524,2.5192,2.5274,2.5321,2.5281,2.5247,2.5247,2.5138,-10.2658,-10.1543,-9.8456,-9.6466,-9.5751,-9.5875,-9.5456,-9.4708,-9.4888,-9.4319,-9.2638,-9.0051,-8.7594,-8.4998,-8.2275,-7.9866,-7.8166,-7.8086,-7.5653,-7.1968,-7.096,-6.8543,-6.4354,-6.291,-6.1469,-5.9553,-5.5368,-5.2306,-4.9852,-4.6228,-4.3607,-4.3728,-4.3741,-4.3754,-4.3203,-3.8226,-3.4972,-3.2492,-2.7697,-2.4188,-2.2496,-2.2215,-2.2221,-2.2221,-2.2296,-2.2344,-2.2337,-2.2337,-2.2337,-2.2344,-2.2344,-2.2344,-2.2344,-2.206,-1.8419,-1.2837,-1.1163,-0.7545,0.0,0.0,0.0,0.0,0.0,0.0,0.0,0.0,0.0,0.0,0.0,0.0,0.0,0.0,0.0,0.0,0.0,0.0,0.0,0.0,0.0,0.0,0.0,0.0,0.0,0.0,0.0,0.0,0.0,0.9059,1.3355,1.7085,2.0872,2.313,2.4552,2.4989,2.5009,2.5064,2.5131,2.524,2.5315,2.5362,2.5369,2.5321,2.5281,2.5294,2.5315,2.5349,2.5369,2.5457,2.5511,2.5525,2.5532,2.5559,2.5552,2.5484,2.5335,-10.3356,-10.2654,-9.8977,-9.7206,-9.6563,-9.6653,-9.6234,-9.5606,-9.5725,-9.4977,-9.3496,-9.1425,-8.8943,-8.5543,-8.3495,-8.0674,-7.8822,-7.8556,-7.6449,-7.1872,-7.1921,-6.8803,-6.503,-6.3672,-6.3275,-6.2524,-5.6541,-5.3669,-5.1748,-4.7664,-4.4151,-4.3982,-4.3995,-4.3955,-4.3163,-4.0451,-3.6657,-3.3141,-2.9094,-2.5591,-2.2868,-2.2323,-2.2323,-2.2323,-2.233,-2.2344,-2.2344,-2.2344,-2.2344,-2.2344,-2.2344,-2.2344,-2.2344,-2.1784,-1.9532,-1.2555,-1.172,-0.8101,-0.28,0.0,0.0,0.0,0.0,0.0,0.0,0.0,0.0,0.0,0.0,0.0,0.0,0.0,0.0,0.0,0.0,0.0,0.0,0.0,0.0,0.0,0.0,0.0,0.0,0.0,0.0,0.0,0.0,0.6659,1.0947,1.4979,1.8442,2.2267,2.3661,2.4753,2.5104,2.5131,2.5206,2.5362,2.543,2.5491,2.5545,2.5559,2.5525,2.5443,2.545,2.5484,2.5525,2.5572,2.5627,2.5688,2.5715,2.5722,2.5715,2.5701,2.5532,-10.6032,-10.2901,-10.211,-9.9893,-9.7006,-9.7102,-9.6683,-9.5815,-9.6174,-9.5666,-9.4439,-9.3293,-9.0474,-8.715,-8.5719,-8.2977,-8.0065,-7.9563,-7.7028,-7.2592,-7.2188,-6.9504,-6.4989,-6.4121,-6.4082,-6.236,-5.7546,-5.3999,-5.2495,-4.7535,-4.4259,-4.4008,-4.4008,-4.4008,-4.3177,-4.0463,-3.6948,-3.3171,-2.9656,-2.5865,-2.3151,-2.2344,-2.2344,-2.2344,-2.2344,-2.2344,-2.2344,-2.2344,-2.2344,-2.2344,-2.2344,-2.2344,-2.2344,-2.2344,-1.9815,-1.6179,-1.2566,-0.8948,-0.4757,0.0,0.0,0.0,0.0,0.0,0.0,0.0,0.0,0.0,0.0,0.0,0.0,0.0,0.0,0.0,0.0,0.0,0.0,0.0,0.0,0.0,0.0,0.0,0.0,0.0,0.0,0.0,0.0,0.0,0.7915,1.1625,1.5071,1.8872,2.2723,2.412,2.5179,2.5213,2.5281,2.5511,2.562,2.5681,2.5742,2.581,2.5789,2.562,2.5572,2.5606,2.5647,2.5694,2.5722,2.5755,2.5803,2.5857,2.5823,2.5776,2.5708,-10.5882,-10.3792,-10.1639,-9.9507,-9.7789,-9.788,-9.7311,-9.6234,-9.6414,-9.5845,-9.4828,-9.4057,-9.1511,-8.7922,-8.6781,-8.4034,-8.0983,-8.0373,-7.7342,-7.3336,-7.2474,-7.0057,-6.4762,-6.4316,-6.4316,-6.2513,-5.7686,-5.4131,-5.337,-4.7304,-4.4259,-4.4008,-4.4008,-4.4008,-4.319,-4.0463,-3.6948,-3.3171,-2.9656,-2.6139,-2.2606,-2.2344,-2.2344,-2.2344,-2.2344,-2.2344,-2.2344,-2.2344,-2.2344,-2.2344,-2.2344,-2.2344,-2.2344,-2.206,-2.0652,-1.7021,-1.3429,-0.9524,-0.5882,0.0,0.0,0.0,0.0,0.0,0.0,0.0,0.0,0.0,0.0,0.0,0.0,0.0,0.0,0.0,0.0,0.0,0.0,0.0,0.0,0.0,0.0,0.0,0.0,0.0,0.0,0.0,0.0,0.0,0.0,0.8573,1.2004,1.7641,2.1802,2.3835,2.4914,2.5301,2.5389,2.5613,2.5749,2.5817,2.5864,2.5898,2.5817,2.5667,2.5674,2.5674,2.5769,2.581,2.5817,2.5817,2.585,2.5878,2.5878,2.5844,2.5776,-10.5306,-10.4674,-10.0874,-9.8748,-9.8329,-9.8478,-9.767,-9.6593,-9.6503,-9.5845,-9.4708,-9.4355,-9.1776,-8.7854,-8.5588,-8.3457,-8.0298,-8.085,-7.7799,-7.3654,-7.2992,-7.0293,-6.5689,-6.4316,-6.4316,-6.3284,-5.7436,-5.4131,-5.2878,-4.7304,-4.4522,-4.4008,-4.4008,-4.4008,-4.319,-4.155,-3.7494,-3.3441,-3.0463,-2.6953,-2.3427,-2.2344,-2.2344,-2.2344,-2.2344,-2.2357,-2.2398,-2.2357,-2.2371,-2.2371,-2.2364,-2.2344,-2.2344,-2.2364,-2.096,-1.7875,-1.3758,-0.9836,-0.704,0.0,0.0,0.0,0.0,0.0,0.0,0.0,0.0,0.0,0.0,0.0,0.0,0.0,0.0,0.0,0.0,0.0,0.0,0.0,0.0,0.0,0.0,0.0,0.0,0.0,0.0,0.0,0.0,0.0,0.3368,0.5827,0.9856,1.6413,2.1196,2.3239,2.4635,2.5382,2.5518,2.5722,2.581,2.5864,2.5905,2.5932,2.5803,2.5667,2.5647,2.5661,2.5789,2.5871,2.5844,2.5837,2.5878,2.5898,2.5891,2.5884,2.5844,-10.6782,-10.4743,-10.2246,-9.9945,-9.7909,-9.8239,-9.7431,-9.5905,-9.6324,-9.5815,-9.4618,-9.4415,-9.1893,-8.7337,-8.3031,-8.121,-8.0758,-8.0729,-7.833,-7.3609,-7.3081,-7.0314,-6.5004,-6.4316,-6.4316,-6.304,-5.7436,-5.4637,-5.2623,-4.7304,-4.4272,-4.4008,-4.4008,-4.4008,-4.3744,-4.237,-3.9931,-3.4261,-3.236,-2.8848,-2.3427,-2.2344,-2.2344,-2.2344,-2.235,-2.2398,-2.2472,-2.2425,-2.2411,-2.2506,-2.2405,-2.235,-2.2364,-2.2466,-2.2439,-1.9894,-1.6003,-1.1021,-0.9365,0.0,0.0,0.0,0.0,0.0,0.0,0.0,0.0,0.0,0.0,0.0,0.0,0.0,0.0,0.0,0.0,0.0,0.0,0.0,0.0,0.0,0.0,0.0,0.0,0.0,0.0,0.0,0.0,0.0,0.1842,0.4303,0.7077,1.3286,1.9274,2.161,2.3633,2.4387,2.5538,2.5762,2.585,2.5884,2.5878,2.5857,2.5762,2.5654,2.562,2.5579,2.5627,2.5694,2.5776,2.5844,2.5871,2.5891,2.5898,2.5891,2.5891,-10.6332,-10.4257,-10.2158,-9.9507,-9.7249,-9.767,-9.7042,-9.5965,-9.6264,-9.5815,-9.4858,-9.5037,-9.2412,-8.7778,-8.396,-8.1935,-8.1463,-8.1604,-7.8595,-7.4039,-7.2942,-7.008,-6.5468,-6.4316,-6.4316,-6.2532,-5.7954,-5.4384,-5.1858,-4.807,-4.4008,-4.4008,-4.4008,-4.4008,-4.3731,-4.1828,-3.8029,-3.3441,-2.9384,-2.5598,-2.3158,-2.2344,-2.2344,-2.2344,-2.2344,-2.2425,-2.2506,-2.2513,-2.2534,-2.2622,-2.254,-2.2513,-2.2547,-2.2588,-2.2567,-2.2422,-1.7913,-1.3983,-1.1157,-0.6022,-0.2869,0.0,0.0,0.0,0.0,0.0,0.0,0.0,0.0,0.0,0.0,0.0,0.0,0.0,0.0,0.0,0.0,0.0,0.0,0.0,0.0,0.0,0.0,0.0,0.0,0.0,0.0,0.0,0.0,0.3992,0.6457,0.9548,1.5184,1.9658,2.1646,2.3026,2.5129,2.5661,2.5837,2.585,2.5803,2.5749,2.5667,2.5572,2.5491,2.5471,2.5477,2.5593,2.5749,2.5817,2.5864,2.5884,2.5898,2.5912,2.5905,-10.6622,-10.4626,-10.1658,-9.9018,-9.6833,-9.7311,-9.6773,-9.5725,-9.6294,-9.5935,-9.4982,-9.4808,-9.242,-8.8829,-8.5827,-8.3423,-8.1779,-8.1955,-7.8373,-7.5241,-7.2823,-6.9846,-6.593,-6.4316,-6.4316,-6.4054,-5.7436,-5.4384,-5.2113,-4.807,-4.4008,-4.4008,-4.4008,-4.4008,-4.319,-4.1815,-3.8563,-3.3171,-2.6413,-2.3151,-2.2344,-2.2344,-2.2344,-2.2344,-2.2357,-2.2425,-2.2574,-2.2554,-2.2622,-2.2784,-2.2696,-2.2662,-2.2717,-2.273,-2.273,-2.2563,-1.9771,-1.6973,-1.324,-0.8643,-0.4322,0.0,0.0,0.0,0.0,0.0,0.0,0.0,0.0,0.0,0.0,0.0,0.0,0.0,0.0,0.0,0.0,0.0,0.0,0.0,0.0,0.0,0.0,0.0,0.0,0.0,0.0,0.0,0.0,0.0,0.5223,0.7386,1.0228,1.5879,1.9647,2.1657,2.3753,2.5202,2.5376,2.5789,2.5728,2.5667,2.5599,2.5498,2.5403,2.5471,2.5229,2.564,2.5728,2.5817,2.5884,2.5891,2.5905,2.5925,2.5918,-10.8848,-10.6555,-10.1764,-9.9006,-9.7519,-9.7461,-9.6773,-9.5695,-9.6324,-9.6234,-9.5401,-9.3896,-9.1939,-8.8912,-8.6898,-8.4409,-8.1855,-8.2357,-7.8661,-7.531,-7.3053,-6.9846,-6.615,-6.4316,-6.4054,-6.2776,-5.7186,-5.4384,-5.2368,-4.7058,-4.4522,-4.4008,-4.4008,-4.4008,-4.319,-4.1828,-3.8308,-3.2911,-2.6163,-2.2627,-2.235,-2.235,-2.2357,-2.2344,-2.2364,-2.2466,-2.273,-2.2642,-2.269,-2.294,-2.2839,-2.2798,-2.2852,-2.2879,-2.29,-2.265,-2.2485,-1.9654,-1.5884,-1.0128,-0.4358,0.0,0.0,0.0,0.0,0.0,0.0,0.0,0.0,0.0,0.0,0.0,0.0,0.0,0.0,0.0,0.0,0.0,0.0,0.0,0.0,0.0,0.0,0.0,0.0,0.0,0.0,0.0,0.0,0.0,0.0,0.4927,0.6519,1.0888,1.7053,1.9963,2.2622,2.4029,2.4814,2.5249,2.5633,2.5579,2.5586,2.5484,2.5416,2.5202,2.5276,2.5309,2.5688,2.583,2.5898,2.5898,2.5966,2.6027,2.5979,-10.8466,-10.5546,-10.2718,-10.0649,-9.8865,-9.796,-9.6773,-9.5905,-9.6683,-9.7042,-9.6683,-9.5466,-9.3105,-9.041,-8.8694,-8.6018,-8.2835,-8.2533,-7.8733,-7.5333,-7.2823,-6.9611,-6.615,-6.4054,-6.3284,-6.0718,-5.64,-5.2623,-5.035,-4.6346,-4.4785,-4.4008,-4.4062,-4.4008,-4.319,-4.0222,-3.6165,-3.268,-2.6777,-2.2439,-2.2364,-2.2425,-2.2432,-2.2344,-2.2344,-2.2439,-2.2608,-2.2683,-2.2818,-2.2934,-2.294,-2.2968,-2.2995,-2.3029,-2.3022,-2.332,-2.3178,-2.1436,-1.7936,-1.217,-0.6687,0.0,0.0,0.0,0.0,0.0,0.0,0.0,0.0,0.0,0.0,0.0,0.0,0.0,0.0,0.0,0.0,0.0,0.0,0.0,0.0,0.0,0.0,0.0,0.0,0.0,0.0,0.0,0.0,0.0,0.0,0.0,0.4629,0.6175,1.1987,1.6689,2.1178,2.2561,2.3326,2.4093,2.4544,2.564,2.5627,2.5511,2.5437,2.5189,2.5236,2.5566,2.5661,2.5837,2.5898,2.5898,2.5993,2.6108,2.6054,-10.7631,-10.5688,-10.2971,-10.0908,-9.9391,-9.802,-9.7012,-9.6414,-9.7072,-9.7491,-9.7491,-9.7014,-9.4606,-9.1413,-9.0058,-8.6985,-8.3779,-8.2203,-7.8536,-7.5559,-7.2823,-6.9611,-6.615,-6.3791,-6.2757,-5.9179,-5.5795,-5.2749,-4.9515,-4.5975,-4.4779,-4.4302,-4.4249,-4.4235,-4.2396,-3.7306,-3.3262,-3.1683,-2.685,-2.2757,-2.2378,-2.2418,-2.2445,-2.2364,-2.2384,-2.25,-2.2656,-2.2778,-2.2927,-2.3035,-2.3083,-2.3124,-2.3151,-2.3158,-2.3144,-2.3198,-2.2965,-2.1787,-1.8837,-1.2752,-0.7268,0.0,0.0,0.0,0.0,0.0,0.0,0.0,0.0,0.0,0.0,0.0,0.0,0.0,0.0,0.0,0.0,0.0,0.0,0.0,0.0,0.0,0.0,0.0,0.0,0.0,0.0,0.0,0.0,0.0,0.0,0.0,0.2753,0.4579,0.6696,0.949,1.2632,1.8057,1.9416,2.1751,2.2836,2.4254,2.5303,2.5511,2.5471,2.5498,2.5566,2.5661,2.5755,2.5864,2.5898,2.5918,2.602,2.6122,2.6115,-10.6461,-10.7297,-10.2228,-9.9545,-9.8538,-9.776,-9.7461,-9.7252,-9.7431,-9.7551,-9.767,-9.791,-9.5402,-9.1552,-9.0543,-8.7401,-8.3591,-8.2443,-7.9442,-7.488,-7.3282,-6.9611,-6.639,-6.3791,-6.2004,-5.9107,-5.5944,-5.2765,-4.9002,-4.6085,-4.4917,-4.4716,-4.4663,-4.4543,-4.3282,-3.6926,-3.3757,-3.2403,-2.6141,-2.3341,-2.2439,-2.2452,-2.2459,-2.2445,-2.2506,-2.2628,-2.273,-2.2879,-2.3015,-2.311,-2.3137,-2.3171,-2.3205,-2.3185,-2.3185,-2.3219,-2.3341,-2.3045,-2.2069,-1.1902,-0.5824,-0.1459,0.0,0.0,0.0,0.0,0.0,0.0,0.0,0.0,0.0,0.0,0.0,0.0,0.0,0.0,0.0,0.0,0.0,0.0,0.0,0.0,0.0,0.0,0.0,0.0,0.0,0.0,0.0,0.0,0.0,0.0,0.0,0.2432,0.3341,0.1824,0.4278,1.0491,1.5569,1.8492,2.084,2.2575,2.3571,2.484,2.5505,2.5538,2.5661,2.5796,2.585,2.5891,2.5925,2.5966,2.6068,2.6122,2.6122,-10.7632,-10.5108,-10.364,-10.1307,-9.8628,-9.8299,-9.794,-9.7551,-9.7521,-9.776,-9.8149,-9.8478,-9.5547,-9.1916,-9.005,-8.7727,-8.3565,-8.2443,-7.9442,-7.4175,-7.3512,-6.9611,-6.593,-6.383,-6.1531,-5.7082,-5.4371,-5.1492,-4.5961,-4.5306,-4.5146,-4.4903,-4.4957,-4.4783,-4.272,-3.7816,-3.3707,-3.2372,-2.7207,-2.2798,-2.2662,-2.2703,-2.271,-2.2622,-2.2676,-2.2737,-2.2805,-2.2947,-2.3063,-2.311,-2.3117,-2.3144,-2.3185,-2.3171,-2.3144,-2.3198,-2.33,-2.1819,-1.9181,-1.2808,-0.8187,-0.4681,0.0,0.0,0.0,0.0,0.0,0.0,0.0,0.0,0.0,0.0,0.0,0.0,0.0,0.0,0.0,0.0,0.0,0.0,0.0,0.0,0.0,0.0,0.0,0.0,0.0,0.0,0.0,0.0,0.0,0.0,0.0,0.0,0.0,0.0,0.0,0.6745,1.1758,1.5603,1.7912,1.9958,2.2648,2.3995,2.4946,2.5586,2.5742,2.5864,2.5878,2.5912,2.5939,2.6,2.6088,2.6129,2.6129,-10.7912,-10.5229,-10.3993,-10.2001,-9.9638,-9.8838,-9.8239,-9.788,-9.785,-9.8119,-9.8448,-9.8328,-9.5547,-9.1804,-9.0202,-8.7638,-8.3087,-8.2658,-7.9466,-7.4197,-7.3713,-6.9738,-6.6251,-6.419,-6.1509,-5.7023,-5.4368,-5.1728,-4.7372,-4.5685,-4.5277,-4.5251,-4.5171,-4.5211,-4.2921,-3.8442,-3.3929,-3.203,-2.7378,-2.29,-2.2825,-2.2825,-2.2852,-2.2805,-2.2818,-2.2873,-2.2907,-2.2981,-2.3083,-2.3083,-2.3097,-2.3124,-2.3158,-2.3158,-2.313,-2.3198,-2.2931,-2.1813,-1.9578,-1.601,-1.1986,-0.8237,-0.3231,0.0,0.0,0.0,0.0,0.0,0.0,0.0,0.0,0.0,0.0,0.0,0.0,0.0,0.0,0.0,0.0,0.0,0.0,0.0,0.0,0.0,0.0,0.0,0.0,0.0,0.0,0.0,0.0,0.0,0.0,0.0,0.0,0.0,0.0,0.0,0.739,1.1826,1.4422,1.6122,1.9764,2.3123,2.437,2.535,2.5823,2.5918,2.5925,2.5932,2.5945,2.602,2.6108,2.6095,2.6061,-10.7022,-10.7323,-10.296,-10.1152,-10.1025,-9.9166,-9.8508,-9.8478,-9.8478,-9.8478,-9.8538,-9.8538,-9.5547,-9.1413,-9.0598,-8.7638,-8.354,-8.2949,-7.8877,-7.5358,-7.4072,-6.9519,-6.6512,-6.4482,-6.2284,-5.9434,-5.6474,-5.3168,-5.0156,-4.7082,-4.5625,-4.5665,-4.5598,-4.5585,-4.3278,-3.8762,-3.4759,-3.2249,-2.7217,-2.355,-2.2934,-2.2873,-2.29,-2.29,-2.2954,-2.3002,-2.3049,-2.3124,-2.3178,-2.3191,-2.3198,-2.3205,-2.3212,-2.3212,-2.3212,-2.3219,-2.3219,-2.3065,-2.2294,-1.8658,-1.4933,-1.062,-0.4743,0.0,0.0,0.0,0.0,0.0,0.0,0.0,0.0,0.0,0.0,0.0,0.0,0.0,0.0,0.0,0.0,0.0,0.0,0.0,0.0,0.0,0.0,0.0,0.0,0.0,0.0,0.0,0.0,0.0,0.0,0.0,0.0,0.0,0.0,0.0,0.0,0.7161,0.9717,1.2935,1.6529,1.9827,2.341,2.5072,2.5749,2.5857,2.5966,2.5959,2.5891,2.6,2.6074,2.5959,2.5918,-10.7515,-10.4943,-10.3483,-10.1565,-9.9431,-9.8838,-9.8538,-9.8538,-9.8538,-9.8538,-9.8538,-9.8538,-9.5547,-9.0795,-9.0598,-8.7229,-8.4602,-8.2336,-7.9062,-7.6273,-7.4265,-7.039,-6.7299,-6.4832,-6.2871,-6.0043,-5.6744,-5.3408,-5.0362,-4.7193,-4.5745,-4.5732,-4.5745,-4.5745,-4.3243,-3.8233,-3.5877,-3.2449,-2.681,-2.3967,-2.3097,-2.3076,-2.3076,-2.3103,-2.3124,-2.3158,-2.3171,-2.3185,-2.3219,-2.3219,-2.3124,-2.3103,-2.3219,-2.3137,-2.309,-2.3212,-2.3225,-2.3266,-2.2756,-1.9566,-1.5826,-1.2115,-0.6838,-0.2978,0.0,0.0,0.0,0.0,0.0,0.0,0.0,0.0,0.0,0.0,0.0,0.0,0.0,0.0,0.0,0.0,0.0,0.0,0.0,0.0,0.0,0.0,0.0,0.0,0.0,0.0,0.0,0.0,0.0,0.0,0.0,0.0,0.0,0.0,0.0,0.0,0.6258,0.9762,1.3318,1.7222,2.1466,2.4014,2.5572,2.5688,2.5823,2.5803,2.5762,2.5912,2.6,2.5905,2.5864,-10.8677,-10.5895,-10.44,-10.1732,-9.8778,-9.8538,-9.8538,-9.8538,-9.8538,-9.8538,-9.8538,-9.8538,-9.5547,-9.1189,-9.04,-8.7842,-8.3113,-8.2944,-8.0192,-7.5494,-7.4946,-7.0749,-6.7418,-6.526,-6.3574,-6.0584,-5.7048,-5.3837,-5.0377,-4.745,-4.5745,-4.5745,-4.5745,-4.5745,-4.4083,-4.0196,-3.6543,-3.2573,-2.8077,-2.4438,-2.3307,-2.3307,-2.3314,-2.3314,-2.3314,-2.3293,-2.3239,-2.3232,-2.3225,-2.3219,-2.3117,-2.313,-2.3212,-2.3144,-2.3171,-2.3273,-2.3246,-2.3239,-2.2965,-2.1556,-1.6997,-1.2697,-0.9216,-0.5371,0.0,0.0,0.0,0.0,0.0,0.0,0.0,0.0,0.0,0.0,0.0,0.0,0.0,0.0,0.0,0.0,0.0,0.0,0.0,0.0,0.0,0.0,0.0,0.0,0.0,0.0,0.0,0.0,0.0,0.0,0.0,0.0,0.0,0.0,0.0,0.0,0.0,0.6607,1.0461,1.4986,1.9875,2.175,2.2952,2.49,2.562,2.5633,2.5674,2.5769,2.5884,2.5912,2.5912,-10.9569,-10.8472,-10.5014,-10.1565,-9.8808,-9.8538,-9.8538,-9.8538,-9.8538,-9.8538,-9.8538,-9.8538,-9.5547,-9.1385,-9.04,-8.7719,-8.4383,-8.3194,-8.0331,-7.4408,-7.5349,-7.2044,-6.7694,-6.5746,-6.3991,-6.0948,-5.7277,-5.3377,-5.0364,-4.7331,-4.5745,-4.5745,-4.5745,-4.5745,-4.4922,-4.0568,-3.665,-3.3508,-2.8258,-2.3497,-2.3449,-2.3449,-2.347,-2.347,-2.3449,-2.3415,-2.3307,-2.3259,-2.3239,-2.3239,-2.3219,-2.3212,-2.3246,-2.3293,-2.3368,-2.3388,-2.3368,-2.3347,-2.3334,-2.2487,-1.8194,-1.4458,-1.1257,-0.6869,0.0,0.0,0.0,0.0,0.0,0.0,0.0,0.0,0.0,0.0,0.0,0.0,0.0,0.0,0.0,0.0,0.0,0.0,0.0,0.0,0.0,0.0,0.0,0.0,0.0,0.0,0.0,0.0,0.0,0.0,0.0,0.0,0.0,0.0,0.0,0.0,0.0,0.0,0.7926,1.2075,1.5926,1.8174,2.0059,2.1985,2.4248,2.5633,2.5667,2.5661,2.5728,2.5844,2.5891,-10.7828,-10.6343,-10.278,-10.0128,-9.8658,-9.8538,-9.8538,-9.8538,-9.8538,-9.8538,-9.8538,-9.8117,-9.5547,-9.1189,-9.0681,-8.7852,-8.4338,-8.3377,-8.0364,-7.6961,-7.5931,-7.2513,-6.7657,-6.6077,-6.4078,-6.1254,-5.7445,-5.2259,-4.8249,-4.628,-4.5745,-4.5745,-4.5745,-4.5745,-4.5209,-4.0337,-3.6224,-3.4162,-2.8438,-2.4182,-2.3517,-2.3578,-2.3626,-2.3632,-2.3619,-2.3598,-2.351,-2.3442,-2.3415,-2.3388,-2.3273,-2.3293,-2.3388,-2.3497,-2.3578,-2.3612,-2.3571,-2.3531,-2.3524,-2.2935,-1.919,-1.4538,-1.0739,-0.6601,0.0,0.0,0.0,0.0,0.0,0.0,0.0,0.0,0.0,0.0,0.0,0.0,0.0,0.0,0.0,0.0,0.0,0.0,0.0,0.0,0.0,0.0,0.0,0.0,0.0,0.0,0.0,0.0,0.0,0.0,0.0,0.0,0.0,0.0,0.0,0.0,0.0,0.0,0.6007,0.8212,1.1061,1.3612,1.649,1.9038,2.1307,2.3647,2.4979,2.4325,2.5397,2.5837,2.5857,-10.7498,-10.6382,-10.345,-10.0611,-9.8778,-9.8538,-9.8538,-9.8538,-9.8538,-9.8538,-9.8538,-9.8147,-9.5547,-9.13,-9.0874,-8.8119,-8.4453,-8.4341,-8.0723,-7.7418,-7.542,-7.2038,-6.9122,-6.635,-6.2718,-5.9435,-5.3647,-4.8862,-4.6019,-4.5745,-4.5745,-4.5745,-4.5745,-4.5484,-4.4948,-4.0116,-3.6308,-3.4556,-2.8893,-2.5743,-2.3911,-2.3727,-2.3822,-2.3836,-2.3816,-2.3775,-2.3666,-2.3592,-2.3571,-2.3544,-2.3476,-2.3476,-2.3551,-2.3612,-2.37,-2.3727,-2.3714,-2.3687,-2.3693,-2.2827,-1.9896,-1.4608,-1.1655,-0.8097,0.0,0.0,0.0,0.0,0.0,0.0,0.0,0.0,0.0,0.0,0.0,0.0,0.0,0.0,0.0,0.0,0.0,0.0,0.0,0.0,0.0,0.0,0.0,0.0,0.0,0.0,0.0,0.0,0.0,0.0,0.0,0.0,0.0,0.0,0.0,0.0,0.0,0.0,0.3781,0.5356,0.6931,0.9453,1.2302,1.5169,1.8388,2.1019,2.2331,2.2988,2.4084,2.5504,2.5524,-10.7538,-10.6938,-10.4317,-10.1502,-9.8808,-9.8538,-9.8538,-9.8538,-9.8538,-9.8538,-9.8328,-9.8117,-9.4956,-9.2195,-9.0324,-8.7196,-8.4986,-8.461,-8.0867,-7.7322,-7.6223,-7.2325,-6.9015,-6.6564,-6.2406,-5.6624,-5.0286,-4.7946,-4.5852,-4.5799,-4.5745,-4.5745,-4.5745,-4.5745,-4.462,-4.1922,-3.8412,-3.494,-3.0614,-2.7304,-2.5316,-2.3924,-2.3992,-2.4019,-2.3992,-2.387,-2.3795,-2.3721,-2.3727,-2.3721,-2.3707,-2.3693,-2.3721,-2.3768,-2.3836,-2.3877,-2.3856,-2.3809,-2.3782,-2.3802,-1.8775,-1.4336,-1.2553,0.0,0.0,0.0,0.0,0.0,0.0,0.0,0.0,0.0,0.0,0.0,0.0,0.0,0.0,0.0,0.0,0.0,0.0,0.0,0.0,0.0,0.0,0.0,0.0,0.0,0.0,0.0,0.0,0.0,0.0,0.0,0.0,0.0,0.0,0.0,0.0,0.0,0.0,0.0,0.0,0.126,0.3462,0.5975,0.8185,1.0408,1.392,1.7488,1.8184,1.9202,2.219,2.3584,2.4884,-10.5805,-10.3428,-10.1372,-9.9637,-9.8598,-9.8538,-9.8538,-9.8538,-9.8538,-9.8538,-9.7935,-9.5949,-9.3379,-9.04,-8.8303,-8.5992,-8.4668,-8.4321,-8.1131,-7.6934,-7.5858,-7.1857,-6.8035,-6.5372,-6.233,-5.631,-4.9935,-4.6703,-4.5932,-4.5839,-4.5745,-4.5745,-4.5758,-4.5511,-4.5,-4.2081,-3.8714,-3.5163,-3.1345,-2.7778,-2.52,-2.4066,-2.4087,-2.41,-2.4094,-2.4141,-2.4128,-2.3965,-2.3965,-2.3958,-2.3917,-2.3863,-2.3863,-2.3917,-2.3999,-2.4012,-2.3985,-2.3985,-2.3965,-2.3965,-1.9505,-1.4106,-1.2021,0.0,0.0,0.0,0.0,0.0,0.0,0.0,0.0,0.0,0.0,0.0,0.0,0.0,0.0,0.0,0.0,0.0,0.0,0.0,0.0,0.0,0.0,0.0,0.0,0.0,0.0,0.0,0.0,0.0,0.0,0.0,0.0,0.0,0.0,0.0,0.0,0.0,0.0,0.0,0.0,0.0,0.0,0.2827,0.4717,0.6614,0.9512,1.2743,1.3439,1.5094,1.8698,2.1631,2.2581]}]]